     2              OBSERVATION DATA    GPS                 RINEX VERSION / TYPE
                                                            PGM / RUN BY / DATE
                                                            COMMENT
sig: 9 8 7 6 5 4 3 2 1 0                                    COMMENT
sig: 9 8 7 6 5 4 3 2 1 0                                    COMMENT
sig: 9 8 7 6 5 4 3 2 1 0                                    COMMENT
Original Marker Name: LOVE                                  COMMENT
Campaign Name: jpl 1993-1997                                COMMENT
4-Character Station Name: LOVE                              COMMENT
6-Character Antenna Code: DMRCHT                            COMMENT
Vertical Measurement Point: BPA                             COMMENT
Vertical Offset to Rinex Ref. Point: 0.0000                 COMMENT
Radial Measurement Point: RRP                               COMMENT
Radial Offset to Rinex Ref. Point: 0.0000                   COMMENT
Antenna Height from Field Measurement: 0.0614 m             COMMENT
Additional Antenna Identification Info.:                    COMMENT
Turborogue and Ashtech Choke Ring                           COMMENT
Original XYZ: -2524816.1632 -4617702.5375 3592348.1013      COMMENT
New XYZ position is based on association with SCEC monument COMMENT
E1E9J0Z4+0011. Position of that monument is believed to be  COMMENT
valid to within 1 m horizontally; vertical accuracy         COMMENT
should be no worse than 3-times this value.                 COMMENT
                                                            COMMENT
Revised Rinex header created by UCSD GPS archive for        COMMENT
GSAC on 15-Apr-1999 (1999:105) 02:01:11 GMT                 COMMENT
For assistance contact dagnew@ucsd.edu or hjohnson@ucsd.edu COMMENT
                                                            COMMENT
LOMA VERDE RE 1961                                          MARKER NAME
LOVE                                                        MARKER NUMBER
JSH JET PROPULSION LABORATORY                               OBSERVER / AGENCY
262 TURBOROGUE SNR-8000 2.8                                 REC # / TYPE / VERS
329 DORNE-MARGOL. TYPE T                                    ANT # / TYPE
 -2524830.0000 -4617691.0000  3592367.0000                  APPROX POSITION XYZ
        0.0614        0.0000        0.0000                  ANTENNA: DELTA H/E/N
     1     1     0                                          WAVELENGTH FACT L1/2
     5    L1    L2    P1    P2    C1                        # / TYPES OF OBSERV
    30                                                      INTERVAL
  1994     2    15     0     0    0.000000                  TIME OF FIRST OBS
  1994     2    15    23    59   30.000000                  TIME OF LAST OBS
    26                                                      # OF SATELLITES
          01   842   842     0   842   842                  PRN / # OF OBS
          02   938   938     0   938   938                  PRN / # OF OBS
          03   888   888   888   888     0                  PRN / # OF OBS
          04   914   914     0   914   914                  PRN / # OF OBS
          05   807   807     0   807   807                  PRN / # OF OBS
          07   821   821     0   821   821                  PRN / # OF OBS
          09   511   511     0   511   511                  PRN / # OF OBS
          12   801   801   801   801     0                  PRN / # OF OBS
          13   825   825   825   825     0                  PRN / # OF OBS
          14   791   791     0   791   791                  PRN / # OF OBS
          15   903   903     0   903   903                  PRN / # OF OBS
          16   600   600     0   600   600                  PRN / # OF OBS
          17   946   946     0   946   946                  PRN / # OF OBS
          18   865   865     0   865   865                  PRN / # OF OBS
          19   957   957     0   957   957                  PRN / # OF OBS
          20   955   955     0   955   955                  PRN / # OF OBS
          21   910   910     0   910   910                  PRN / # OF OBS
          22   884   884     0   884   884                  PRN / # OF OBS
          23   757   757     0   757   757                  PRN / # OF OBS
          24   798   798     0   798   798                  PRN / # OF OBS
          25   796   796     0   796   796                  PRN / # OF OBS
          26   861   861     0   861   861                  PRN / # OF OBS
          27   925   925     0   925   925                  PRN / # OF OBS
          28   942   942     0   942   942                  PRN / # OF OBS
          29   931   931     0   931   931                  PRN / # OF OBS
                                                            END OF HEADER
 94 02 15 00 00 00.0000000  0  8 02 07 15 18 19 26 27 31
 -23641721.08549 -18422091.35148         0.00041  21003249.33748  21003247.61849
 -17948624.67149 -13985918.32847         0.00041  21933555.97247  21933553.09149
  -4168404.64248  -3248101.09145         0.00041  24516872.40045  24516867.46648
  -2628441.98848  -2048150.30245         0.00041  24746433.08045  24746429.70048
 -10851277.11449  -8455529.36647         0.00041  21658287.95347  21658286.37549
  -9354082.23748  -7288882.72846         0.00041  23734557.61946  23734552.99048
 -27935006.50149 -21767513.55348         0.00041  20242281.81848  20242281.05649
  -5148103.92848  -4011482.32345         0.00041  24267943.15845  24267941.35548
 94 02 15 00 00 30.0000000  0  8 02 07 15 18 19 26 27 31
 -23659070.46849 -18435610.32948         0.00041  20999947.78948  20999946.03349
 -18033869.24449 -14052342.55947         0.00041  21917333.99847  21917331.47549
  -4225401.51748  -3292514.19245         0.00041  24506026.40245  24506021.19848
  -2515597.97848  -1960220.05345         0.00041  24767909.40545  24767903.23048
 -10797459.92049  -8413593.89947         0.00041  21668529.12147  21668527.36449
  -9433131.36048  -7350479.34746         0.00041  23719513.06246  23719510.49448
 -27923398.88249 -21758468.63548         0.00041  20244490.77548  20244489.96649
  -5047569.02648  -3933143.45745         0.00041  24287077.29145  24287072.52648
 94 02 15 00 01 00.0000000  0  8 02 07 15 18 19 26 27 31
 -23676189.96049 -18448950.17148         0.00041  20996689.91248  20996688.30249
 -18118772.18749 -14118500.57847         0.00041  21901177.85047  21901175.02649
  -4282115.65348  -3336706.98645         0.00041  24495235.84445  24495228.66248
  -2402748.52048  -1872285.55845         0.00041  24789384.79145  24789377.92048
 -10743352.36849  -8371432.18047         0.00041  21678825.35247  21678823.58449
  -9511826.54248  -7411800.16446         0.00041  23704537.70446  23704535.04548
 -27911400.24349 -21749119.02548         0.00041  20246773.87248  20246773.23049
  -4946791.87448  -3854615.83245         0.00041  24306251.98945  24306249.85648
 94 02 15 00 01 30.0000000  0  8 02 07 15 18 19 26 27 31
 -23693077.98349 -18462109.64548         0.00041  20993476.30348  20993474.59149
 -18203351.62249 -14184406.51447         0.00041  21885082.47947  21885079.98549
  -4338549.93748  -3380681.69045         0.00041  24484493.52445  24484489.42848
  -2289903.87648  -1784354.78845         0.00041  24810857.24645  24810851.44148
 -10688954.92949  -8329044.56747         0.00041  21689176.90947  21689175.13549
  -9590169.15948  -7472846.26646         0.00041  23689629.54746  23689626.92848
 -27899013.59249 -21739467.06848         0.00041  20249131.09148  20249130.30449
  -4845794.26148  -3775916.42245         0.00041  24325472.25545  24325469.15048
 94 02 15 00 02 00.0000000  0  8 02 07 15 18 19 26 27 31
 -23709751.98849 -18475102.35148         0.00041  20990303.46948  20990301.56449
 -18287622.38049 -14250071.91947         0.00041  21869046.29047  21869043.62449
  -4394709.13348  -3424442.04645         0.00041  24473807.30545  24473802.49648
  -2177074.26248  -1696435.73545         0.00041  24832327.30245  24832322.50748
 -10634277.43549  -8286438.73547         0.00041  21699581.50247  21699579.91149
  -9668183.08048  -7533636.25346         0.00041  23674785.14846  23674781.39848
 -27886250.21649 -21729521.56048         0.00041  20251559.88848  20251559.06649
  -4744598.36948  -3697062.51245         0.00041  24344730.33945  24344726.02048
 94 02 15 00 02 30.0000000  0  8 02 07 15 18 19 26 27 31
 -23726211.00349 -18487927.52748         0.00041  20987171.38048  20987169.52249
 -18371568.46949 -14315484.34047         0.00041  21853071.52447  21853069.00549
  -4450580.38248  -3467978.01745         0.00041  24463173.99345  24463170.67048
  -2064254.72048  -1608524.53344         0.00041  24853798.26344  24853791.18248
 -10579315.26149  -8243611.07047         0.00041  21710040.50347  21710038.74449
  -9745863.77148  -7594166.56546         0.00041  23660000.68346  23659999.05448
 -27873102.81049 -21719276.81048         0.00041  20254061.75348  20254060.89249
  -4643201.03848  -3618051.57945         0.00041  24364025.32545  24364021.43148
 94 02 15 00 03 00.0000000  0  8 02 07 15 18 19 26 27 31
 -23742441.94749 -18500574.98148         0.00041  20984082.57648  20984080.81649
 -18455189.51849 -14380643.48447         0.00041  21837158.85847  21837156.34349
  -4506161.55048  -3511287.92845         0.00041  24452597.44445  24452593.82548
  -1951450.35048  -1520625.16545         0.00041  24875263.88445  24875257.51248
 -10524066.34349  -8200559.96647         0.00041  21720554.36447  21720552.44149
  -9823218.17248  -7654442.62746         0.00041  23645282.68746  23645278.94148
 -27859580.20649 -21708739.70048         0.00041  20256634.84548  20256634.15049
  -4541610.63748  -3538890.24745         0.00041  24383356.98445  24383353.64848
 94 02 15 00 03 30.0000000  0  8 02 07 15 18 19 26 27 31
 -23758434.57349 -18513036.73548         0.00041  20981039.29048  20981037.51349
 -18538483.54549 -14445547.80547         0.00041  21821308.40147  21821305.84549
  -4561441.42548  -3554363.05045         0.00041  24442083.14645  24442074.47748
  -1838669.04948  -1432743.79245         0.00041  24896727.62745  24896719.03748
 -10468519.22849  -8157276.50847         0.00041  21731124.50747  21731122.77849
  -9900246.10148  -7714464.28946         0.00041  23630624.45846  23630621.01948
 -27845679.61549 -21697908.05848         0.00041  20259280.22948  20259279.45849
  -4439819.79048  -3459572.66745         0.00041  24402726.33945  24402723.59648
 94 02 15 00 04 00.0000000  0  8 02 07 15 18 19 26 27 31
 -23774181.24349 -18525306.83548         0.00041  20978042.66948  20978040.91949
 -18621436.27449 -14510186.18347         0.00041  21805523.02847  21805520.56449
  -4616414.11448  -3597198.82845         0.00041  24431619.24345  24431613.45048
  -1725927.88648  -1344893.63945         0.00041  24918179.30045  24918173.13548
 -10412679.30249  -8113764.88647         0.00041  21741750.33447  21741748.62249
  -9976930.82048  -7774218.55046         0.00041  23616030.54546  23616028.21148
 -27831403.33649 -21686783.67248         0.00041  20261996.65848  20261996.02949
  -4337807.77048  -3380082.78345         0.00041  24422137.62145  24422135.69748
 94 02 15 00 04 30.0000000  0  8 02 07 15 18 19 26 27 31
 -23789678.64149 -18537382.69948         0.00041  20975093.58948  20975091.87849
 -18704047.83449 -14574558.71547         0.00041  21789802.77047  21789800.11749
  -4671080.60848  -3639795.96845         0.00041  24421214.73145  24421210.62248
  -1613235.48748  -1257081.53444         0.00041  24939624.16044  24939617.82848
 -10356549.38849  -8070027.30147         0.00041  21752431.61647  21752429.77749
 -10053254.80948  -7833691.68346         0.00041  23601507.32946  23601504.16148
 -27816750.63849 -21675365.97948         0.00041  20264785.15348  20264784.42049
  -4235578.38248  -3300423.49045         0.00041  24441592.62745  24441589.26648
 94 02 15 00 05 00.0000000  0  8 02 07 15 18 19 26 27 31
 -23804936.54549 -18549271.94448         0.00041  20972190.11848  20972188.34349
 -18786318.60749 -14638665.70747         0.00041  21774146.79447  21774144.33849
  -4725441.35548  -3682154.86545         0.00041  24410871.28345  24410865.91648
  -1500588.46848  -1169304.76145         0.00041  24961059.60245  24961053.78648
 -10300141.72149  -8026073.28747         0.00041  21763165.66447  21763163.86249
 -10129225.99048  -7892889.93446         0.00041  23587050.03346  23587047.31848
 -27801715.36649 -21663650.18048         0.00041  20267646.17548  20267645.49749
  -4133138.29948  -3220600.06145         0.00041  24461084.34045  24461082.86748
 94 02 15 00 05 30.0000000  0  8 02 07 15 18 19 26 27 31
 -23819961.82249 -18560979.92648         0.00041  20969330.82648  20969329.07649
 -18868238.48049 -14702499.26547         0.00041  21758557.88047  21758555.40149
  -4779486.06948  -3724267.46045         0.00041  24400585.14445  24400581.38048
  -1387978.69048  -1081557.02645         0.00041  24982490.49445  24982482.95848
 -10243452.98049  -7981900.24847         0.00041  21773953.20047  21773951.36349
 -10204840.28148  -7951810.05646         0.00041  23572661.60446  23572658.15348
 -27786282.61449 -21651624.65548         0.00041  20270583.00548  20270582.26449
  -4030472.83748  -3140600.97545         0.00041  24480622.21345  24480619.67248
 94 02 15 00 06 00.0000000  0  8 02 07 15 18 19 26 27 31
 -23834754.00749 -18572506.27948         0.00041  20966515.93848  20966514.28849
 -18949781.92249 -14766039.50747         0.00041  21743040.76447  21743038.15749
  -4833203.83248  -3766125.33445         0.00041  24390362.70245  24390359.32948
  -1275392.04348   -993827.36444         0.00041  25003917.05644  25003907.38848
 -10186473.11749  -7937500.35847         0.00041  21784795.98647  21784794.29749
 -10280079.60048  -8010438.00446         0.00041  23558343.69246  23558340.60648
 -27770430.85449 -21639272.63048         0.00041  20273599.37148  20273598.65549
  -3927585.96748  -3060429.37345         0.00041  24500201.35145  24500198.33248
 94 02 15 00 06 30.0000000  0  8 02 07 15 18 19 26 27 31
 -23849350.09449 -18583879.83148         0.00041  20963738.34548  20963736.63849
 -19030960.79049 -14829295.65847         0.00041  21727592.59047  21727590.16349
  -4886615.17148  -3807744.41245         0.00041  24380197.98845  24380195.49148
  -1162834.39748   -906120.23045         0.00041  25025332.67845  25025326.63348
 -10129229.33349  -7892894.81447         0.00041  21795689.06747  21795687.54149
 -10354975.74548  -8068798.53146         0.00041  23544090.62746  23544088.36948
 -27754173.09349 -21626604.24048         0.00041  20276692.97548  20276692.39449
  -3824520.53248  -2980118.64045         0.00041  24519811.43145  24519810.94348
 94 02 15 00 07 00.0000000  0  8 02 07 15 18 19 26 27 31
 -23863756.51549 -18595105.59148         0.00041  20960996.91948  20960995.22449
 -19111765.49149 -14892260.25547         0.00041  21712215.86347  21712213.43449
  -4939715.10248  -3849120.88345         0.00041  24370094.29945  24370090.84448
  -1050311.14948   -818439.87844         0.00041  25046746.26644  25046739.04348
 -10071730.25349  -7848090.33547         0.00041  21806630.78347  21806629.18249
 -10429532.61348  -8126894.70346         0.00041  23529901.86146  23529900.53148
 -27737506.67249 -21613617.41348         0.00041  20279864.58948  20279863.87249
  -3721273.11348  -2899666.09045         0.00041  24539459.94245  24539458.21048
 94 02 15 00 07 30.0000000  0  8 02 07 15 18 19 26 27 31
 -23877964.18649 -18606176.47848         0.00041  20958293.21548  20958291.63749
 -19192190.38649 -14954928.90047         0.00041  21696911.36947  21696909.01249
  -4992495.22848  -3890248.14345         0.00041  24360052.15245  24360046.79048
   -937825.23948   -730788.68544         0.00041  25068150.09244  25068144.65748
 -10013950.09149  -7803066.83047         0.00041  21817625.88847  21817624.34849
 -10503729.86948  -8184710.64146         0.00041  23515783.99246  23515781.27948
 -27720426.92249 -21600308.51148         0.00041  20283114.79848  20283114.10249
  -3617859.51948  -2819084.05745         0.00041  24559139.51945  24559137.18248
 94 02 15 00 08 00.0000000  0  8 02 07 15 18 19 26 27 31
 -23891965.15949 -18617086.30248         0.00041  20955628.86048  20955627.25449
 -19272238.78249 -15017304.17447         0.00041  21681678.63747  21681676.30449
  -5044958.15348  -3931128.25045         0.00041  24350069.77545  24350063.47348
   -825380.83248   -643169.81144         0.00041  25089554.90844  25089541.93448
  -9955886.14349  -7757822.18847         0.00041  21828675.09347  21828673.62849
 -10577569.57048  -8242247.98346         0.00041  23501732.37646  23501729.88248
 -27702952.11349 -21586691.76948         0.00041  20286440.26048  20286439.45249
  -3514294.58048  -2738384.12345         0.00041  24578847.22945  24578844.78348
 94 02 15 00 08 30.0000000  0  8 02 07 15 18 19 26 27 31
 -23905734.31349 -18627815.48448         0.00041  20953008.68748  20953006.96649
 -19351906.92249 -15079383.14247         0.00041  21666518.17847  21666515.86849
  -5097081.82048  -3971743.95045         0.00041  24340150.82645  24340144.65448
   -712954.78648   -555565.21044         0.00041  25110941.54544  25110936.32248
  -9897508.67349  -7712333.24247         0.00041  21839784.21647  21839782.43849
 -10651038.50248  -8299496.40846         0.00041  23487751.94946  23487749.25048
 -27685074.21949 -21572760.93348         0.00041  20289842.14048  20289841.42849
  -3410549.25148  -2657543.54545         0.00041  24598588.96745  24598586.97648
 94 02 15 00 09 00.0000000  0  8 02 07 15 18 19 26 27 31
 -23919279.65549 -18638370.26348         0.00041  20950430.97848  20950429.39149
 -19431217.94749 -15141183.83647         0.00041  21651425.83947  21651423.40549
  -5148871.58448  -4012099.51745         0.00041  24330292.52145  24330289.06248
   -600559.14948   -467984.36044         0.00041  25132331.25544  25132324.31248
  -9838804.21249  -7666589.49747         0.00041  21850955.01947  21850953.47749
 -10724138.58648  -8356457.42746         0.00041  23473841.42446  23473838.69248
 -27666808.78349 -21558528.11348         0.00041  20293317.89648  20293317.25449
  -3306631.45248  -2576568.66145         0.00041  24618364.79145  24618361.76948
 94 02 15 00 09 30.0000000  0  8 02 07 15 18 19 26 27 31
 -23932610.45749 -18648757.86448         0.00041  20947894.25448  20947892.61549
 -19510190.34249 -15202720.67247         0.00041  21636397.46347  21636395.41549
  -5200340.07848  -4052204.71445         0.00041  24320498.68345  24320495.05448
   -488201.71048   -380433.21644         0.00041  25153711.32044  25153705.74848
  -9779774.59349  -7620592.38347         0.00041  21862188.04847  21862186.50049
 -10796887.62448  -8413144.91946         0.00041  23459998.32946  23459995.02848
 -27648178.00649 -21544010.61648         0.00041  20296863.23648  20296862.65149
  -3202552.23148  -2495467.92145         0.00041  24638169.63045  24638167.33848
 94 02 15 00 10 00.0000000  0  8 02 07 15 18 19 26 27 31
 -23945710.01649 -18658965.27348         0.00041  20945401.38248  20945399.78849
 -19588803.06249 -15263977.24547         0.00041  21621437.84247  21621435.69249
  -5251472.21348  -4092047.76045         0.00041  24310770.74045  24310764.87648
   -375868.61548   -292901.08543         0.00041  25175090.49143  25175081.58048
  -9720428.90549  -7574348.98247         0.00041  21873481.19147  21873479.56949
 -10869261.18148  -8469539.81246         0.00041  23446224.48246  23446222.74748
 -27629162.74649 -21529193.52048         0.00041  20300481.75348  20300481.07249
  -3098282.19848  -2414218.55745         0.00041  24658011.35845  24658009.33948
 94 02 15 00 10 30.0000000  0  8 02 07 15 18 19 26 27 31
 -23958597.03649 -18669007.06448         0.00041  20942948.98048  20942947.49049
 -19667059.52549 -15324956.21347         0.00041  21606546.11447  21606544.08249
  -5302275.39648  -4131634.47145         0.00041  24301099.83445  24301097.09948
   -263578.82448   -205402.62844         0.00041  25196459.50844  25196450.28848
  -9660794.67149  -7527880.74247         0.00041  21884829.10247  21884827.55849
 -10941261.00348  -8525643.50546         0.00041  23432523.14546  23432521.40448
 -27609750.73449 -21514067.26748         0.00041  20304175.77848  20304175.01949
  -2993845.16848  -2332839.05245         0.00041  24677886.33045  24677882.98048
 94 02 15 00 11 00.0000000  0  8 02 07 15 18 19 26 27 31
 -23971263.08849 -18678876.66848         0.00041  20940538.84748  20940537.16949
 -19744939.70349 -15385641.97747         0.00041  21591725.89947  21591723.87549
  -5352741.29348  -4170958.41445         0.00041  24291496.34445  24291493.80948
   -151344.56948   -117947.51244         0.00041  25217811.56244  25217807.43548
  -9600880.76849  -7481194.58247         0.00041  21896230.48647  21896228.81249
 -11012879.34748  -8581449.94146         0.00041  23418895.73046  23418892.84048
 -27589926.98549 -21498620.18048         0.00041  20307948.09948  20307947.30849
  -2889245.34148  -2251332.67745         0.00041  24697789.54445  24697787.78048
 94 02 15 00 11 30.0000000  0  8 02 07 15 18 19 26 27 31
 -23983709.29549 -18688574.96848         0.00041  20938170.34948  20938168.68549
 -19822435.74549 -15446028.41747         0.00041  21576978.93947  21576976.83749
  -5402873.71648  -4210022.45745         0.00041  24281956.95145  24281953.83048
    -39179.46548    -30546.29044         0.00041  25239154.65044  25239152.01248
  -9540706.43949  -7434305.49547         0.00041  21907681.59647  21907679.55149
 -11084105.34048  -8636950.61546         0.00041  23405341.54246  23405338.89548
 -27569692.29649 -21482852.88048         0.00041  20311798.70448  20311797.78249
  -2784487.90248  -2169703.50645         0.00041  24717726.03245  24717722.52348
 94 02 15 00 12 00.0000000  0  8 02 07 15 18 19 26 27 31
 -23995946.31349 -18698110.26848         0.00041  20935841.63448  20935840.03849
 -19899540.37849 -15506109.86547         0.00041  21562306.30647  21562304.22749
  -5452675.09348  -4248828.56345         0.00041  24272480.01745  24272476.69048
     72904.04548     56791.36844         0.00041  25260487.58144  25260480.62148
  -9480275.32149  -7387216.31147         0.00041  21919180.71047  21919179.17049
 -11154936.58248  -8692143.72646         0.00041  23391862.79146  23391860.06148
 -27549041.58849 -21466761.41148         0.00041  20315728.20748  20315727.56049
  -2679592.37648  -2087966.74245         0.00041  24737687.11945  24737683.28548
 94 02 15 00 12 30.0000000  0  8 02 07 15 18 19 26 27 31
 -24007975.92949 -18707483.96148         0.00041  20933552.41148  20933550.80449
 -19976262.57849 -15565893.30947         0.00041  21547706.56147  21547704.39249
  -5502137.30248  -4287370.34145         0.00041  24263067.26145  24263064.13948
    184906.65948    144066.03943         0.00041  25281805.29943  25281794.35948
  -9419565.81449  -7339910.20847         0.00041  21930733.57347  21930731.84749
 -11225394.37748  -8747045.82546         0.00041  23378454.39146  23378452.37748
 -27527980.51649 -21450350.17848         0.00041  20319736.13248  20319735.38049
  -2574555.11048  -2006119.54845         0.00041  24757674.13145  24757671.17848
 94 02 15 00 13 00.0000000  0  8 02 07 15 18 19 26 27 31
 -24019798.18249 -18716696.07848         0.00041  20931302.59748  20931301.07749
 -20052596.58249 -15625374.27147         0.00041  21533180.42247  21533178.52049
  -5551253.24448  -4325642.34045         0.00041  24253721.35745  24253717.66148
    296834.46748    231282.36943         0.00041  25303099.15643  25303093.46348
  -9358557.65449  -7292371.38747         0.00041  21942342.58847  21942341.30449
 -11295467.01248  -8801647.80246         0.00041  23365120.53646  23365117.90148
 -27506518.80449 -21433626.75648         0.00041  20323820.09448  20323819.42449
  -2469349.92648  -1924141.46145         0.00041  24777694.13345  24777690.97348
 94 02 15 00 13 30.0000000  0  8 02 07 15 18 19 26 27 31
 -24031417.13549 -18725749.78348         0.00041  20929091.64948  20929090.03049
 -20128535.37249 -15684547.27047         0.00041  21518729.73547  21518727.82249
  -5600013.22248  -4363636.94845         0.00041  24244443.24845  24244438.86148
    408698.86848    318449.37444         0.00041  25324386.34144  25324380.65248
  -9297254.68449  -7244602.85247         0.00041  21954008.54647  21954006.96049
 -11365142.17448  -8855940.06346         0.00041  23351860.89946  23351859.03248
 -27484651.67349 -21416587.42448         0.00041  20327981.30448  20327980.60749
  -2363971.51048  -1842028.41145         0.00041  24797744.97045  24797743.68948
 94 02 15 00 14 00.0000000  0  8 02 07 15 18 19 26 27 31
 -24042823.34349 -18734637.71748         0.00041  20926921.07848  20926919.53849
 -20204082.29849 -15743414.91347         0.00041  21504353.46447  21504351.54149
  -5648408.81648  -4401347.63745         0.00041  24235233.87745  24235229.47148
    520504.72448    405570.78343         0.00041  25345667.41943  25345656.39448
  -9235659.05349  -7196606.27147         0.00041  21965730.01047  21965728.23949
 -11434444.90148  -8909942.11046         0.00041  23338672.95146  23338671.22048
 -27462378.73649 -21399231.87648         0.00041  20332219.60448  20332219.02149
  -2258431.01348  -1759789.05945         0.00041  24817828.93145  24817827.49648
 94 02 15 00 14 30.0000000  0  8 02 07 15 18 19 26 27 31
 -24054022.74949 -18743364.50848         0.00041  20924789.92948  20924788.33549
 -20279252.82549 -15801989.26447         0.00041  21490049.20947  21490047.07549
  -5696440.82548  -4438775.05245         0.00041  24226091.70345  24226089.02148
    632241.66048    492638.40443         0.00041  25366923.91843  25366919.44148
  -9173793.13348  -7148399.08047         0.00041  21977502.48647  21977500.84048
 -11503367.00348  -8963647.57346         0.00041  23325558.16846  23325555.96248
 -27439712.58049 -21381569.92148         0.00041  20336532.64348  20336532.14349
  -2152729.37148  -1677424.13045         0.00041  24837945.14045  24837941.77548
 94 02 15 00 15 00.0000000  0  8 02 07 15 18 19 26 27 31
 -24065014.65249 -18751929.61548         0.00041  20922698.16248  20922696.65049
 -20354032.04449 -15860258.69547         0.00041  21475818.73847  21475816.96849
  -5744101.73448  -4475913.26545         0.00041  24217024.92445  24217019.31848
    743906.49948    579649.75543         0.00041  25388174.79643  25388168.67348
  -9111662.21348  -7099985.39847         0.00041  21989325.45947  21989323.97948
 -11571878.54848  -9017033.11646         0.00041  23312520.79346  23312518.72348
 -27416640.03449 -21363591.30048         0.00041  20340923.14548  20340922.58649
  -2046883.90748  -1594947.12145         0.00041  24858086.37245  24858083.61848
 94 02 15 00 15 30.0000000  0  8 02 07 15 18 19 26 27 31
 -24075788.16749 -18760324.54948         0.00041  20920648.04348  20920646.50449
 -20428428.01749 -15918229.49447         0.00041  21461661.89547  21461659.87549
  -5791387.92748  -4512759.53345         0.00041  24208024.66945  24208020.72348
    855495.81448    666602.50743         0.00041  25409407.55143  25409403.24248
  -9049270.57248  -7051368.56347         0.00041  22001198.63847  22001196.71448
 -11639996.96248  -9070112.33146         0.00041  23299557.85646  23299556.06948
 -27393159.95249 -21345295.11848         0.00041  20345391.48548  20345390.80149
  -1940913.46148  -1512372.75145         0.00041  24878251.02845  24878248.94248
 94 02 15 00 16 00.0000000  0  8 02 07 15 18 19 26 27 31
 -24086346.57449 -18768551.86548         0.00041  20918638.83248  20918637.27749
 -20502438.51949 -15975899.92547         0.00041  21447577.88047  21447575.96249
  -5838304.88148  -4549318.06445         0.00041  24199098.43145  24199092.60648
    967002.64248    753490.84543         0.00041  25430627.17743  25430622.47848
  -8986602.32348  -7002536.18447         0.00041  22013123.40847  22013122.07748
 -11707729.31748  -9122890.72546         0.00041  23286669.27546  23286666.98448
 -27369282.64649 -21326689.40848         0.00041  20349935.17548  20349934.54049
  -1834822.72048  -1429704.62645         0.00041  24898439.98945  24898437.47948
 94 02 15 00 16 30.0000000  0  8 02 07 15 18 19 26 27 31
 -24096681.37049 -18776604.93848         0.00041  20916672.13448  20916670.63149
 -20576032.08449 -16033245.47347         0.00041  21433573.09947  21433571.38149
  -5884835.12648  -4585575.25745         0.00041  24190242.72845  24190237.90748
   1078435.43748    840321.62443         0.00041  25451832.59043  25451827.21448
  -8923627.87048  -6953465.20347         0.00041  22025107.05447  22025105.74648
 -11775033.72948  -9175335.64846         0.00041  23273861.30546  23273859.42448
 -27344982.44849 -21307754.17348         0.00041  20354559.34048  20354558.72749
  -1728571.29648  -1346911.30945         0.00041  24918659.24845  24918656.58948
 94 02 15 00 17 00.0000000  0  8 02 07 15 18 19 26 27 31
 -24106801.51749 -18784490.74748         0.00041  20914746.29148  20914744.81749
 -20649211.60449 -16090268.38747         0.00041  21419647.62847  21419645.82749
  -5930995.43048  -4621544.16845         0.00041  24181457.62145  24181454.03848
   1189791.57348    927092.46643         0.00041  25473021.92543  25473017.68248
  -8860341.79248  -6904151.40947         0.00041  22037150.50147  22037148.80948
 -11841942.62148  -9227472.38746         0.00041  23261129.56946  23261127.02948
 -27320264.62449 -21288493.51848         0.00041  20359262.97648  20359262.35249
  -1622176.59848  -1264006.33245         0.00041  24938905.83145  24938902.66048
 94 02 15 00 17 30.0000000  0  8 02 07 15 18 19 26 27 31
 -24116700.85849 -18792204.50148         0.00041  20912862.55348  20912860.99949
 -20721976.48449 -16146968.20747         0.00041  21405800.95147  21405799.08949
  -5976791.54948  -4657229.30844         0.00041  24172740.35344  24172739.23348
   1301067.53848   1013800.97743         0.00041  25494198.07043  25494192.78448
  -8796745.77148  -6854596.08747         0.00041  22049252.36847  22049250.76348
 -11908473.91148  -9279314.88846         0.00041  23248468.50546  23248466.46848
 -27295135.89349 -21268912.67848         0.00041  20364044.66848  20364044.13849
  -1515636.46548  -1180987.97745         0.00041  24959178.81645  24959176.51848
 94 02 15 00 18 00.0000000  0  8 02 07 15 18 19 26 27 31
 -24126389.60549 -18799754.15048         0.00041  20911018.79148  20911017.30949
 -20794330.62249 -16203347.96847         0.00041  21392032.24447  21392030.40649
  -6022234.64948  -4692639.35145         0.00041  24164093.80445  24164091.57048
   1412246.93248   1100434.05143         0.00041  25515360.92243  25515349.57748
  -8732851.29548  -6804808.22247         0.00041  22061410.99247  22061409.39248
 -11974628.89948  -9330864.17446         0.00041  23235878.78046  23235877.26648
 -27269606.53349 -21249019.66248         0.00041  20368902.88348  20368902.23449
  -1408965.44448  -1097867.64845         0.00041  24979478.53045  24979475.27548
 94 02 15 00 18 30.0000000  0  8 02 07 15 18 19 26 27 31
 -24135852.90849 -18807128.12948         0.00041  20909217.98848  20909216.39349
 -20866281.68849 -16259413.65447         0.00041  21378340.49447  21378338.63549
  -6067312.68148  -4727764.93845         0.00041  24155518.83845  24155513.30448
   1523334.60548   1186995.92443         0.00041  25536492.49443  25536489.01948
  -8668667.32348  -6754794.76247         0.00041  22073625.21647  22073623.34048
 -12040384.28448  -9382102.07646         0.00041  23223366.22946  23223364.51548
 -27243670.08949 -21228809.43848         0.00041  20373838.30248  20373837.72749
  -1302167.36748  -1014648.32345         0.00041  24999801.45245  24999798.26348
 94 02 15 00 19 00.0000000  0  8 02 07 15 18 19 26 27 31
 -24145076.40649 -18814315.24448         0.00041  20907462.81148  20907461.27749
 -20937827.57349 -16315163.61147         0.00041  21364725.70647  21364723.85749
  -6112006.40648  -4762591.01245         0.00041  24147012.51645  24147008.24648
   1634348.02048   1273499.79943         0.00041  25557615.95943  25557614.28448
  -8604197.56748  -6704558.61346         0.00041  22085893.21546  22085891.51548
 -12105727.73848  -9433018.99046         0.00041  23210930.97846  23210930.20848
 -27217321.60549 -21208278.14348         0.00041  20378852.29848  20378851.70549
  -1195255.30248   -931340.17245         0.00041  25020144.61145  25020142.86848
 94 02 15 00 19 30.0000000  0  8 02 07 15 18 19 26 27 31
 -24154079.06649 -18821330.27948         0.00041  20905749.54248  20905748.06249
 -21008986.63849 -16370612.16048         0.00041  21351184.47348  21351182.54649
  -6156324.14548  -4797124.15445         0.00041  24138579.80345  24138574.68948
   1745251.20448   1359917.70943         0.00041  25578718.36843  25578718.78448
  -8539480.59248  -6654129.82546         0.00041  22098208.67546  22098206.65048
 -12170655.08348  -9483611.68046         0.00041  23198576.35346  23198574.59148
 -27190589.59649 -21187447.99848         0.00041  20383939.20148  20383938.61549
  -1088241.31248   -847952.65745         0.00041  25040507.80645  25040507.05348
 94 02 15 00 20 00.0000000  0  8 02 07 15 18 19 26 27 31
 -24162878.53949 -18828186.98148         0.00041  20904075.12948  20904073.54449
 -21079756.01149 -16425757.05048         0.00041  21337717.35048  21337715.54049
  -6200256.23248  -4831356.79245         0.00041  24130218.29245  24130214.32848
   1856047.82848   1446252.58343         0.00041  25599794.15343  25599802.73348
  -8474518.76048  -6603510.23046         0.00041  22110569.87546  22110568.50748
 -12235148.44948  -9533866.17946         0.00041  23186304.33146  23186301.86548
 -27163469.89349 -21166315.75248         0.00041  20389099.93848  20389099.30449
   -981111.84148   -764475.05444         0.00041  25060898.60444  25060892.92148
 94 02 15 00 20 30.0000000  0  8 02 07 15 18 19 26 27 31
 -24171475.31549 -18834885.73648         0.00041  20902439.21448  20902437.63749
 -21150120.11149 -16480586.14748         0.00041  21324327.54448  21324325.74449
  -6243779.39348  -4865270.82245         0.00041  24121935.55745  24121932.22148
   1966757.54048   1532519.82842         0.00041  25620878.16942  25620870.27848
  -8409296.01248  -6552687.32546         0.00041  22122981.43046  22122980.01648
 -12299172.51948  -9583755.00646         0.00041  23174121.03846  23174118.60548
 -27135934.46449 -21144859.56748         0.00041  20394339.70048  20394339.07849
   -873843.80048   -680889.58145         0.00041  25081306.73545  25081305.54848
 94 02 15 00 21 00.0000000  0  8 02 07 15 18 19 26 27 31
 -24179891.00149 -18841443.37948         0.00041  20900837.65848  20900836.12449
 -21220067.07649 -16535090.20648         0.00041  21311016.91348  21311015.26549
  -6286896.93448  -4898868.80345         0.00041  24113733.20345  24113726.98748
   2077373.89448   1618714.30843         0.00041  25641924.10943  25641919.76548
  -8343811.49448  -6501660.43946         0.00041  22135442.99646  22135441.33448
 -12362761.37748  -9633304.70346         0.00041  23162019.73646  23162017.91848
 -27107977.66549 -21123075.04048         0.00041  20399659.62648  20399659.09249
   -766438.10648   -597196.80745         0.00041  25101746.49145  25101744.02748
 94 02 15 00 21 30.0000000  0  8 02 07 15 18 19 26 27 31
 -24188131.06549 -18847864.17648         0.00041  20899269.60748  20899268.05449
 -21289585.73049 -16589260.51848         0.00041  21297787.91848  21297786.16749
  -6329611.43148  -4932152.69745         0.00041  24105600.47345  24105598.65548
   2187893.46448   1704833.31342         0.00041  25662955.51442  25662951.03048
  -8278043.51048  -6450412.66946         0.00041  22147958.20146  22147956.62048
 -12425929.22848  -9682526.33546         0.00041  23149999.79246  23149997.49248
 -27079597.81149 -21100960.86048         0.00041  20405060.26148  20405059.67049
   -658892.22948   -513394.78645         0.00041  25122213.72145  25122209.23048
 94 02 15 00 22 00.0000000  0  8 02 07 15 18 19 26 27 31
 -24196214.74949 -18854163.12048         0.00041  20897731.35848  20897729.87749
 -21358693.25749 -16643110.47248         0.00041  21284637.05748  21284635.38749
  -6371938.08448  -4965134.38945         0.00041  24097548.63945  24097544.16648
   2298313.48148   1790874.56842         0.00041  25683962.87042  25683963.51948
  -8211981.88448  -6398936.08346         0.00041  22160529.45646  22160527.66548
 -12488703.16248  -9731441.02246         0.00041  23138053.41046  23138051.91248
 -27050798.18449 -21078519.58248         0.00041  20410540.47948  20410540.01249
   -551237.32248   -429507.77345         0.00041  25142698.88345  25142695.33548
 94 02 15 00 22 30.0000000  0  8 02 07 15 18 19 26 27 31
 -24204128.72849 -18860329.82748         0.00041  20896225.15848  20896223.76149
 -21427387.59749 -16696638.46648         0.00041  21271565.05848  21271563.24649
  -6413881.33848  -4997817.32944         0.00041  24089563.45344  24089562.39348
   2408627.15948   1876833.25542         0.00041  25704961.92942  25704955.69848
  -8145628.51148  -6347232.15846         0.00041  22173155.88446  22173154.25548
 -12551099.90748  -9780061.80546         0.00041  23126180.32446  23126178.24348
 -27021591.06049 -21055760.77848         0.00041  20416098.49448  20416097.89649
   -443500.76748   -345557.14445         0.00041  25163200.20945  25163196.93148
 94 02 15 00 23 00.0000000  0  8 02 07 15 18 19 26 27 31
 -24211828.81549 -18866329.86548         0.00041  20894759.98448  20894758.41949
 -21495637.01949 -16749819.76748         0.00041  21258577.62148  21258575.72849
  -6455419.92248  -5030184.92145         0.00041  24081661.09545  24081657.96548
   2518855.72347   1962725.52443         0.00041  25725932.56043  25725931.42347
  -8078953.86048  -6295277.88846         0.00041  22185843.83046  22185842.07848
 -12613110.49448  -9828381.67146         0.00041  23114380.30646  23114377.92348
 -26991965.59549 -21032675.99248         0.00041  20421736.02948  20421735.41949
   -335670.71948   -261533.65745         0.00041  25183720.24945  25183716.32948
 94 02 15 00 23 30.0000000  0  8 02 07 15 18 19 26 27 31
 -24219303.10349 -18872153.95448         0.00041  20893337.62648  20893336.16449
 -21563451.42749 -16802662.09948         0.00041  21245672.82848  21245671.07649
  -6496552.06748  -5062235.81845         0.00041  24073835.99745  24073830.44048
   2628993.29947   2048546.97942         0.00041  25746898.92742  25746890.11447
  -8011957.90748  -6243073.25146         0.00041  22198592.73846  22198591.01448
 -12674703.90948  -9876376.47646         0.00041  23102658.85146  23102656.87448
 -26961930.76849 -21009272.22348         0.00041  20427451.53248  20427450.92549
   -227756.15548   -177444.29645         0.00041  25204254.55945  25204251.67648
 94 02 15 00 24 00.0000000  0  8 02 07 15 18 19 26 27 31
 -24226561.39249 -18877809.73048         0.00041  20891956.45248  20891954.91049
 -21630838.39149 -16855171.35748         0.00041  21232849.31648  21232847.61049
  -6537280.11248  -5093971.86345         0.00041  24066084.13345  24066080.24948
   2739024.07547   2134285.04343         0.00041  25767834.73543  25767828.22347
  -7944660.44248  -6190633.67246         0.00041  22211399.30946  22211397.18848
 -12735867.85348  -9924036.63146         0.00041  23091019.61546  23091017.77348
 -26931488.53649 -20985550.99848         0.00041  20433244.43348  20433243.78249
   -119770.35748    -93299.51345         0.00041  25224804.73945  25224800.63348
 94 02 15 00 24 30.0000000  0  8 02 07 15 18 19 26 27 31
 -24233618.20349 -18883308.50948         0.00041  20890613.60948  20890612.10249
 -21697789.83049 -16907341.24348         0.00041  21220108.87148  21220107.09249
  -6577612.68348  -5125399.65545         0.00041  24058408.36045  24058405.18548
   2848932.40147   2219927.63442         0.00041  25788744.44442  25788743.09747
  -7877087.27248  -6137979.26346         0.00041  22224258.39946  22224255.97448
 -12796604.70848  -9971363.99146         0.00041  23079462.16046  23079459.62848
 -26900663.24049 -20961531.28548         0.00041  20439110.34448  20439109.70349
    -11714.44548     -9100.04645         0.00041  25245363.85145  25245362.81348
 94 02 15 00 25 00.0000000  0  7 02 07 18 19 26 27 31
 -24240482.74849 -18888657.47248         0.00041  20889307.14148  20889305.65949
 -21764297.89149 -16959165.63848         0.00041  21207452.71348  21207451.04949
   2958720.84247   2305477.32743         0.00041  25809635.17343  25809635.25747
  -7809233.73748  -6085106.38246         0.00041  22237170.08446  22237168.08348
 -12856896.57248 -10018344.61246         0.00041  23067988.26746  23067986.40848
 -26869434.70749 -20937197.35848         0.00041  20445052.99948  20445052.26549
     96428.43948     75167.22745         0.00041  25265945.98645  25265941.70848
 94 02 15 00 25 30.0000000  0  7 02 07 13 19 26 27 31
 -24247190.70449 -18893884.41748         0.00041  20888030.62848  20888029.21549
 -21830374.47549 -17010653.81848         0.00041  21194878.77748  21194877.03549
        -0.19917        -0.53216  25372451.76217  25372461.68816         0.00011
  -7741126.37548  -6032035.71946         0.00041  22250130.20946  22250128.43348
 -12916756.52648 -10064988.67046         0.00041  23056597.04646  23056595.33448
 -26837812.61149 -20912556.76048         0.00041  20451070.47248  20451069.76249
    204645.96248    159492.58645         0.00041  25286538.93745  25286534.86648
 94 02 15 00 26 00.0000000  0  7 02 07 13 19 26 27 31
 -24253713.68549 -18898967.22548         0.00041  20886789.47648  20886787.89049
 -21895987.12949 -17061780.49148         0.00041  21182392.70648  21182391.24849
   -120295.29307    -93736.79406  25349560.34907  25349570.16806         0.00001
  -7672734.66648  -5978743.47446         0.00041  22263144.72746  22263143.01948
 -12976155.32348 -10111273.39146         0.00041  23045294.16346  23045292.33848
 -26805761.60449 -20887581.93948         0.00041  20457169.38848  20457168.85349
    312978.45748    243907.56044         0.00041  25307151.42044  25307149.65648
 94 02 15 00 26 30.0000000  0  8 02 07 13 15 19 26 27 31
 -24260045.53449 -18903901.09648         0.00041  20885584.42548  20885583.02649
 -21961161.91949 -17112565.97248         0.00041  21169990.34148  21169988.89849
   -240627.21007   -187501.65406  25326661.63107  25326671.53606         0.00001
        -0.24258        -0.06355         0.00051  24028496.07255  24028493.03958
  -7604083.46048  -5925249.03146         0.00041  22276208.75146  22276206.90648
 -13035094.02848 -10157199.60446         0.00041  23034078.27346  23034076.65748
 -26773283.05549 -20862273.96948         0.00041  20463349.90948  20463349.32149
    421429.53448    328414.92244         0.00041  25327788.51944  25327787.23548
 94 02 15 00 27 00.0000000  0  8 02 07 13 15 19 26 27 31
 -24266173.34149 -18908675.97248         0.00041  20884418.16648  20884416.77349
 -22025933.64949 -17163037.38048         0.00041  21157664.54748  21157663.14049
   -360992.12007   -281292.13406  25303756.75707  25303766.40206         0.00001
    -38225.76348    -29786.05845         0.00041  24021222.81845  24021218.86748
  -7535162.74848  -5871544.57746         0.00041  22289323.55446  22289322.02348
 -13093565.17848 -10202761.48646         0.00041  23022951.08246  23022949.79348
 -26740347.40249 -20836609.81048         0.00041  20469617.32648  20469616.68149
    529994.20848    413010.83544         0.00041  25348449.31744  25348446.40548
 94 02 15 00 27 30.0000000  0  8 02 07 13 15 19 26 27 31
 -24272052.19449 -18913256.85948         0.00041  20883299.65548  20883298.07749
 -22090290.18849 -17213185.26248         0.00041  21145418.04348  21145416.47149
   -481362.67707   -375086.93206  25280850.58107  25280860.26406         0.00001
    -75992.37448    -59214.50245         0.00041  24014033.86645  24014032.12848
  -7465934.08048  -5817600.16346         0.00041  22302497.43746  22302495.80248
 -13151541.85748 -10247938.06546         0.00041  23011919.01946  23011917.37148
 -26706921.03949 -20810563.27548         0.00041  20475978.13948  20475977.50849
    638700.63048    497717.20144         0.00041  25369137.66944  25369132.64748
 94 02 15 00 28 00.0000000  0  8 02 07 13 15 19 26 27 31
 -24277712.13349 -18917667.16648         0.00041  20882222.51648  20882221.09249
 -22154282.25949 -17263049.14448         0.00041  21133240.57848  21133239.13549
   -601777.30607   -468916.01506  25257936.02607  25257945.48306         0.00001
   -113339.06448    -88315.68245         0.00041  24006926.13545  24006925.20648
  -7396434.60248  -5763444.73446         0.00041  22315723.22746  22315721.23648
 -13209057.15648 -10292755.12946         0.00041  23000974.07646  23000972.41548
 -26673037.98449 -20784160.87448         0.00041  20482425.98248  20482425.18349
    747500.75148    582496.61144         0.00041  25389839.26544  25389836.61548
 94 02 15 00 28 30.0000000  0  8 02 07 13 15 19 26 27 31
 -24283171.51549 -18921921.19848         0.00041  20881183.56648  20881182.13849
 -22217910.27749 -17312629.34548         0.00041  21121132.55648  21121131.11949
   -722246.79007   -562787.80606  25235011.20107  25235020.65006         0.00001
   -150277.30148   -117098.60745         0.00041  23999896.76645  23999895.80948
  -7326674.64548  -5709086.32546         0.00041  22328997.70646  22328996.08248
 -13266149.93248 -10337242.95746         0.00041  22990109.52246  22990107.84548
 -26638713.11649 -20757414.19848         0.00041  20488957.57248  20488957.00549
    856362.96248    667324.36744         0.00041  25410551.50944  25410552.32048
 94 02 15 00 29 00.0000000  0  8 02 07 13 15 19 26 27 31
 -24288447.30949 -18926032.17948         0.00041  20880179.44248  20880178.14349
 -22281154.31749 -17361910.34548         0.00041  21109097.62848  21109096.08149
   -842773.85407   -656704.44106  25212075.08507  25212084.33306         0.00001
   -186810.33248   -145565.80345         0.00041  23992946.05945  23992943.93048
  -7256639.31348  -5654513.35046         0.00041  22342325.48346  22342323.38948
 -13322846.10748 -10381421.72946         0.00041  22979320.99746  22979318.83148
 -26603971.34849 -20730342.66248         0.00041  20495568.76048  20495568.15249
    965267.55548    752185.11944         0.00041  25431277.59344  25431276.07448
 94 02 15 00 29 30.0000000  0  8 02 07 13 15 19 26 27 31
 -24293521.36849 -18929985.96648         0.00041  20879214.08348  20879212.52749
 -22343944.41949 -17410837.62548         0.00041  21097149.12948  21097147.52349
   -963330.32607   -750643.99806  25189133.58307  25189142.64806         0.00001
   -222910.29448   -173695.52645         0.00041  23986077.65045  23986074.18648
  -7186316.86748  -5599716.65046         0.00041  22355707.05246  22355705.27848
 -13379129.90348 -10425279.18546         0.00041  22968610.09346  22968608.34648
 -26568820.15049 -20702952.08448         0.00041  20502257.81648  20502257.24849
   1074231.92348    837092.48544         0.00041  25452011.81144  25452011.05048
 94 02 15 00 30 00.0000000  0  8 02 07 13 15 19 26 27 31
 -24298388.63249 -18933778.62048         0.00041  20878287.75348  20878286.33349
 -22406244.94649 -17459383.42248         0.00041  21085293.44148  21085291.93349
  -1083903.25207   -844596.40407  25166188.95807  25166197.87907         0.00001
   -258564.80448   -201478.18345         0.00041  23979291.66445  23979289.33148
  -7115706.94848  -5544695.93546         0.00041  22369143.58246  22369141.86848
 -13434984.08648 -10468801.86446         0.00041  22957981.55346  22957979.72748
 -26533273.38149 -20675253.27248         0.00041  20509022.19248  20509021.49049
   1183252.31048    922043.52244         0.00041  25472761.35344  25472757.05948
 94 02 15 00 30 30.0000000  0  8 02 07 13 15 19 26 27 31
 -24303057.23249 -18937416.47248         0.00041  20877399.39448  20877398.00149
 -22468051.68549 -17507544.44748         0.00041  21073532.08648  21073530.57549
  -1204494.03007   -938562.76507  25143240.87207  25143249.74907         0.00001
   -293776.17348   -228915.50045         0.00041  23972591.58045  23972588.82048
  -7044808.65848  -5489450.52146         0.00041  22382635.10846  22382633.48348
 -13490410.31248 -10511991.07246         0.00041  22947434.53746  22947432.62448
 -26497346.32849 -20647258.13448         0.00041  20515858.77048  20515858.19649
   1292331.64348   1007040.50644         0.00041  25493518.08044  25493514.14348
 94 02 15 00 31 00.0000000  0  8 02 07 13 15 19 26 27 31
 -24307527.78849 -18940900.00548         0.00041  20876548.65448  20876547.20149
 -22529373.31849 -17555327.47248         0.00041  21061862.94948  21061861.42849
  -1325104.91107  -1032544.82307  25120289.01107  25120297.90907         0.00001
   -328547.06848   -256009.60745         0.00041  23965974.66545  23965971.91148
  -6973632.97348  -5433988.95646         0.00041  22396179.41146  22396177.62648
 -13545381.70948 -10554825.87246         0.00041  22936973.21446  22936971.78848
 -26461039.62749 -20618967.16348         0.00041  20522767.60048  20522767.07249
   1401469.60648   1092083.16244         0.00041  25514282.96544  25514282.36348
 94 02 15 00 31 30.0000000  0  8 02 07 13 15 19 26 27 31
 -24311781.14549 -18944214.29148         0.00041  20875739.27248  20875737.79249
 -22590208.49549 -17602731.43648         0.00041  21050286.13848  21050284.89749
  -1445718.99007  -1126529.41307  25097336.72407  25097345.31707         0.00001
   -362861.42148   -282747.97845         0.00041  23959445.70945  23959441.76448
  -6902170.96948  -5378304.28746         0.00041  22409778.34846  22409776.44948
 -13599856.58748 -10597273.77646         0.00041  22926607.07246  22926605.49448
 -26424318.76849 -20590353.47648         0.00041  20529755.37648  20529754.78749
   1510677.34648   1177180.16743         0.00041  25535062.39943  25535063.83948
 94 02 15 00 32 00.0000000  0  8 02 07 13 15 19 26 27 31
 -24315831.51349 -18947370.40348         0.00041  20874968.32448  20874967.01749
 -22650600.56949 -17649790.13148         0.00041  21038793.90348  21038792.50249
  -1566348.92907  -1220526.40107  25074381.24107  25074389.72207         0.00001
   -396732.36448   -309140.82645         0.00041  23952998.61045  23952996.46448
  -6830429.63548  -5322401.95646         0.00041  22423430.35446  22423428.35548
 -13653838.33048 -10639337.40846         0.00041  22916334.87746  22916333.19848
 -26387174.96349 -20561410.22148         0.00041  20536823.59948  20536822.94349
   1619940.90248   1262320.67643         0.00041  25555856.52143  25555856.06148
 94 02 15 00 32 30.0000000  0  8 02 07 13 15 19 26 27 31
 -24319683.10049 -18950371.61648         0.00041  20874235.52548  20874234.01149
 -22710560.40049 -17696512.01448         0.00041  21027383.99148  21027382.59749
  -1686992.15507  -1314533.75607  25051423.42307  25051431.78407         0.00001
   -430158.07048   -335186.75545         0.00041  23946637.55745  23946635.78248
  -6758409.60148  -5266282.45746         0.00041  22437135.08146  22437133.31948
 -13707330.25148 -10681019.37146         0.00041  22906155.53546  22906153.80048
 -26349588.45149 -20532122.00648         0.00041  20543975.89348  20543975.30449
   1729263.99948   1347507.57143         0.00041  25576658.02743  25576659.43048
 94 02 15 00 33 00.0000000  0  8 02 07 13 15 19 26 27 31
 -24323352.71549 -18953231.02748         0.00041  20873537.13648  20873535.73049
 -22770109.81449 -17742914.08848         0.00041  21016051.93948  21016050.65249
  -1807672.90307  -1408570.35007  25028458.25607  25028466.78407         0.00001
   -463163.89648   -360905.48045         0.00041  23940357.66645  23940354.84648
  -6686152.09148  -5209977.90846         0.00041  22450885.69946  22450883.46148
 -13760357.96248 -10722339.60546         0.00041  22896064.99346  22896062.97648
 -26311585.57649 -20502509.35448         0.00041  20551207.59248  20551207.09149
   1838615.79148   1432716.75943         0.00041  25597464.34743  25597468.22848
 94 02 15 00 33 30.0000000  0  7 02 07 13 15 19 26 27
 -24326835.39449 -18955944.77148         0.00041  20872874.31248  20872873.01549
 -22829228.03349 -17788980.17148         0.00041  21004802.06348  21004800.80049
  -1928377.16008  -1502625.27607  25005488.71708  25005497.15807         0.00001
   -495736.27448   -386286.46445         0.00041  23934158.96945  23934156.36648
  -6613639.06148  -5153474.25446         0.00041  22464684.01646  22464682.17048
 -13812925.79448 -10763301.48946         0.00041  22886061.43246  22886059.43848
 -26273161.86349 -20472568.78148         0.00041  20558519.52848  20558518.86749
 94 02 15 00 34 00.0000000  0  8 02 07 13 15 16 19 26 27
 -24330109.08849 -18958495.66748         0.00041  20872251.41748  20872249.93649
 -22887877.80449 -17834681.22948         0.00041  20993641.19948  20993639.95449
  -2049071.20208  -1596672.23207  24982521.16108  24982529.25207         0.00001
   -527842.47748   -411304.18145         0.00041  23928051.24545  23928046.87748
        -0.13357         0.53253         0.00051  25500088.89153  25500079.85557
  -6540843.06448  -5096750.10446         0.00041  22478537.22446  22478534.82048
 -13865026.63148 -10803899.48546         0.00041  22876146.50246  22876145.16748
 -26234307.15749 -20442292.37448         0.00041  20565913.17248  20565912.60849
 94 02 15 00 34 30.0000000  0  8 02 07 13 15 16 19 26 27
 -24333185.86449 -18960893.11448         0.00041  20871665.95948  20871664.52349
 -22946060.80349 -17880018.56748         0.00041  20982569.32848  20982568.09049
  -2169761.49308  -1690716.27107  24959554.24408  24959562.45307         0.00001
   -559489.84348   -435964.37045         0.00041  23922027.94145  23922024.41448
     65539.43047     51070.25143         0.00041  25512556.93743  25512551.88747
  -6467791.29348  -5039826.65846         0.00041  22492438.11746  22492436.12448
 -13916670.34648 -10844141.28346         0.00041  22866319.03246  22866317.57648
 -26195043.40449 -20411697.22848         0.00041  20573384.87048  20573384.25149
 94 02 15 00 35 00.0000000  0  8 02 07 13 15 16 19 26 27
 -24336085.81249 -18963152.77248         0.00041  20871113.87348  20871112.56149
 -23003785.52749 -17924998.80948         0.00041  20971584.60548  20971583.34949
  -2290455.85108  -1784763.46707  24936586.66008  24936594.85807         0.00001
   -590687.28648   -460273.92145         0.00041  23916091.51645  23916087.91048
    131104.68747    102159.86343         0.00041  25525035.07743  25525028.65347
  -6394485.60948  -4982705.35346         0.00041  22506387.73346  22506385.82848
 -13967867.05448 -10884034.76446         0.00041  22856576.42246  22856575.02148
 -26155381.84149 -20380792.10748         0.00041  20580932.05448  20580931.61349
 94 02 15 00 35 30.0000000  0  8 02 07 13 15 16 19 26 27
 -24338817.81949 -18965281.56448         0.00041  20870593.92048  20870592.62649
 -23061052.66849 -17969622.49548         0.00041  20960686.91748  20960685.71849
  -2411144.61308  -1878806.30407  24913620.06508  24913628.07107         0.00001
   -621425.56148   -484225.70345         0.00041  23910241.87345  23910238.26448
    196704.95947    153276.69043         0.00041  25537518.21843  25537512.08947
  -6320909.10148  -4925373.02446         0.00041  22520388.66446  22520386.83648
 -14018614.27148 -10923577.99546         0.00041  22846919.94246  22846918.13048
 -26115307.85549 -20349565.61948         0.00041  20588557.99048  20588557.49949
 94 02 15 00 36 00.0000000  0  8 02 07 13 15 16 19 26 27
 -24341377.64749 -18967276.19148         0.00041  20870106.86648  20870105.56449
 -23117872.35549 -18013897.51648         0.00041  20949874.32748  20949873.29449
  -2531823.03008  -1972841.08007  24890655.55108  24890663.34507         0.00001
   -651700.86348   -507816.72745         0.00041  23904479.42045  23904476.77248
    262334.07447    204416.18742         0.00041  25550012.71342  25550000.92047
  -6247072.01148  -4867837.63646         0.00041  22534439.42146  22534437.59148
 -14068891.08248 -10962754.67546         0.00041  22837351.98346  22837350.81148
 -26074813.66449 -20318011.70448         0.00041  20596263.83748  20596263.47049
 94 02 15 00 36 30.0000000  0  8 02 07 13 15 16 19 26 27
 -24343769.53749 -18969139.95648         0.00041  20869651.76948  20869650.35549
 -23174231.17949 -18057813.42348         0.00041  20939149.89648  20939148.56849
  -2652487.29408  -2066864.82607  24867693.67508  24867701.33807         0.00001
   -681510.53948   -531044.93345         0.00041  23898806.13245  23898804.32148
    327963.97947    255556.14843         0.00041  25562494.23843  25562489.69747
  -6172964.43548  -4810091.48146         0.00041  22548541.89446  22548539.75448
 -14118675.24448 -11001547.47746         0.00041  22827878.63846  22827877.03748
 -26033888.07149 -20286121.62848         0.00041  20604051.83748  20604051.32249
 94 02 15 00 37 00.0000000  0  8 02 07 13 15 16 19 26 27
 -24346000.37549 -18970878.23048         0.00041  20869226.99248  20869225.69649
 -23230114.79349 -18101359.03848         0.00041  20928515.41848  20928514.20749
  -2773133.30008  -2160874.34707  24844735.19008  24844742.81707         0.00001
   -710851.46648   -553907.87145         0.00041  23893224.63845  23893220.72648
    393583.53247    306688.16743         0.00041  25574982.99343  25574977.20547
  -6098564.00448  -4752117.14346         0.00041  22562699.17846  22562697.74648
 -14167962.13548 -11039952.79046         0.00041  22818499.45846  22818498.15748
 -25992531.54949 -20253895.76548         0.00041  20611921.63748  20611921.04749
 94 02 15 00 37 30.0000000  0  8 02 07 13 15 16 19 26 27
 -24348066.81749 -18972488.40848         0.00041  20868833.81248  20868832.50249
 -23285529.78149 -18144539.48848         0.00041  20917970.35348  20917969.01349
  -2893765.04408  -2254872.74207  24821779.47408  24821787.01007         0.00001
   -739728.42348   -576409.29445         0.00041  23887727.04045  23887725.85648
    459179.65547    357802.03243         0.00041  25587471.93643  25587459.67147
  -6023887.91748  -4693928.00446         0.00041  22576910.31546  22576908.20448
 -14216755.40848 -11077973.46846         0.00041  22809215.05146  22809213.03348
 -25950756.04249 -20221343.42048         0.00041  20619871.26348  20619870.65249
 94 02 15 00 38 00.0000000  0  7 02 07 13 15 19 26 27
 -24349951.42549 -18973956.89848         0.00041  20868475.05148  20868473.81149
 -23340454.28449 -18187337.74248         0.00041  20907518.52548  20907517.17649
  -3014361.62708  -2348843.71607  24798830.35608  24798837.86407         0.00001
   -768121.49548   -598533.67745         0.00041  23882326.82445  23882322.53348
  -5948930.29748  -4635519.49246         0.00041  22591174.39046  22591172.02448
 -14265035.69748 -11115594.42946         0.00041  22800027.42146  22800025.48248
 -25908559.39049 -20188462.91048         0.00041  20627901.00648  20627900.52649
 94 02 15 00 38 30.0000000  0  7 02 07 13 15 19 26 27
 -24351672.02249 -18975297.59048         0.00041  20868147.66848  20868146.35349
 -23394897.79449 -18229761.19848         0.00041  20897158.14848  20897156.89949
  -3134938.72808  -2442799.49707  24775885.03208  24775892.37207         0.00001
   -796047.33948   -620293.99145         0.00041  23877012.02645  23877008.20548
  -5873699.45848  -4576898.07946         0.00041  22605489.84346  22605487.95948
 -14312843.98948 -11152847.58446         0.00041  22790930.01446  22790927.89248
 -25865964.90449 -20155272.40348         0.00041  20636006.32048  20636005.88749
 94 02 15 00 39 00.0000000  0  7 02 07 13 15 19 26 27
 -24353246.60749 -18976524.51048         0.00041  20867848.02948  20867846.74949
 -23448917.53149 -18271854.43948         0.00041  20886878.42448  20886877.15449
  -3255526.79008  -2536763.78907  24752937.50008  24752944.88707         0.00001
   -823537.68848   -641714.96545         0.00041  23871780.83645  23871777.07048
  -5798241.88448  -4518099.99446         0.00041  22619848.66946  22619847.11248
 -14360231.17148 -11189772.60346         0.00041  22781912.16046  22781910.45948
 -25822998.31449 -20121791.94348         0.00041  20644182.68948  20644182.18449
 94 02 15 00 39 30.0000000  0  7 02 07 13 15 19 26 27
 -24354620.38349 -18977594.95648         0.00041  20867586.69348  20867585.32849
 -23502481.92449 -18313592.86748         0.00041  20876685.30048  20876684.03449
  -3376081.43808  -2630702.02307  24729996.40608  24730003.57107         0.00001
   -850549.00348   -662762.66745         0.00041  23866637.78845  23866637.18248
  -5722524.22148  -4459099.23746         0.00041  22634258.22146  22634255.79948
 -14407168.09048 -11226346.76746         0.00041  22772980.16146  22772978.47148
 -25779620.60849 -20087991.13148         0.00041  20652437.04348  20652436.65149
 94 02 15 00 40 00.0000000  0  7 02 07 13 15 19 26 27
 -24355759.74949 -18978482.74948         0.00041  20867369.84148  20867368.45849
 -23555556.01749 -18354949.24348         0.00041  20866585.43148  20866584.30349
  -3496569.71808  -2724588.53007  24707067.94008  24707075.07507         0.00001
   -877049.40248   -683412.23145         0.00041  23861596.75945  23861593.98148
  -5646510.98748  -4399868.16946         0.00041  22648722.58246  22648720.59448
 -14453617.99348 -11262541.44846         0.00041  22764141.15346  22764139.39848
 -25735805.35249 -20053849.37248         0.00041  20660774.92848  20660774.41149
 94 02 15 00 40 30.0000000  0  7 02 07 13 15 19 26 27
 -24356677.02149 -18979197.48748         0.00041  20867195.13148  20867193.89149
 -23608158.34349 -18395938.00848         0.00041  20856575.56548  20856574.37549
  -3617012.77308  -2818439.80007  24684148.05808  24684155.10007         0.00001
   -903061.13548   -703680.99845         0.00041  23856645.19045  23856644.11148
  -5570215.03248  -4340416.79646         0.00041  22663241.92646  22663239.20048
 -14499601.48348 -11298372.68646         0.00041  22755390.78546  22755388.96748
 -25691556.03749 -20019369.38248         0.00041  20669195.36048  20669194.77449
 94 02 15 00 41 00.0000000  0  7 02 07 13 15 19 26 27
 -24357382.66449 -18979747.32148         0.00041  20867060.98048  20867059.65449
 -23660295.20149 -18436564.07148         0.00041  20846654.30048  20846653.06549
  -3737417.30408  -2912261.05107  24661235.36508  24661242.27007         0.00001
   -928591.87148   -723574.98645         0.00041  23851787.15245  23851785.50348
  -5493657.65848  -4280761.72146         0.00041  22677809.60446  22677807.57848
 -14545106.94948 -11333831.44746         0.00041  22746730.85146  22746729.42848
 -25646875.26049 -19984553.19148         0.00041  20677697.74948  20677697.24849
 94 02 15 00 41 30.0000000  0  7 02 07 13 15 19 26 27
 -24357892.38849 -18980144.49048         0.00041  20866963.99048  20866962.60149
 -23711949.82549 -18476814.36848         0.00041  20836824.49948  20836823.41649
  -3857788.80908  -3006056.58907  24638329.24808  24638336.00007         0.00001
   -953648.29048   -743099.38345         0.00041  23847018.92945  23847017.46548
  -5416840.24848  -4220904.01646         0.00041  22692427.22746  22692425.53248
 -14590125.83348 -11368911.04946         0.00041  22738164.54346  22738162.66748
 -25601773.39449 -19949408.87848         0.00041  20686280.31148  20686279.90149
 94 02 15 00 42 00.0000000  0  7 02 07 13 15 19 26 27
 -24358210.19949 -18980392.11748         0.00041  20866903.29148  20866902.11649
 -23763118.18349 -18516685.75648         0.00041  20827087.67348  20827086.52149
  -3978127.11208  -3099826.29507  24615429.36708  24615436.08707         0.00001
   -978231.83148   -762255.27345         0.00041  23842340.91145  23842339.46648
  -5339771.96248  -4160850.82546         0.00041  22707093.43346  22707091.22948
 -14634638.43248 -11403596.15146         0.00041  22729693.56146  22729691.94848
 -25556241.82249 -19913929.72748         0.00041  20694944.75648  20694944.36449
 94 02 15 00 42 30.0000000  0  7 02 07 13 15 19 26 27
 -24358327.93549 -18980483.84248         0.00041  20866880.87348  20866879.62549
 -23813789.98849 -18556170.22148         0.00041  20817445.18148  20817443.94449
  -4098415.94208  -3193557.48607  24592538.80108  24592545.26007         0.00001
  -1002326.88948   -781030.54145         0.00041  23837757.00145  23837754.08648
  -5262448.45648  -4100598.75846         0.00041  22721808.13446  22721805.39448
 -14678634.00048 -11437878.37646         0.00041  22721321.61046  22721320.04848
 -25510262.09149 -19878101.35848         0.00041  20703694.49948  20703693.88249
 94 02 15 00 43 00.0000000  0  7 02 07 13 15 19 26 27
 -24358262.54449 -18980432.87148         0.00041  20866893.42548  20866892.17649
 -23863982.78549 -18595281.43448         0.00041  20807893.68848  20807892.44149
  -4218663.66208  -3287256.68407  24569656.22708  24569662.69607         0.00001
  -1025943.31148   -799432.87845         0.00041  23833263.61045  23833259.87748
  -5184880.96448  -4040156.57146         0.00041  22736568.44146  22736566.10148
 -14722120.38648 -11471763.83546         0.00041  22713046.10046  22713044.83248
 -25463854.88049 -19841939.88848         0.00041  20712525.34148  20712524.84049
 94 02 15 00 43 30.0000000  0  7 02 07 13 15 19 26 27
 -24358000.22949 -18980228.45248         0.00041  20866943.18648  20866941.99249
 -23913702.45349 -18634023.97948         0.00041  20798432.41448  20798431.17649
  -4338855.17108  -3380912.12107  24546784.29408  24546790.85607         0.00001
  -1049067.36848   -817451.54145         0.00041  23828861.52745  23828859.50348
  -5107047.52148  -3979507.15246         0.00041  22751379.23346  22751377.23848
 -14765089.59348 -11505246.27946         0.00041  22704870.11346  22704868.14648
 -25417016.01149 -19805442.05948         0.00041  20721438.60048  20721438.04349
 94 02 15 00 44 00.0000000  0  7 02 07 13 15 19 26 27
 -24357550.41249 -18979877.92448         0.00041  20867028.98748  20867027.60049
 -23962972.78849 -18672416.39348         0.00041  20789056.38748  20789055.34349
  -4458988.13208  -3474521.95607  24523923.55908  24523929.96807         0.00001
  -1071697.82548   -835085.61745         0.00041  23824557.37145  23824552.90548
  -5028953.09448  -3918654.36846         0.00041  22766239.90246  22766238.16548
 -14807545.78648 -11538328.99846         0.00041  22696790.26946  22696788.91148
 -25369753.85949 -19768614.39948         0.00041  20730432.24948  20730431.75149
 94 02 15 00 44 30.0000000  0  7 02 07 13 15 19 26 27
 -24356937.33849 -18979400.18248         0.00041  20867145.47348  20867144.23049
 -24011820.72749 -18710479.66848         0.00041  20779760.93248  20779759.85049
  -4579071.01208  -3568092.78207  24501072.39508  24501078.54507         0.00001
  -1093844.46448   -852342.65145         0.00041  23820341.64445  23820338.65848
  -4950600.63648  -3857600.52246         0.00041  22781150.29446  22781148.16248
 -14849520.43948 -11571036.48246         0.00041  22688802.81646  22688801.45948
 -25322080.43849 -19731466.27048         0.00041  20739504.00248  20739503.49949
 94 02 15 00 45 00.0000000  0  7 02 07 13 15 19 26 27
 -24356137.56949 -18978776.96148         0.00041  20867297.64648  20867296.42749
 -24060217.62349 -18748191.48348         0.00041  20770551.01748  20770550.06849
  -4699078.26908  -3661604.68507  24478235.59808  24478241.84307         0.00001
  -1115482.77948   -869203.59645         0.00041  23816222.22845  23816221.08448
  -4871955.32148  -3796318.47946         0.00041  22796115.44946  22796113.84848
 -14890989.89048 -11603350.29646         0.00041  22680911.57246  22680909.91348
 -25273975.35349 -19693981.77548         0.00041  20748658.32948  20748657.65649
 94 02 15 00 45 30.0000000  0  7 02 07 13 15 19 26 27
 -24355152.59149 -18978009.41748         0.00041  20867485.00048  20867483.78149
 -24108147.57349 -18785539.44448         0.00041  20761430.29848  20761429.37149
  -4819007.06308  -3755055.44607  24455413.78508  24455419.89907         0.00001
  -1136611.38848   -885667.37145         0.00041  23812203.21745  23812200.34548
  -4793026.40348  -3734815.45446         0.00041  22811135.37546  22811133.56148
 -14931949.37648 -11635266.73346         0.00041  22673116.85746  22673115.53748
 -25225444.48949 -19656165.50348         0.00041  20757893.33748  20757892.74949
 94 02 15 00 46 00.0000000  0  7 02 07 13 15 19 26 27
 -24354022.67749 -18977128.93348         0.00041  20867700.20148  20867698.80749
 -24155617.45549 -18822528.91148         0.00041  20752397.14148  20752396.01449
  -4938885.15908  -3848466.68307  24432601.42408  24432607.58707         0.00001
  -1157259.37248   -901756.66245         0.00041  23808274.95645  23808271.26348
  -4713845.62748  -3673116.17346         0.00041  22826203.29946  22826201.10848
 -14972432.96148 -11666812.33246         0.00041  22665412.91546  22665411.56848
 -25176514.73849 -19618038.40848         0.00041  20767204.34448  20767203.81749
 94 02 15 00 46 30.0000000  0  7 02 07 13 15 19 26 27
 -24352720.62249 -18976114.31348         0.00041  20867947.92748  20867946.62749
 -24202577.29149 -18859120.94048         0.00041  20743460.85748  20743459.91549
  -5058688.59108  -3941819.72807  24409803.46508  24409809.59007         0.00001
  -1177404.36748   -917453.96345         0.00041  23804439.73045  23804437.49948
  -4634398.75748  -3611209.54246         0.00041  22841321.40646  22841319.37748
 -15012418.22948 -11697969.63346         0.00041  22657804.04146  22657802.67148
 -25127161.15349 -19579581.04948         0.00041  20776596.03248  20776595.59149
 94 02 15 00 47 00.0000000  0  7 02 07 13 15 19 26 27
 -24351264.54649 -18974979.67548         0.00041  20868224.96848  20868223.71849
 -24249031.97249 -18895319.34148         0.00041  20734620.81648  20734619.85449
  -5178436.63408  -4035129.60107  24387015.87908  24387021.86807         0.00001
  -1197067.06048   -932775.46145         0.00041  23800699.09745  23800695.71148
  -4554717.56248  -3549120.32146         0.00041  22856484.27446  22856482.23848
 -15051910.86848 -11728743.06446         0.00041  22650288.84246  22650287.71848
 -25077406.59949 -19540811.24448         0.00041  20786063.83448  20786063.46649
 94 02 15 00 47 30.0000000  0  7 02 07 13 15 19 26 27
 -24349648.39049 -18973720.29948         0.00041  20868532.29448  20868531.09749
 -24294968.95149 -18931114.33948         0.00041  20725879.30848  20725878.26749
  -5298109.19808  -4128380.64207  24364242.79108  24364248.66707         0.00001
  -1216228.46548   -947706.36345         0.00041  23797051.63245  23797049.42948
  -4474795.98148  -3486843.78446         0.00041  22871693.12446  22871690.67948
 -15090897.28248 -11759122.03346         0.00041  22642869.89746  22642868.66248
 -25027229.23949 -19501711.98248         0.00041  20795612.38848  20795611.89749
 94 02 15 00 48 00.0000000  0  7 02 07 13 15 19 26 27
 -24347880.09849 -18972342.37748         0.00041  20868868.86748  20868867.59049
 -24340415.28749 -18966527.01948         0.00041  20717230.95248  20717230.01049
  -5417712.96608  -4221578.07707  24341482.61008  24341488.53807         0.00001
  -1234897.04848   -962253.20344         0.00041  23793505.43644  23793496.89848
  -4394642.71648  -3424386.72946         0.00041  22886945.58746  22886943.46748
 -15129396.86348 -11789121.65446         0.00041  22635543.72846  22635542.28548
 -24976625.87449 -19462280.76848         0.00041  20805242.03348  20805241.41049
 94 02 15 00 48 30.0000000  0  7 02 07 13 15 19 26 27
 -24345931.95949 -18970824.31548         0.00041  20869239.65448  20869238.33249
 -24385362.29649 -19001550.61748         0.00041  20708677.79848  20708676.85049
  -5537224.82408  -4314703.88707  24318740.09308  24318745.89107         0.00001
  -1253051.10648   -976399.19545         0.00041  23790043.35245  23790042.33948
  -4314241.83348  -3361736.71346         0.00041  22902244.61946  22902243.47048
 -15167389.63448 -11818726.36346         0.00041  22628314.18246  22628312.45548
 -24925575.90149 -19422501.54748         0.00041  20814956.35448  20814955.90449
 94 02 15 00 49 00.0000000  0  7 02 07 13 15 19 26 27
 -24343803.64149 -18969165.85348         0.00041  20869644.45448  20869643.31149
 -24429823.21249 -19036195.43948         0.00041  20700217.27548  20700216.29449
  -5656645.06408  -4407758.30807  24296014.99508  24296020.68007         0.00001
  -1270692.50948   -990145.66545         0.00041  23786689.20045  23786685.14448
  -4233582.98848  -3298885.68346         0.00041  22917594.58446  22917592.30848
 -15204883.53348 -11847942.33246         0.00041  22621179.20346  22621177.57348
 -24874086.84549 -19382380.18648         0.00041  20824754.29848  20824753.84549
 94 02 15 00 49 30.0000000  0  7 02 07 13 15 19 26 27
 -24341477.72349 -18967353.42048         0.00041  20870087.01448  20870085.83849
 -24473798.61849 -19070461.94348         0.00041  20691848.94048  20691847.97949
  -5775960.75508  -4500731.27107  24273309.66608  24273315.43907         0.00001
  -1287809.59648  -1003483.58045         0.00041  23783429.22045  23783427.63548
  -4152651.48548  -3235822.20046         0.00041  22932994.74346  22932992.94848
 -15241877.26348 -11876768.56546         0.00041  22614138.98946  22614137.92848
 -24822159.53349 -19341917.32848         0.00041  20834635.82648  20834635.28249
 94 02 15 00 50 00.0000000  0  7 02 07 13 15 19 26 27
 -24338949.99649 -18965383.73548         0.00041  20870567.98648  20870566.92949
 -24517289.71149 -19104351.06148         0.00041  20683572.72448  20683571.82449
  -5895169.85208  -4593621.16907  24250624.71008  24250630.32707         0.00001
  -1304401.85448  -1016412.56245         0.00041  23780270.55045  23780270.10348
  -4071444.24748  -3172543.87046         0.00041  22948448.49846  22948446.24848
 -15278365.96448 -11905201.26946         0.00041  22607195.41546  22607194.33648
 -24769802.32849 -19301119.49048         0.00041  20844599.10048  20844598.54249
 94 02 15 00 50 30.0000000  0  7 02 07 13 15 19 26 27
 -24336222.84249 -18963258.65748         0.00041  20871087.08348  20871085.84549
 -24560289.24449 -19137857.14348         0.00041  20675390.26648  20675389.31649
  -6014272.92708  -4686428.44807  24227959.77208  24227965.48707         0.00001
  -1320471.40748  -1028934.17645         0.00041  23777218.48045  23777212.27748
  -3989966.81048  -3109054.98646         0.00041  22963953.53546  22963950.88748
 -15314338.25548 -11933231.57746         0.00041  22600350.30746  22600349.08048
 -24717035.12349 -19260002.17648         0.00041  20854640.29448  20854639.76249
 94 02 15 00 51 00.0000000  0  7 02 07 13 15 19 26 27
 -24333304.87449 -18960984.89448         0.00041  20871642.24348  20871641.05549
 -24602798.18249 -19170980.94348         0.00041  20667301.00748  20667300.15949
  -6133274.21208  -4779156.40207  24205314.36108  24205319.97307         0.00001
  -1336024.17748  -1041053.13845         0.00041  23774256.36045  23774252.67548
  -3908228.51248  -3045362.83646         0.00041  22979507.80846  22979505.39948
 -15349793.17548 -11960858.74146         0.00041  22593602.97646  22593602.04148
 -24663868.19849 -19218573.38948         0.00041  20864757.51348  20864757.13749
 94 02 15 00 51 30.0000000  0  7 02 07 13 15 19 26 27
 -24330194.03249 -18958560.84048         0.00041  20872234.16448  20872233.05649
 -24644819.10049 -19203724.46948         0.00041  20659304.64148  20659303.79949
  -6252165.78408  -4871798.85407  24182689.74608  24182695.32107         0.00001
  -1351053.64948  -1052764.34545         0.00041  23771395.26445  23771392.72148
  -3826239.13248  -2981475.05146         0.00041  22995110.26946  22995107.37948
 -15384719.63048 -11988074.12146         0.00041  22586957.03046  22586955.71148
 -24610294.63749 -19176827.75048         0.00041  20874952.37548  20874951.82749
 94 02 15 00 52 00.0000000  0  7 02 07 13 15 19 26 27
 -24326906.33049 -18955998.97648         0.00041  20872859.81148  20872858.65549
 -24686342.50049 -19236080.31848         0.00041  20651402.83848  20651402.00849
  -6370949.90008  -4964357.55407  24160085.71108  24160091.18307         0.00001
  -1365563.91748  -1064070.97745         0.00041  23768634.75345  23768631.54948
  -3744009.10248  -2917399.74746         0.00041  23010757.60346  23010755.26148
 -15419111.50248 -12014872.93746         0.00041  22580412.72946  22580411.16848
 -24556306.51049 -19134759.07348         0.00041  20885225.87948  20885225.46449
 94 02 15 00 52 30.0000000  0  7 02 07 13 15 19 26 27
 -24323442.37149 -18953299.76948         0.00041  20873518.95948  20873517.79049
 -24727366.26749 -19268046.84048         0.00041  20643596.34548  20643595.42449
  -6489630.08708  -5056835.25607  24137501.39608  24137506.74307         0.00001
  -1379560.55848  -1074977.37645         0.00041  23765968.56345  23765967.83948
  -3661543.02548  -2853140.49746         0.00041  23026450.37246  23026448.02248
 -15452975.76548 -12041260.63946         0.00041  22573968.40946  22573966.97948
 -24501907.29949 -19092370.07148         0.00041  20895577.87748  20895577.35149
 94 02 15 00 53 00.0000000  0  7 02 07 13 15 19 26 27
 -24319839.54249 -18950492.35048         0.00041  20874204.40148  20874203.35349
 -24767931.27849 -19299655.89248         0.00041  20635876.97748  20635876.23549
  -6608240.02108  -5149258.19807  24114930.35208  24114935.56807         0.00001
  -1393078.58648  -1085510.79445         0.00041  23763397.87545  23763395.45348
  -3578861.53748  -2788713.39346         0.00041  23042184.63046  23042181.91048
 -15486357.41748 -12067272.28146         0.00041  22567615.96046  22567614.60448
 -24447123.22649 -19049681.18148         0.00041  20906002.76348  20906002.24049
 94 02 15 00 53 30.0000000  0  7 02 07 13 15 19 26 27
 -24316092.43349 -18947572.50648         0.00041  20874917.69048  20874916.50149
 -24808033.19349 -19330904.08848         0.00041  20628245.84348  20628245.06149
  -6726767.81908  -5241617.13807  24092374.97308  24092380.21207         0.00001
  -1406107.52648  -1095663.17745         0.00041  23760917.28545  23760916.08848
  -3495949.93348  -2724106.98146         0.00041  23057962.10046  23057959.43248
 -15519240.92348 -12092895.75446         0.00041  22561358.37346  22561357.20548
 -24391944.06449 -19006684.42848         0.00041  20916503.05848  20916502.44349
 94 02 15 00 54 00.0000000  0  7 02 07 13 15 19 26 27
 -24312141.77549 -18944494.05048         0.00041  20875669.41048  20875668.26649
 -24847606.94749 -19361740.72948         0.00041  20620715.07548  20620714.33349
  -6845149.56308  -5333862.26607  24069847.37208  24069852.45007         0.00001
  -1418585.40848  -1105386.12345         0.00041  23758544.62845  23758541.56648
  -3412739.69448  -2659267.87246         0.00041  23073796.02546  23073793.87348
 -15551560.09448 -12118079.49646         0.00041  22555207.94346  22555207.04448
 -24336309.22949 -18963332.60547         0.00041  20927090.10347  20927089.65549
 94 02 15 00 54 30.0000000  0  7 02 07 13 15 19 26 27
 -24308007.81049 -18941272.75748         0.00041  20876455.99548  20876454.90849
 -24886698.11749 -19392201.33348         0.00041  20613276.30148  20613275.56449
  -6963414.28508  -5426016.22407  24047342.11308  24047347.02807         0.00001
  -1430542.91248  -1114703.58745         0.00041  23756266.81045  23756265.75448
  -3329262.90048  -2594221.05046         0.00041  23089680.94346  23089679.06748
 -15583358.92748 -12142857.77646         0.00041  22549157.36446  22549155.81948
 -24280264.37549 -18919661.28747         0.00041  20937754.87847  20937754.54849
 94 02 15 00 55 00.0000000  0  7 02 07 13 15 19 26 27
 -24303693.10549 -18937910.62648         0.00041  20877276.91648  20877275.84249
 -24925305.43749 -19422284.91048         0.00041  20605929.60148  20605928.76749
  -7081554.66308  -5518073.31207  24024860.47508  24024865.41607         0.00001
  -1441974.49848  -1123611.27845         0.00041  23754091.33345  23754090.61348
  -3245528.53048  -2528973.53546         0.00041  23105615.04846  23105613.18148
 -15614628.19448 -12167223.40746         0.00041  22543206.42446  22543205.52348
 -24223799.91649 -18875663.00147         0.00041  20948499.73647  20948499.29749
 94 02 15 00 55 30.0000000  0  7 02 07 13 15 19 26 27
 -24299204.83949 -18934413.24848         0.00041  20878131.14348  20878129.97549
 -24963435.40449 -19451996.52648         0.00041  20598673.64748  20598672.86249
  -7199573.29708  -5610035.55107  24002401.91808  24002406.90907         0.00001
  -1452884.63548  -1132112.55445         0.00041  23752015.22245  23752014.30748
  -3161568.64548  -2463550.27746         0.00041  23121592.01646  23121590.22148
 -15645365.99048 -12191174.90846         0.00041  22537357.68146  22537356.05948
 -24166926.14249 -18831345.76747         0.00041  20959322.35947  20959321.99849
 94 02 15 00 56 00.0000000  0  7 02 07 13 15 19 26 27
 -24294527.09949 -18930768.23148         0.00041  20879021.34748  20879020.17149
 -25001078.54149 -19481328.79548         0.00041  20591510.34048  20591509.51649
  -7317465.43508  -5701899.24807  23979967.62508  23979972.39007         0.00001
  -1463270.30748  -1140205.24945         0.00041  23750039.83145  23750037.84548
  -3077391.31348  -2397957.57946         0.00041  23137610.87146  23137608.72048
 -15675585.65248 -12214722.67146         0.00041  22531606.76446  22531605.62348
 -24109642.84749 -18786709.42147         0.00041  20970223.08547  20970222.64649
 94 02 15 00 56 30.0000000  0  7 02 07 13 15 19 26 27
 -24289668.09749 -18926981.97148         0.00041  20879945.84548  20879944.70449
 -25038236.83649 -19510283.26648         0.00041  20584439.34848  20584438.44349
  -7435238.71008  -5793670.35007  23957555.97308  23957560.60107         0.00001
  -1473141.12848  -1147896.72845         0.00041  23748161.44645  23748159.49648
  -2993007.70048  -2332204.13946         0.00041  23153668.99446  23153666.16648
 -15705301.65848 -12237877.97546         0.00041  22525951.84446  22525950.72948
 -24051964.77949 -18741765.46747         0.00041  20981198.89447  20981198.44949
 94 02 15 00 57 00.0000000  0  7 02 07 13 15 19 26 27
 -24284618.40849 -18923047.12648         0.00041  20880906.82848  20880905.60049
 -25074882.65549 -19538838.40848         0.00041  20577465.78448  20577464.95149
  -7552867.93008  -5885329.22707  23935171.60308  23935176.28507         0.00001
  -1482473.86848  -1155168.94945         0.00041  23746384.90245  23746383.55448
  -2908398.88248  -2266275.22046         0.00041  23169767.54446  23169766.75948
 -15734481.01948 -12260615.11846         0.00041  22520399.44346  22520398.09148
 -23993860.70149 -18696489.55247         0.00041  20992255.74047  20992255.24749
 94 02 15 00 57 30.0000000  0  7 02 07 13 15 19 26 27
 -24279407.82249 -18918986.90848         0.00041  20881898.29148  20881897.19049
 -25111045.03949 -19567016.84848         0.00041  20570584.30848  20570583.45749
  -7670378.62408  -5976895.77307  23912809.93708  23912814.61607         0.00001
  -1491295.75448  -1162043.08045         0.00041  23744707.48645  23744704.87048
  -2823588.56548  -2200189.29646         0.00041  23185908.47046  23185905.73548
 -15763158.56348 -12282961.22346         0.00041  22514942.18346  22514940.90248
 -23935376.38249 -18650917.34547         0.00041  21003385.06047  21003384.48549
 94 02 15 00 58 00.0000000  0  7 02 07 13 15 19 26 27
 -24274022.61349 -18914790.62248         0.00041  20882923.02348  20882921.98749
 -25146686.14449 -19594789.09748         0.00041  20563801.95848  20563801.17649
  -7787739.74608  -6068345.79507  23890476.69708  23890481.17307         0.00001
  -1499577.63748  -1168496.43745         0.00041  23743130.73145  23743128.77248
  -2738541.77348  -2133919.08746         0.00041  23202091.60846  23202089.71448
 -15791314.48048 -12304900.87446         0.00041  22509584.25446  22509583.25948
 -23876492.80849 -18605034.03447         0.00041  21014590.02347  21014589.63349
 94 02 15 00 58 30.0000000  0  7 02 07 13 15 19 26 27
 -24268479.84349 -18910471.56148         0.00041  20883977.92548  20883976.66449
 -25181799.79649 -19622150.34748         0.00041  20557119.92448  20557119.21549
  -7904941.70008  -6159671.81307  23868173.80608  23868178.27107         0.00001
  -1507311.93648  -1174523.10745         0.00041  23741658.61145  23741656.77248
  -2653254.97048  -2067461.87246         0.00041  23218320.87746  23218319.15848
 -15818936.51948 -12326424.51146         0.00041  22504327.93846  22504326.90648
 -23817204.89049 -18558835.64947         0.00041  21025872.16347  21025871.73549
 94 02 15 00 59 00.0000000  0  7 02 07 13 15 19 26 27
 -24262781.90449 -18906031.59048         0.00041  20885062.04648  20885061.01849
 -25216399.16849 -19649110.86248         0.00041  20550535.92948  20550535.21449
  -8021979.97008  -6250870.30607  23845902.01908  23845906.45607         0.00001
  -1514496.02348  -1180121.09245         0.00041  23740293.60445  23740289.56448
  -2567725.59448  -2000815.64246         0.00041  23234597.28246  23234594.88348
 -15846019.87548 -12347528.39746         0.00041  22499173.92746  22499173.04148
 -23757505.53549 -18512316.66447         0.00041  21037232.45747  21037232.17249
 94 02 15 00 59 30.0000000  0  7 02 07 13 15 19 26 27
 -24256929.20949 -18901471.03248         0.00041  20886175.69748  20886174.71949
 -25250492.19649 -19675676.82348         0.00041  20544048.25948  20544047.42349
  -8138862.55508  -6341947.49407  23823659.88008  23823664.30207         0.00001
  -1521140.09248  -1185298.26145         0.00041  23739028.67045  23739025.42748
  -2481951.15348  -1933978.45246         0.00041  23250919.41246  23250917.22548
 -15872580.10648 -12368224.66046         0.00041  22494120.20346  22494118.71548
 -23697400.79249 -18465481.79147         0.00041  21048670.31747  21048669.77249
 94 02 15 01 00 00.0000000  0  7 02 07 13 15 19 26 27
 -24250909.22949 -18896780.12148         0.00041  20887321.34248  20887320.30149
 -25284077.59949 -19701847.23248         0.00041  20537657.02048  20537656.21049
  -8255580.28708  -6432896.23507  23801449.18408  23801453.53607         0.00001
  -1527236.98448  -1190049.00145         0.00041  23737866.27445  23737865.08648
  -2395918.25948  -1866939.86346         0.00041  23267291.06846  23267288.72048
 -15898608.60248 -12388506.58246         0.00041  22489166.60046  22489165.64548
 -23636857.95549 -18418305.55247         0.00041  21060191.05847  21060190.58149
 94 02 15 01 00 30.0000000  0  7 02 07 13 15 19 26 27
 -24244722.12749 -18891958.98748         0.00041  20888498.63348  20888497.54649
 -25317187.04949 -19727646.76948         0.00041  20531356.56448  20531355.68749
  -8372150.46508  -6523729.99407  23779266.39908  23779270.72207         0.00001
  -1532805.88748  -1194388.39445         0.00041  23736809.66045  23736805.54248
  -2309627.76048  -1799700.54846         0.00041  23283711.64146  23283709.13548
 -15924114.75448 -12408381.48546         0.00041  22484312.88346  22484311.98948
 -23575873.78249 -18370785.41747         0.00041  21071795.98747  21071795.52949
 94 02 15 01 01 00.0000000  0  7 02 07 13 15 19 26 27
 -24238372.89049 -18887011.51148         0.00041  20889706.79548  20889705.65249
 -25349838.15049 -19753089.15248         0.00041  20525143.23148  20525142.41049
  -8488581.81508  -6614455.57707  23757110.14508  23757114.40907         0.00001
  -1537857.60648  -1198324.75845         0.00041  23735845.58845  23735844.27048
  -2223087.21148  -1732266.37846         0.00041  23300179.47446  23300177.60148
 -15949101.59948 -12427851.74146         0.00041  22479558.35546  22479557.19848
 -23514456.47949 -18322927.77547         0.00041  21083483.29847  21083483.00049
 94 02 15 01 01 30.0000000  0  7 02 07 13 15 19 26 27
 -24231851.39849 -18881929.80748         0.00041  20890947.65748  20890946.70049
 -25382001.69149 -19778151.61948         0.00041  20519022.74148  20519021.96549
  -8604858.39508  -6705060.55007  23734983.34708  23734987.62607         0.00001
  -1542378.02848  -1201847.11045         0.00041  23734988.05345  23734983.98648
  -2136296.73448  -1664637.45446         0.00041  23316694.63946  23316693.35748
 -15973561.64048 -12446911.50146         0.00041  22474903.75246  22474902.59048
 -23452603.39149 -18274730.56847         0.00041  21095253.42647  21095253.12449
 94 02 15 01 02 00.0000000  0  7 02 07 13 15 19 26 27
 -24225178.57449 -18876730.18448         0.00041  20892217.66848  20892216.53149
 -25413694.88549 -19802847.57948         0.00041  20512991.68048  20512990.88949
  -8720992.14708  -6795554.22307  23712883.67208  23712887.87507         0.00001
  -1546381.38648  -1204966.55245         0.00041  23734223.29945  23734222.05048
  -2049286.47348  -1596837.28146         0.00041  23333252.77746  23333250.58248
 -15997505.88548 -12465569.34246         0.00041  22470347.45546  22470346.29348
 -23390344.40249 -18226217.07147         0.00041  21107101.13647  21107100.60749
 94 02 15 01 02 30.0000000  0  7 02 07 13 15 19 26 27
 -24218343.08349 -18871403.80948         0.00041  20893518.32148  20893517.20649
 -25444879.88949 -19827147.54948         0.00041  20507057.25248  20507056.49049
  -8836957.65108  -6885916.77807  23690816.04708  23690820.18707         0.00001
  -1549844.04448  -1207664.68645         0.00041  23733565.87245  23733563.16348
  -1962042.95248  -1528855.33846         0.00041  23349854.98846  23349852.69148
 -16020915.07248 -12483810.25846         0.00041  22465892.78546  22465891.52648
 -23327685.27249 -18177391.78147         0.00041  21119024.68147  21119024.32749
 94 02 15 01 03 00.0000000  0  7 02 07 13 15 19 26 27
 -24211345.26749 -18865950.94648         0.00041  20894849.98848  20894848.93849
 -25475538.91149 -19851037.66148         0.00041  20501222.97448  20501222.23649
  -8952743.82408  -6976139.58307  23668782.55208  23668786.60707         0.00001
  -1552757.60248  -1209934.96145         0.00041  23733011.10645  23733008.53248
  -1874581.74848  -1460703.79046         0.00041  23366497.85546  23366495.93948
 -16043786.31048 -12501631.99846         0.00041  22461540.61846  22461539.33948
 -23264643.12949 -18128268.04147         0.00041  21131021.31047  21131020.83749
 94 02 15 01 03 30.0000000  0  7 02 07 13 15 19 26 27
 -24204172.33949 -18860361.62948         0.00041  20896214.91348  20896213.94549
 -25505661.80149 -19874510.00848         0.00041  20495490.85448  20495490.12649
  -9068343.64208  -7066217.16107  23646784.43908  23646788.51307         0.00001
  -1555117.04748  -1211773.44445         0.00041  23732562.35445  23732559.42248
  -1786897.95648  -1392378.77246         0.00041  23383183.38646  23383181.49748
 -16066125.25148 -12519038.95346         0.00041  22457289.40146  22457288.35948
 -23201214.68849 -18078843.28747         0.00041  21143091.02947  21143090.81149
 94 02 15 01 04 00.0000000  0  7 02 07 13 15 19 26 27
 -24196838.48749 -18854646.91748         0.00041  20897610.36548  20897609.46549
 -25535266.90649 -19897578.88848         0.00041  20489857.05948  20489856.37649
  -9183764.73108  -7156155.46707  23624820.39408  23624824.43107         0.00001
  -1556932.03348  -1213187.63945         0.00041  23732217.92945  23732214.07848
  -1698992.74648  -1323881.23346         0.00041  23399912.11146  23399909.26848
 -16087936.02548 -12536034.35446         0.00041  22453139.23246  22453137.77448
 -23137395.47049 -18029114.03347         0.00041  21155235.81247  21155235.32049
 94 02 15 01 04 30.0000000  0  7 02 07 13 15 19 26 27
 -24189335.21549 -18848800.19348         0.00041  20899038.27248  20899037.20849
 -25564350.80549 -19920241.63148         0.00041  20484322.44648  20484321.83249
  -9298994.53208  -7245944.71207  23602892.67008  23602896.61007         0.00001
  -1558192.46948  -1214169.76945         0.00041  23731975.36145  23731974.18848
  -1610856.63348  -1255203.76146         0.00041  23416682.79146  23416681.13548
 -16109206.64848 -12552608.84946         0.00041  22449091.15146  22449090.15348
 -23073168.68049 -17979067.19547         0.00041  21167457.69647  21167457.22049
 94 02 15 01 05 00.0000000  0  7 02 07 13 15 19 26 27
 -24181667.33949 -18842825.20348         0.00041  20900497.49348  20900496.38949
 -25592948.28549 -19942525.34548         0.00041  20478880.56348  20478879.95649
  -9414045.43308  -7335594.55907  23580999.12008  23581003.06807         0.00001
  -1558913.02248  -1214731.20845         0.00041  23731839.60045  23731837.18048
  -1522507.95448  -1186360.64146         0.00041  23433496.64246  23433493.48548
 -16129940.99348 -12568765.46646         0.00041  22445146.00646  22445144.49248
 -23008536.44149 -17928704.42147         0.00041  21179756.96347  21179756.36749
 94 02 15 01 05 30.0000000  0  7 02 07 13 15 19 26 27
 -24173827.51849 -18836716.23248         0.00041  20901989.31948  20901988.31149
 -25621055.29249 -19964426.87248         0.00041  20473532.01248  20473531.27049
  -9528902.70608  -7425093.52907  23559142.30808  23559146.18207         0.00001
  -1559081.15148  -1214862.16345         0.00041  23731806.98945  23731805.24248
  -1433932.75248  -1117341.00346         0.00041  23450351.55346  23450348.84648
 -16150124.20348 -12584492.62146         0.00041  22441304.88146  22441303.79348
 -22943471.44549 -17878004.43447         0.00041  21192138.26747  21192137.85149
 94 02 15 01 06 00.0000000  0  7 02 07 13 15 19 26 27
 -24165822.49249 -18830478.52748         0.00041  20903512.50848  20903511.51849
 -25648684.90649 -19985956.40248         0.00041  20468274.17748  20468273.51649
  -9643569.95808  -7514444.44007  23537321.73908  23537325.54307         0.00001
  -1558702.38848  -1214566.98145         0.00041  23731880.33845  23731876.98748
  -1345145.52348  -1048156.17146         0.00041  23467246.63046  23467244.36148
 -16169755.32548 -12599789.57746         0.00041  22437569.06446  22437568.14048
 -22877985.12249 -17826976.14247         0.00041  21204599.79447  21204599.44849
 94 02 15 01 06 30.0000000  0  7 02 07 13 15 19 26 27
 -24157646.80749 -18824107.84148         0.00041  20905068.28448  20905067.30249
 -25675847.55749 -20007122.06848         0.00041  20463105.21948  20463104.62749
  -9758055.86508  -7603654.05207  23515535.65408  23515539.34507         0.00001
  -1557788.07348  -1213854.46445         0.00041  23732051.90645  23732050.94448
  -1256161.67848   -978818.10946         0.00041  23484179.63546  23484177.54748
 -16188853.00248 -12614670.86346         0.00041  22433935.23146  22433933.83548
 -22812104.70649 -17775640.76847         0.00041  21217136.55247  21217136.03149
 94 02 15 01 07 00.0000000  0  7 02 07 13 15 19 26 27
 -24149282.36049 -18817590.06948         0.00041  20906660.05848  20906659.09649
 -25702515.21849 -20027902.02848         0.00041  20458030.59848  20458029.86449
  -9872343.75308  -7692709.37907  23493787.26008  23493790.84307         0.00001
  -1556323.70748  -1212713.39745         0.00041  23732330.98445  23732329.70448
  -1166966.38248   -909315.28046         0.00041  23501153.17246  23501150.74648
 -16207413.12148 -12629133.26146         0.00041  22430402.69246  22430401.85748
 -22745809.88849 -17723982.48147         0.00041  21229751.93947  21229751.56749
 94 02 15 01 07 30.0000000  0  7 02 07 13 15 19 26 27
 -24140734.12749 -18810929.08648         0.00041  20908286.67948  20908285.60949
 -25728684.16649 -20048293.38048         0.00041  20453050.83748  20453050.14949
  -9986439.83008  -7781615.25707  23472075.37308  23472078.86307         0.00001
  -1554317.59848  -1211150.17445         0.00041  23732716.52045  23732711.27048
  -1077569.09848   -839655.08446         0.00041  23518164.14046  23518162.61748
 -16225451.84848 -12643189.38546         0.00041  22426970.30846  22426969.28148
 -22679108.63949 -17672007.50247         0.00041  21242444.83747  21242444.38949
 94 02 15 01 08 00.0000000  0  7 02 07 13 15 19 26 27
 -24131994.76749 -18804119.17948         0.00041  20909949.76748  20909948.72349
 -25754345.64249 -20068289.30148         0.00041  20448167.60948  20448166.87649
 -10100341.70608  -7870369.82107  23450400.43408  23450404.07907         0.00001
  -1551770.02848  -1209164.99345         0.00041  23733199.37145  23733196.15948
   -987971.89048   -769839.06146         0.00041  23535215.13346  23535212.43248
 -16242974.47148 -12656843.35246         0.00041  22423635.89946  22423634.83248
 -22612015.60149 -17619727.22747         0.00041  21255212.20447  21255211.77049
 94 02 15 01 08 30.0000000  0  7 02 07 13 15 19 26 27
 -24123059.35949 -18797156.50648         0.00041  20911650.11348  20911649.08149
 -25779482.25349 -20087876.24048         0.00041  20443384.24448  20443383.51049
 -10214036.94808  -7958963.38007  23428764.79108  23428768.37607         0.00001
  -1548671.23448  -1206750.29345         0.00041  23733787.64545  23733786.07448
   -898159.67648   -699855.51846         0.00041  23552305.02546  23552302.96448
 -16259978.21348 -12670092.99846         0.00041  22420400.24246  22420399.06048
 -22544523.53349 -17567136.02047         0.00041  21268055.40347  21268055.16049
 94 02 15 01 09 00.0000000  0  7 02 07 13 15 19 26 27
 -24113943.17049 -18790052.96648         0.00041  20913384.75748  20913383.79949
 -25804093.28149 -20107053.63248         0.00041  20438700.85348  20438700.24249
 -10327526.79908  -8047396.90107  23407168.31708  23407171.81907         0.00001
  -1545024.36848  -1203908.53345         0.00041  23734482.24645  23734479.85848
   -808134.18948   -629705.80346         0.00041  23569437.35446  23569434.28648
 -16276457.64548 -12682934.08846         0.00041  22417264.74346  22417263.07348
 -22476629.23949 -17514231.39147         0.00041  21280975.46647  21280974.98249
 94 02 15 01 09 30.0000000  0  7 02 07 13 15 19 26 27
 -24104649.07149 -18782810.79648         0.00041  20915153.38048  20915152.44749
 -25828185.66349 -20125826.88448         0.00041  20434116.35248  20434115.61249
 -10440800.64708  -8135662.11407  23385612.92608  23385616.29907         0.00001
  -1540821.14548  -1200633.24145         0.00041  23735279.18545  23735279.59548
   -717887.98148   -559384.09546         0.00041  23586609.27546  23586607.63548
 -16292401.98348 -12695358.22246         0.00041  22414230.29746  22414229.11648
 -22408351.50149 -17461027.97047         0.00041  21293968.12447  21293967.72649
 94 02 15 01 10 00.0000000  0  7 02 07 13 15 19 26 27
 -24095177.27749 -18775430.16348         0.00041  20916955.78248  20916954.85649
 -25851753.31849 -20144191.26448         0.00041  20429631.26948  20429630.62249
 -10553846.46608  -8223749.64807  23364100.91908  23364104.34007         0.00001
  -1536052.36648  -1196917.27245         0.00041  23736187.49745  23736186.95948
   -627401.31348   -488875.01846         0.00041  23603829.36246  23603826.64448
 -16307807.51848 -12707362.50946         0.00041  22411298.61046  22411297.59348
 -22339697.39449 -17407531.27147         0.00041  21307032.63147  21307032.13849
 94 02 15 01 10 30.0000000  0  7 02 07 13 15 19 26 27
 -24085529.86749 -18767912.68648         0.00041  20918791.54948  20918790.61749
 -25874805.09749 -20162153.66248         0.00041  20425244.66848  20425244.04649
 -10666660.71908  -8311656.73907  23342633.01608  23342636.36207         0.00001
  -1530716.98748  -1192759.76445         0.00041  23737203.26245  23737202.30948
   -536661.76448   -418168.88846         0.00041  23621097.13946  23621093.77348
 -16322664.29648 -12718939.19046         0.00041  22408471.37246  22408470.29448
 -22270659.93949 -17353735.85847         0.00041  21320170.16847  21320169.71449
 94 02 15 01 11 00.0000000  0  7 02 07 13 15 19 26 27
 -24075706.50749 -18760258.10848         0.00041  20920661.00048  20920659.99849
 -25897348.66149 -20179720.04948         0.00041  20420954.89448  20420954.25349
 -10779233.78008  -8399375.89108  23321211.00808  23321214.33108         0.00001
  -1524807.79448  -1188155.13445         0.00041  23738330.16745  23738326.51048
   -445667.15448   -347264.01946         0.00041  23638411.29946  23638409.49948
 -16336957.37048 -12730076.62446         0.00041  22405751.60646  22405750.45448
 -22201233.25949 -17299637.14947         0.00041  21333381.39447  21333381.11049
 94 02 15 01 11 30.0000000  0  7 02 07 13 15 19 26 27
 -24065733.80849 -18752487.16448         0.00041  20922558.83048  20922557.74149
 -25919412.06549 -20196912.28748         0.00041  20416756.23848  20416755.75349
 -10891588.43208  -8486924.84808  23299830.50708  23299833.86308         0.00001
  -1518350.13248  -1183123.15245         0.00041  23739557.96245  23739555.47048
   -354450.25548   -276185.94046         0.00041  23655770.17446  23655767.68648
 -16350711.67848 -12740794.23746         0.00041  22403134.18546  22403133.15548
 -22131443.38249 -17245255.43247         0.00041  21346662.12547  21346661.74049
 94 02 15 01 12 00.0000000  0  7 02 07 13 15 19 26 27
 -24055590.64949 -18744583.39548         0.00041  20924488.87548  20924487.90649
 -25940965.16349 -20213706.88348         0.00041  20412654.83048  20412654.31049
 -11003706.45308  -8574289.40908  23278495.00408  23278498.35008         0.00001
  -1511328.44848  -1177651.66245         0.00041  23740894.61745  23740891.56648
   -263002.17948   -204927.70946         0.00041  23673171.32146  23673169.60248
 -16363904.02948 -12751073.95246         0.00041  22400623.35646  22400622.43348
 -22061244.03649 -17190554.64647         0.00041  21360020.57947  21360020.18949
 94 02 15 01 12 30.0000000  0  8 02 04 07 13 15 19 26 27
 -24045280.96249 -18736549.86548         0.00041  20926450.70148  20926449.73549
        -0.34758         0.55953         0.00051  25231764.95753  25231763.22658
 -25962010.36749 -20230105.71948         0.00041  20408650.03448  20408649.39949
 -11115582.10108  -8661465.10408  23257205.67508  23257209.02008         0.00001
  -1503739.25348  -1171737.95445         0.00041  23742337.36145  23742335.81048
   -171337.81148   -133500.95046         0.00041  23690615.31046  23690612.67648
 -16376524.47848 -12760908.03046         0.00041  22398222.12746  22398220.86548
 -21990610.11549 -17135515.22747         0.00041  21373461.85647  21373461.37349
 94 02 15 01 13 00.0000000  0  8 02 04 07 13 15 19 26 27
 -24034858.50749 -18728428.46248         0.00041  20928433.98848  20928433.06049
    -95660.45948    -74539.54843         0.00041  25213565.00743  25213559.60248
 -25982599.93649 -20246149.51648         0.00041  20404731.79448  20404731.17649
 -11227265.96508  -8748491.35208  23235952.85808  23235956.07408         0.00001
  -1495635.79648  -1165423.53545         0.00041  23743879.75145  23743877.61148
    -79528.98848    -61961.62546         0.00041  23708086.32346  23708083.31848
 -16388637.24348 -12770346.50646         0.00041  22395917.04546  22395915.75948
 -21919597.12849 -17080180.42947         0.00041  21386975.22747  21386974.74449
 94 02 15 01 13 30.0000000  0  8 02 04 07 13 15 19 26 27
 -24024310.63549 -18720209.33248         0.00041  20930441.28148  20930440.25949
   -191502.71048   -149221.48043         0.00041  25195327.73743  25195320.95948
 -26002713.94649 -20261822.74848         0.00041  20400904.29048  20400903.68749
 -11338751.17008  -8835362.79808  23214737.82808  23214741.08108         0.00001
  -1487013.77648  -1158705.03145         0.00041  23745519.98545  23745518.45348
     12425.23048      9690.97645         0.00041  23725583.88345  23725581.75948
 -16400246.48048 -12779392.62446         0.00041  22393707.61746  22393706.62948
 -21848196.32349 -17024543.43547         0.00041  21400562.65847  21400561.77649
 94 02 15 01 14 00.0000000  0  8 02 04 07 13 15 19 26 27
 -24013613.08849 -18711873.57248         0.00041  20932476.88148  20932475.89449
   -287516.37948   -224037.04643         0.00041  25177053.72643  25177049.98848
 -26022340.36549 -20277116.03948         0.00041  20397169.55148  20397168.98749
 -11450010.22208  -8922058.01608  23193565.87508  23193569.02508         0.00001
  -1477848.80448  -1151563.45245         0.00041  23747265.41345  23747262.73848
    104557.03948     81481.95946         0.00041  23743116.62946  23743113.92748
 -16411339.44748 -12788036.44946         0.00041  22391597.00546  22391595.75448
 -21776388.04049 -16968588.92847         0.00041  21414226.99947  21414226.47549
 94 02 15 01 14 30.0000000  0  8 02 04 07 13 15 19 26 27
 -24002737.19849 -18703398.84448         0.00041  20934546.51548  20934545.55549
   -383692.65948   -298979.32543         0.00041  25158752.11943  25158747.87948
 -26041471.46149 -20292023.36448         0.00041  20393528.95548  20393528.48549
 -11561016.54208  -9008556.29308  23172441.91108  23172445.10708         0.00001
  -1468116.77548  -1143980.00445         0.00041  23749117.40745  23749114.65948
    196898.99448    153436.69446         0.00041  23760687.25546  23760685.95848
 -16421893.66248 -12796260.47246         0.00041  22389588.53946  22389587.29848
 -21704168.11649 -16912313.66047         0.00041  21427969.96547  21427969.43949
 94 02 15 01 15 00.0000000  0  7 02 04 07 13 19 26 27
 -23991697.91649 -18694796.80048         0.00041  20936647.14048  20936646.18849
   -480056.31448   -374067.55843         0.00041  25140416.52743  25140410.05148
 -26060122.70449 -20306556.77648         0.00041  20389979.84448  20389979.25049
 -11671790.78708  -9094873.72808  23151362.17308  23151365.22808         0.00001
    289431.46848    225539.92146         0.00041  23778297.90446  23778294.41348
 -16431935.71748 -12804085.40346         0.00041  22387677.30246  22387676.35048
 -21631576.97449 -16855749.13347         0.00041  21441783.59247  21441783.08949
 94 02 15 01 15 30.0000000  0  8 02 04 07 09 13 19 26 27
 -23980484.43249 -18686059.01348         0.00041  20938780.80448  20938779.96949
   -576576.06648   -449277.48744         0.00041  25122047.13644  25122042.89948
 -26078265.46349 -20320693.96748         0.00041  20386527.21448  20386526.60049
        -0.45858         0.20154         0.00051  25350799.97354  25350796.72358
 -11782310.92208  -9180993.15908  23130330.78208  23130333.81408         0.00001
    382177.76748    297809.70246         0.00041  23795945.85446  23795943.73348
 -16441429.66948 -12811483.25246         0.00041  22385870.37346  22385869.83248
 -21558591.40549 -16798877.26047         0.00041  21455672.41347  21455671.78149
 94 02 15 01 16 00.0000000  0  8 02 04 07 09 13 19 26 27
 -23969071.76049 -18677166.01248         0.00041  20940952.81648  20940951.83249
   -673229.84748   -524591.84644         0.00041  25103654.16944  25103650.46048
 -26095878.63249 -20334418.48948         0.00041  20383175.58748  20383175.01749
    -98925.47648    -77084.16944         0.00041  25331975.24044  25331971.89048
 -11892543.94508  -9266888.87208  23109353.96708  23109357.05208         0.00001
    475165.20148    370267.42946         0.00041  23813640.99546  23813638.45548
 -16450332.28348 -12818420.32146         0.00041  22384176.45746  22384175.41448
 -21485187.14249 -16741679.13547         0.00041  21469640.69447  21469640.27249
 94 02 15 01 16 30.0000000  0  8 02 04 07 09 13 19 26 27
 -23957479.53049 -18668133.09648         0.00041  20943158.80948  20943157.75849
   -770033.39948   -600022.91244         0.00041  25085236.08444  25085229.40548
 -26112967.44149 -20347734.41848         0.00041  20379923.71048  20379923.08249
   -197881.64248   -154192.84244         0.00041  25313145.49944  25313140.87548
 -12002512.19008  -9352578.26408  23088427.65308  23088430.62708         0.00001
    568358.27348    442885.37145         0.00041  23831374.53745  23831372.67848
 -16458657.20548 -12824907.24846         0.00041  22382592.79146  22382591.25048
 -21411393.06649 -16684177.26247         0.00041  21483683.29347  21483682.78149
 94 02 15 01 17 00.0000000  0  8 02 04 07 09 13 19 26 27
 -23945744.38249 -18658988.81348         0.00041  20945391.90148  20945390.88449
   -867005.56548   -675585.38344         0.00041  25066781.26644  25066775.73048
 -26129545.16849 -20360652.10048         0.00041  20376768.98148  20376768.47449
   -296891.79148   -231343.58544         0.00041  25294301.85744  25294299.99748
 -12112241.32308  -9438081.34008  23067546.79308  23067549.76308         0.00001
    661718.76148    515633.75345         0.00041  23849142.12645  23849138.53048
 -16466432.99748 -12830966.28346         0.00041  22381112.61046  22381111.70848
 -21337239.68449 -16626395.41547         0.00041  21497794.13947  21497793.71649
 94 02 15 01 17 30.0000000  0  8 02 04 07 09 13 19 26 27
 -23933848.75049 -18649719.47548         0.00041  20947655.60448  20947654.56949
   -964131.53748   -751267.70144         0.00041  25048296.89244  25048292.75448
 -26145597.78649 -20373160.60648         0.00041  20373714.25648  20373713.77249
   -395936.78448   -308521.52845         0.00041  25275454.96945  25275452.23248
 -12221711.71608  -9523382.81108  23046715.12208  23046718.14508         0.00001
    755269.51048    588530.40345         0.00041  23866942.68845  23866940.66848
 -16473637.13048 -12836579.86846         0.00041  22379741.78646  22379740.70248
 -21262712.16049 -16568322.02947         0.00041  21511976.46347  21511975.74349
 94 02 15 01 18 00.0000000  0  8 02 04 07 09 13 19 26 27
 -23921789.56649 -18640322.69048         0.00041  20949950.15048  20949949.29649
  -1061414.82448   -827072.69144         0.00041  25029782.47344  25029780.30848
 -26161137.02049 -20385269.07448         0.00041  20370757.35948  20370756.71649
   -495023.29548   -385731.78145         0.00041  25256599.71245  25256596.74348
 -12330922.91808  -9608482.31208  23025932.84408  23025935.79408         0.00001
    849017.02448    661580.38245         0.00041  23884784.20945  23884780.32248
 -16480294.21648 -12841767.19046         0.00041  22378474.81846  22378473.93848
 -21187819.89349 -16509964.42547         0.00041  21526227.84047  21526227.31849
 94 02 15 01 18 30.0000000  0  8 02 04 07 09 13 19 26 27
 -23909566.30649 -18630798.04948         0.00041  20952276.15648  20952275.26549
  -1158843.29548   -902990.83543         0.00041  25011247.54943  25011239.98148
 -26176157.65449 -20396973.43648         0.00041  20367898.92148  20367898.26249
   -594146.99048   -462970.94845         0.00041  25237739.13045  25237734.15248
 -12439875.22408  -9693380.07708  23005199.84708  23005202.68108         0.00001
    942965.24448    734786.74145         0.00041  23902661.36745  23902658.11848
 -16486424.44848 -12846543.97346         0.00041  22377308.06446  22377307.37348
 -21112569.49049 -16451327.76147         0.00041  21540547.80847  21540547.05449
 94 02 15 01 19 00.0000000  0  8 02 04 07 09 13 19 26 27
 -23897172.44949 -18621140.48048         0.00041  20954634.69148  20954633.74549
  -1256395.96348   -979005.74144         0.00041  24992678.07944  24992676.48648
 -26190662.27749 -20408275.71548         0.00041  20365138.68048  20365138.11949
   -693284.81848   -540221.13345         0.00041  25218870.76045  25218868.77648
 -12548552.64308  -9778063.64208  22984519.06308  22984521.93708         0.00001
   1037128.44848    808160.66545         0.00041  23920578.97445  23920576.68548
 -16492016.95948 -12850901.75646         0.00041  22376244.30446  22376243.11448
 -21036939.00449 -16392394.92747         0.00041  21554939.45347  21554939.01849
 94 02 15 01 19 30.0000000  0  8 02 04 07 09 13 19 26 27
 -23884595.17849 -18611339.98748         0.00041  20957028.17248  20957027.16349
  -1354062.65648  -1055109.60544         0.00041  24974095.34444  24974091.31748
 -26204660.30849 -20419183.24348         0.00041  20362474.91548  20362474.44149
   -792434.40848   -617480.44845         0.00041  25200004.27745  25200001.20248
 -12656950.74308  -9862529.55508  22963891.53608  22963894.40508         0.00001
   1131514.04248    881707.85845         0.00041  23938539.30945  23938537.58848
 -16497079.17548 -12854846.31746         0.00041  22375280.57546  22375279.77748
 -20960915.24549 -16333155.64647         0.00041  21569406.68547  21569405.94449
 94 02 15 01 20 00.0000000  0  8 02 04 07 09 13 19 26 27
 -23871860.63749 -18601416.94248         0.00041  20959451.36248  20959450.47549
  -1451862.46348  -1131317.19044         0.00041  24955486.29644  24955480.48548
 -26218190.72749 -20429726.39948         0.00041  20359900.13048  20359899.65149
   -891621.14948   -694768.66145         0.00041  25181129.66445  25181126.38948
 -12765095.49408  -9946798.05008  22943312.18308  22943314.94508         0.00001
   1226086.94748    955401.01445         0.00041  23956536.34145  23956534.22148
 -16501648.99048 -12858407.19246         0.00041  22374411.19646  22374410.28048
 -20884522.01749 -16273628.47247         0.00041  21583943.52047  21583943.12849
 94 02 15 01 20 30.0000000  0  8 02 04 07 09 13 19 26 27
 -23858956.08749 -18591361.42248         0.00041  20961907.00748  20961906.13949
  -1549792.49748  -1207626.20944         0.00041  24936847.04444  24936845.13448
 -26231253.01649 -20439904.77648         0.00041  20357414.38648  20357413.78349
   -990846.18848   -772086.69945         0.00041  25162248.34045  25162244.44848
 -12872977.82308 -10030862.06108  22922782.77108  22922785.49008         0.00001
   1320842.70048   1029236.64045         0.00041  23974566.30445  23974565.76448
 -16505702.36948 -12861565.63846         0.00041  22373639.34946  22373638.83548
 -20807751.95249 -16213807.65747         0.00041  21598552.53447  21598552.03649
 94 02 15 01 21 00.0000000  0  8 02 04 07 09 13 19 26 27
 -23845882.54249 -18581174.22148         0.00041  20964394.89348  20964393.90349
  -1647850.59948  -1284035.06245         0.00041  24918189.88245  24918185.18248
 -26243863.55849 -20449731.14548         0.00041  20355014.70748  20355014.15349
  -1090111.28848   -849435.96945         0.00041  25143356.97745  25143354.85748
 -12980595.29308 -10114719.68208  22902303.71208  22902306.40808         0.00001
   1415765.87148   1103202.70545         0.00041  23992631.39645  23992629.01148
 -16509232.59848 -12864316.43246         0.00041  22372967.90346  22372967.01448
 -20730592.99849 -16153683.81847         0.00041  21613235.43447  21613234.84849
 94 02 15 01 21 30.0000000  0  8 02 04 07 09 13 19 26 27
 -23832645.47049 -18570859.59648         0.00041  20966913.76648  20966912.75649
  -1746047.24148  -1360551.81344         0.00041  24899503.99144  24899498.91048
 -26256016.21549 -20459200.71948         0.00041  20352702.17748  20352701.67649
  -1189422.23248   -926820.94645         0.00041  25124459.84345  25124456.37348
 -13087947.30408 -10198370.45108  22881875.14208  22881877.86808         0.00001
   1510851.56848   1177295.42545         0.00041  24010727.02145  24010723.31548
 -16512248.60948 -12866666.54546         0.00041  22372394.05346  22372393.06448
 -20653058.23149 -16093267.13147         0.00041  21627989.63947  21627989.27949
 94 02 15 01 22 00.0000000  0  8 02 04 07 09 13 19 26 27
 -23819235.54549 -18560410.28048         0.00041  20969465.60348  20969464.51949
  -1844362.24848  -1437160.80044         0.00041  24880793.19144  24880789.91148
 -26267675.91249 -20468286.16748         0.00041  20350483.36848  20350482.84349
  -1288762.47248  -1004228.71945         0.00041  25105555.68645  25105552.50648
 -13195008.25108 -10281794.41408  22861502.07408  22861504.74008         0.00001
   1606113.25648   1251525.35545         0.00041  24028854.04045  24028851.13848
 -16514716.27648 -12868589.36746         0.00041  22371924.28146  22371923.49248
 -20575136.19849 -16032548.68047         0.00041  21642817.89247  21642817.32749
 94 02 15 01 22 30.0000000  0  8 02 04 07 09 13 19 26 27
 -23805665.26049 -18549836.00848         0.00041  20972047.60548  20972046.77049
  -1942801.07048  -1513866.23045         0.00041  24862062.82445  24862057.59148
 -26278829.80649 -20476977.48248         0.00041  20348360.78248  20348360.30249
  -1388129.01448  -1081657.04245         0.00041  25086646.65945  25086643.68248
 -13301780.59708 -10364993.49908  22841183.83008  22841186.48608         0.00001
   1701539.09848   1325883.11345         0.00041  24047012.78145  24047010.17248
 -16516637.27248 -12870086.20947         0.00041  22371558.61047  22371557.97148
 -20496841.43849 -15971539.79047         0.00041  21657716.68347  21657716.37849
 94 02 15 01 23 00.0000000  0  8 02 04 07 09 13 19 26 27
 -23791955.02749 -18539152.68848         0.00041  20974656.70248  20974655.80949
  -2041363.13948  -1590667.62044         0.00041  24843307.32344  24843301.52348
 -26289468.49149 -20485267.33648         0.00041  20346336.29248  20346335.79249
  -1487506.90848  -1159094.18145         0.00041  25067734.04045  25067732.63248
 -13408267.30408 -10447970.00608  22820919.95308  22820922.55208         0.00001
   1797130.13948   1400369.61545         0.00041  24065203.29145  24065200.44348
 -16518022.41448 -12871165.50946         0.00041  22371295.39846  22371294.41048
 -20418188.19349 -15910251.56647         0.00041  21672684.00547  21672683.57149
 94 02 15 01 23 30.0000000  0  8 02 04 07 09 13 19 26 27
 -23778096.42949 -18528353.75748         0.00041  20977293.95048  20977293.04149
  -2140039.28448  -1667557.89545         0.00041  24824527.41345  24824524.04048
 -26299579.96049 -20493146.37248         0.00041  20344412.20648  20344411.67049
  -1586895.77148  -1236539.88045         0.00041  25048822.29845  25048819.37748
 -13514460.21608 -10530717.58408  22800711.98808  22800714.60008         0.00001
   1892901.57948   1474996.67245         0.00041  24083427.30745  24083424.95148
 -16518865.64048 -12871822.53646         0.00041  22371135.01246  22371133.87548
 -20339194.89849 -15848698.36647         0.00041  21687716.17347  21687715.45949
 94 02 15 01 24 00.0000000  0  8 02 04 07 09 13 19 26 27
 -23764076.57249 -18517429.16848         0.00041  20979961.71848  20979960.75349
  -2238818.41648  -1744528.40545         0.00041  24805732.86345  24805726.89548
 -26309170.93849 -20500619.83248         0.00041  20342587.03648  20342586.56849
  -1686289.90648  -1313989.71145         0.00041  25029908.21345  25029905.20248
 -13620355.33308 -10613233.11708  22780560.70308  22780563.27908         0.00001
   1988851.25248   1549762.62045         0.00041  24101687.28945  24101683.57548
 -16519166.55848 -12872056.98746         0.00041  22371077.87846  22371076.66348
 -20259866.83149 -15786884.29947         0.00041  21702811.76447  21702811.19349
 94 02 15 01 24 30.0000000  0  8 02 04 07 09 13 19 26 27
 -23749882.32449 -18506368.69348         0.00041  20982662.72648  20982661.95249
  -2337700.06948  -1821578.75045         0.00041  24786914.85945  24786910.07948
 -26318258.95249 -20507701.37348         0.00041  20340857.59848  20340857.10149
  -1785682.83148  -1391438.59145         0.00041  25010993.30245  25010991.27248
 -13725949.83808 -10695514.41308  22760466.60408  22760469.17908         0.00001
   2084973.96848   1624663.41745         0.00041  24119975.08645  24119975.30048
 -16518931.35448 -12871873.68746         0.00041  22371122.22746  22371121.29948
 -20180205.82549 -15724810.80247         0.00041  21717970.66447  21717970.18349
 94 02 15 01 25 00.0000000  0  8 02 04 07 09 13 19 26 27
 -23735507.55349 -18495167.55048         0.00041  20985398.27348  20985397.44349
  -2436680.83048  -1898706.33245         0.00041  24768079.32345  24768074.35348
 -26326870.40549 -20514411.57048         0.00041  20339218.77348  20339218.30049
  -1885094.26548  -1468901.91745         0.00041  24992075.88045  24992073.78948
 -13831246.05208 -10777563.28008  22740429.27408  22740431.84008         0.00001
   2181265.71748   1699695.93845         0.00041  24138301.47145  24138298.81948
 -16518175.25048 -12871284.49146         0.00041  22371266.29946  22371265.10048
 -20100208.21149 -15662475.01047         0.00041  21733193.50847  21733193.31649
 94 02 15 01 25 30.0000000  0  8 02 04 07 09 13 19 26 27
 -23720925.63049 -18483804.99148         0.00041  20988173.13448  20988172.18749
  -2535744.01548  -1975898.11845         0.00041  24749228.55945  24749223.32248
 -26334994.94949 -20520742.36248         0.00041  20337672.77848  20337672.34649
  -1984527.20448  -1546382.03945         0.00041  24973155.19045  24973152.19448
 -13936227.24008 -10859366.67608  22720451.95308  22720454.35608         0.00001
   2277728.34948   1774861.59845         0.00041  24156656.26745  24156655.23648
 -16516890.61348 -12870283.46546         0.00041  22371510.52146  22371509.65448
 -20019847.70049 -15599856.44447         0.00041  21748485.73247  21748485.36549
 94 02 15 01 26 00.0000000  0  8 02 04 07 09 13 19 26 27
 -23706144.29549 -18472287.04648         0.00041  20990985.93548  20990984.95449
  -2634901.13748  -2053163.07445         0.00041  24730356.53645  24730353.86948
 -26342626.50849 -20526689.00948         0.00041  20336220.56848  20336220.08249
  -2083978.35848  -1623876.35345         0.00041  24954230.71545  24954227.04948
 -14040889.29308 -10940921.39908  22700535.32008  22700537.80008         0.00001
   2374367.27248   1850164.62945         0.00041  24175047.13745  24175045.19648
 -16515080.41148 -12868872.90346         0.00041  22371855.28946  22371854.14148
 -19939102.89149 -15536938.42147         0.00041  21763851.04547  21763850.54949
 94 02 15 01 26 30.0000000  0  8 02 04 07 09 13 19 26 27
 -23691201.07849 -18460642.96248         0.00041  20993829.36748  20993828.58249
  -2734185.51248  -2130527.20045         0.00041  24711463.86745  24711460.43048
 -26349787.34449 -20532268.86048         0.00041  20334857.87548  20334857.42049
  -2183480.43548  -1701410.33545         0.00041  24935296.58145  24935292.32948
 -14145254.57708 -11022244.88108  22680675.21608  22680677.64008         0.00001
   2471172.32948   1925597.14445         0.00041  24193469.53245  24193466.55148
 -16512770.90748 -12867073.27646         0.00041  22372294.83746  22372293.51048
 -19857982.78049 -15473727.95647         0.00041  21779287.64347  21779287.12349
 94 02 15 01 27 00.0000000  0  8 02 04 07 09 13 19 26 27
 -23676097.31249 -18448873.77448         0.00041  20996703.43748  20996702.63349
  -2833578.83348  -2207976.20645         0.00041  24692552.43945  24692546.05148
 -26356444.84749 -20537456.50548         0.00041  20333590.83648  20333590.51049
  -2283017.34248  -1778971.45345         0.00041  24916353.92645  24916350.97848
 -14249305.85508 -11103323.68808  22660874.80408  22660877.23208         0.00001
   2568176.10548   2001184.48845         0.00041  24211928.01845  24211925.61548
 -16509943.41548 -12864870.02846         0.00041  22372832.52746  22372831.66748
 -19776464.02549 -15410206.85647         0.00041  21794800.19947  21794799.70449
 94 02 15 01 27 30.0000000  0  8 02 04 07 09 13 19 26 27
 -23660842.13749 -18436986.60548         0.00041  20999606.40048  20999605.69549
  -2933081.36548  -2285510.27245         0.00041  24673613.94245  24673611.21948
 -26362590.03549 -20542244.94648         0.00041  20332421.52548  20332421.08949
  -2382575.40748  -1856549.06645         0.00041  24897407.60145  24897405.73348
 -14353032.17608 -11184149.28108  22641136.21508  22641138.68208         0.00001
   2665393.92448   2076938.58445         0.00041  24230427.00745  24230425.51448
 -16506577.96548 -12862247.59446         0.00041  22373472.95946  22373472.06848
 -19694544.56149 -15346373.51347         0.00041  21810388.67147  21810388.48349
 94 02 15 01 28 00.0000000  0  8 02 04 07 09 13 19 26 27
 -23645443.87649 -18424987.93948         0.00041  21002536.48948  21002535.82149
  -3032695.67048  -2363131.50744         0.00041  24654659.14644  24654655.10648
 -26368238.67349 -20546646.46448         0.00041  20331346.71748  20331346.27049
  -2482144.66648  -1934135.37045         0.00041  24878460.26845  24878458.21148
 -14456434.23808 -11264722.20808  22621459.42008  22621461.80408         0.00001
   2762828.90148   2152861.93545         0.00041  24248968.82545  24248966.82048
 -16502672.23948 -12859204.16946         0.00041  22374216.11046  22374215.31748
 -19612236.22248 -15282237.15447         0.00041  21826051.40147  21826051.24848
 94 02 15 01 28 30.0000000  0  8 02 04 07 09 13 19 26 27
 -23629896.60749 -18412873.16548         0.00041  21005494.99148  21005494.28449
  -3132401.98848  -2440824.40145         0.00041  24635684.00345  24635681.14548
 -26373399.11549 -20550667.57248         0.00041  20330364.69548  20330364.28149
  -2581723.85648  -2011729.42045         0.00041  24859510.35945  24859508.89448
 -14559516.14708 -11345045.66808  22601843.47908  22601845.82508         0.00001
   2860448.62048   2228929.23345         0.00041  24267545.75845  24267543.14448
 -16498219.59148 -12855734.57446         0.00041  22375063.42946  22375062.58148
 -19529558.35348 -15217812.84947         0.00041  21841784.91947  21841784.29348
 94 02 15 01 29 00.0000000  0  8 02 04 07 09 13 19 26 27
 -23614180.52349 -18400626.84848         0.00041  21008485.71348  21008485.04649
  -3232172.25248  -2518567.17145         0.00041  24616699.69445  24616695.59948
 -26378063.59149 -20554302.21448         0.00041  20329477.03348  20329476.63449
  -2681286.32048  -2089310.47145         0.00041  24840564.74245  24840562.66748
 -14662261.93708 -11425107.22008  22582291.54408  22582293.81708         0.00001
   2958245.87948   2305134.88445         0.00041  24286154.50945  24286153.02148
 -16493195.77248 -12851819.90146         0.00041  22376019.80846  22376018.70848
 -19446511.87348 -15153101.31046         0.00041  21857587.84846  21857587.54348
 94 02 15 01 29 30.0000000  0  8 02 04 07 09 13 19 26 27
 -23598306.15149 -18388257.19148         0.00041  21011506.56048  21011505.80949
  -3332023.28448  -2596372.86145         0.00041  24597696.22445  24597694.25848
 -26382266.79849 -20557577.42348         0.00041  20328677.07548  20328676.75649
  -2780844.74348  -2166888.38645         0.00041  24821622.37245  24821617.36248
 -14764688.79408 -11504920.25108  22562800.27808  22562802.62808         0.00001
   3056178.38548   2381445.88745         0.00041  24304792.53945  24304789.18548
 -16487625.35648 -12847479.31246         0.00041  22377079.48246  22377078.79248
 -19363124.39548 -15088124.06946         0.00041  21873456.10946  21873455.59148
 94 02 15 01 30 00.0000000  0  8 02 04 07 09 13 19 26 27
 -23582259.06249 -18375752.95448         0.00041  21014560.20948  21014559.46949
  -3431956.11148  -2674242.32045         0.00041  24578680.44045  24578677.69948
 -26385997.99349 -20560484.83248         0.00041  20327967.19448  20327966.77349
  -2880395.39948  -2244460.31245         0.00041  24802675.44245  24802673.58948
 -14866797.46508 -11584485.34408  22543369.57208  22543371.80708         0.00001
   3154229.94848   2457849.68545         0.00041  24323450.33745  24323447.86648
 -16481508.33248 -12842712.79546         0.00041  22378243.72346  22378242.65048
 -19279404.65748 -15022887.91946         0.00041  21889387.30246  21889386.99848
 94 02 15 01 30 30.0000000  0  8 02 04 07 09 13 19 26 27
 -23566021.47849 -18363100.27748         0.00041  21017650.15748  21017649.32749
  -3531948.65148  -2752158.34245         0.00041  24559653.61345  24559649.28848
 -26389233.33949 -20563005.86248         0.00041  20327351.46148  20327351.10949
  -2979914.83748  -2322007.89545         0.00041  24783738.40745  24783735.76648
 -14968566.93608 -11663786.12608  22524003.37008  22524005.60208         0.00001
   3252425.80648   2534365.93145         0.00041  24342136.34945  24342133.97248
 -16474834.45748 -12837512.36946         0.00041  22379513.62546  22379512.70348
 -19195340.56548 -14957383.44146         0.00041  21905384.60546  21905383.92848
 94 02 15 01 31 00.0000000  0  8 02 04 07 09 13 19 26 27
 -23549620.55449 -18350320.32648         0.00041  21020771.09148  21020770.39149
  -3632038.69148  -2830150.35645         0.00041  24540606.92945  24540602.42148
 -26392001.54349 -20565162.88648         0.00041  20326824.75848  20326824.20249
  -3079428.22748  -2399550.79845         0.00041  24764800.36145  24764798.92948
 -15070015.84508 -11742837.11808  22504698.24508  22504700.41308         0.00001
   3350772.99148   2611000.06645         0.00041  24360850.62045  24360848.66548
 -16467638.93048 -12831905.45546         0.00041  22380882.41046  22380881.84848
 -19110953.84348 -14891627.56646         0.00041  21921443.16346  21921442.13748
 94 02 15 01 31 30.0000000  0  8 02 04 07 09 13 19 26 27
 -23533041.55049 -18337401.61448         0.00041  21023926.07348  21023925.23049
  -3732209.25648  -2908205.12945         0.00041  24521544.11145  24521540.35148
 -26394277.17049 -20566936.08048         0.00041  20326391.49548  20326391.11049
  -3178925.49448  -2477081.09045         0.00041  24745867.83445  24745864.97748
 -15171123.33308 -11821622.07108  22485458.03608  22485460.15808         0.00001
   3449290.65848   2687767.07145         0.00041  24379598.63945  24379596.11148
 -16459916.13048 -12825887.67946         0.00041  22382352.65546  22382351.46248
 -19026227.86748 -14825607.33046         0.00041  21937565.43246  21937565.05648
 94 02 15 01 32 00.0000000  0  8 02 04 07 09 13 19 26 27
 -23516298.05749 -18324354.72848         0.00041  21027112.35348  21027111.47049
  -3832472.11748  -2986331.86945         0.00041  24502464.92345  24502461.17048
 -26396072.23249 -20568334.80448         0.00041  20326049.84048  20326049.47949
  -3278438.09648  -2554623.29645         0.00041  24726930.06945  24726928.41848
 -15271903.24408 -11900151.76608  22466280.19608  22466282.34008         0.00001
   3547976.39048   2764665.02745         0.00041  24398379.07345  24398375.47848
 -16451688.10748 -12819476.22846         0.00041  22383918.01646  22383917.38948
 -18941183.80348 -14759339.24446         0.00041  21953748.99646  21953748.40348
 94 02 15 01 32 30.0000000  0  8 02 04 07 09 13 19 26 27
 -23499402.21249 -18311189.12748         0.00041  21030327.36248  21030326.64849
  -3932802.99848  -3064511.71245         0.00041  24483371.45745  24483368.78048
 -26397390.28249 -20569361.82948         0.00041  20325799.04448  20325798.66349
  -3377958.90348  -2632171.89645         0.00041  24707994.36345  24707990.12748
 -15372342.25408 -11978415.83008  22447167.23808  22447169.39808         0.00001
   3646831.21848   2841694.75445         0.00041  24417187.90045  24417186.95648
 -16442953.58348 -12812670.09446         0.00041  22385579.93446  22385579.40948
 -18855803.03448 -14692808.77746         0.00041  21969996.07646  21969995.74648
 94 02 15 01 33 00.0000000  0  8 02 04 07 09 13 19 26 27
 -23482341.62049 -18297895.15448         0.00041  21033573.86348  21033573.19449
  -4033180.53648  -3142727.71945         0.00041  24464272.20845  24464267.53348
 -26398222.44249 -20570010.23648         0.00041  20325640.66248  20325640.26449
  -3477479.95048  -2709720.65045         0.00041  24689055.32645  24689051.74148
 -15472422.38508 -12056400.24608  22428122.57208  22428124.62308         0.00001
   3745841.64348   2918845.70745         0.00041  24436031.13045  24436027.94848
 -16433698.93148 -12805458.66646         0.00041  22387341.19346  22387340.51048
 -18770067.06048 -14626001.53446         0.00041  21986311.36446  21986310.80248
 94 02 15 01 33 30.0000000  0  8 02 04 07 09 13 19 26 27
 -23465127.15149 -18284481.28048         0.00041  21036849.71848  21036849.00849
  -4133607.28348  -3220982.19545         0.00041  24445159.69645  24445156.76748
 -26398575.61549 -20570285.40448         0.00041  20325573.43548  20325573.02749
  -3577004.62348  -2787272.13546         0.00041  24670115.90246  24670112.85548
 -15572151.76808 -12134111.35508  22409144.62908  22409146.64208         0.00001
   3844968.31148   2996087.26545         0.00041  24454893.98645  24454891.09348
 -16423935.87048 -12797851.07746         0.00041  22389199.43346  22389198.33548
 -18683985.95548 -14558925.35246         0.00041  22002692.04346  22002691.48648
 94 02 15 01 34 00.0000000  0  8 02 04 07 09 13 19 26 27
 -23447742.02649 -18270934.42148         0.00041  21040157.92948  21040157.22049
  -4234071.26448  -3299265.65445         0.00041  24426040.95345  24426039.12748
 -26398442.00049 -20570181.25348         0.00041  20325598.65148  20325598.34849
  -3676496.67448  -2864798.29146         0.00041  24651182.34146  24651179.95848
 -15671512.28108 -12211535.03408  22390236.88208  22390238.84808         0.00001
   3944227.11648   3073431.73545         0.00041  24473781.52145  24473779.42848
 -16413646.88348 -12789833.67646         0.00041  22391157.13746  22391156.32748
 -18597540.61448 -14491565.35846         0.00041  22019141.96646  22019141.30548
 94 02 15 01 34 30.0000000  0  8 02 04 07 09 13 19 26 27
 -23430185.51649 -18257254.01848         0.00041  21043498.72048  21043498.01849
  -4334575.44048  -3377580.46945         0.00041  24406917.58145  24406913.54548
 -26397816.27149 -20569693.63648         0.00041  20325717.93448  20325717.55349
  -3775927.46848  -2942276.65645         0.00041  24632261.28945  24632258.85448
 -15770498.43408 -12288667.00508  22371400.36608  22371402.34508         0.00001
   4043615.49748   3150877.22545         0.00041  24492696.79245  24492692.34948
 -16402828.97048 -12781404.10846         0.00041  22393215.71846  22393214.74448
 -18510725.98748 -14423917.60546         0.00041  22035662.54946  22035661.80548
 94 02 15 01 35 00.0000000  0  8 02 04 07 09 13 19 26 27
 -23412447.16049 -18243431.91248         0.00041  21046874.33348  21046873.64049
  -4435142.35048  -3455944.15445         0.00041  24387781.55445  24387775.97848
 -26396704.62549 -20568827.38148         0.00041  20325929.46248  20325929.10649
  -3875312.82248  -3019719.65745         0.00041  24613348.28745  24613346.28248
 -15869123.74608 -12365517.80508  22352632.48508  22352634.44608         0.00001
   4143137.11148   3228426.51945         0.00041  24511633.35045  24511630.76348
 -16391492.34848 -12772570.36246         0.00041  22395372.99646  22395372.01948
 -18423567.41848 -14356001.84246         0.00041  22052248.26446  22052247.52748
 94 02 15 01 35 30.0000000  0  8 02 04 07 09 13 19 26 27
 -23394530.63149 -18229470.97048         0.00041  21050283.76448  21050283.02649
  -4535779.54548  -3534362.57745         0.00041  24368628.63745  24368625.34048
 -26395089.31149 -20567568.65748         0.00041  20326236.84248  20326236.41649
  -3974647.77648  -3097123.37745         0.00041  24594445.01045  24594443.47448
 -15967383.55908 -12442083.80408  22333934.25708  22333936.10908         0.00001
   4242818.55748   3306100.37045         0.00041  24530603.31945  24530599.51348
 -16379630.26748 -12763327.16546         0.00041  22397630.03646  22397629.25048
 -18336062.54448 -14287816.23446         0.00041  22068899.77846  22068899.17748
 94 02 15 01 36 00.0000000  0  8 02 04 07 09 13 19 26 27
 -23376449.24249 -18215381.56248         0.00041  21053724.43948  21053723.75849
  -4636488.34548  -3612836.80545         0.00041  24349463.90245  24349460.93348
 -26392985.20449 -20565929.05648         0.00041  20326637.21548  20326636.72849
  -4073945.82548  -3174498.32745         0.00041  24575550.90745  24575547.60948
 -16065284.95208 -12518370.51508  22315304.13308  22315306.01908         0.00001
   4342671.20548   3383907.63045         0.00041  24549605.44345  24549600.91548
 -16367244.56348 -12753675.94946         0.00041  22399986.68946  22399986.28748
 -18248216.92848 -14219365.10746         0.00041  22085616.78446  22085615.70748
 94 02 15 01 36 30.0000000  0  8 02 04 07 09 13 19 26 27
 -23358200.68849 -18201161.89648         0.00041  21057197.21048  21057196.38349
  -4737252.03748  -3691353.79845         0.00041  24330289.95145  24330286.35348
 -26390398.05549 -20563913.06048         0.00041  20327129.32248  20327129.02149
  -4173231.16248  -3251863.41846         0.00041  24556655.11446  24556653.96648
 -16162829.21508 -12594378.94908  22296742.03008  22296743.87508         0.00001
   4442689.19348   3461843.69745         0.00041  24568636.43945  24568633.82148
 -16354332.86348 -12743614.86446         0.00041  22402443.79146  22402443.34048
 -18160037.64148 -14150653.98446         0.00041  22102396.35146  22102395.63448
 94 02 15 01 37 00.0000000  0  8 02 04 07 09 13 19 26 27
 -23339811.99949 -18186833.02648         0.00041  21060696.26548  21060695.58249
  -4838076.66948  -3769918.26845         0.00041  24311102.82845  24311099.97848
 -26387362.92349 -20561547.98848         0.00041  20327706.89048  20327706.56949
  -4272541.05448  -3329247.65846         0.00041  24537758.07846  24537755.96948
 -16260035.40908 -12670123.95008  22278244.25908  22278246.08208         0.00001
   4542846.95348   3539888.72845         0.00041  24587695.90545  24587693.35948
 -16340912.96048 -12733157.78046         0.00041  22404997.83246  22404996.97148
 -18071546.86348 -14081700.14046         0.00041  22119235.29746  22119234.72348
 94 02 15 01 37 30.0000000  0  8 02 04 07 09 13 19 26 27
 -23321275.95849 -18172389.33448         0.00041  21064223.58648  21064222.74349
  -4938942.80148  -3848515.05145         0.00041  24291908.97045  24291905.34648
 -26383871.29049 -20558827.20348         0.00041  20328371.51848  20328371.05349
  -4371854.41648  -3406634.57945         0.00041  24518858.55545  24518857.31648
 -16356887.00508 -12745592.64308  22259813.96708  22259815.75908         0.00001
   4643148.99648   3618046.15945         0.00041  24606781.74045  24606780.13648
 -16326979.59648 -12722300.59246         0.00041  22407649.36546  22407648.41848
 -17982727.86248 -14012490.52946         0.00041  22136137.19546  22136136.30248
 94 02 15 01 38 00.0000000  0  8 02 04 07 09 13 19 26 27
 -23302566.92249 -18157810.83948         0.00041  21067783.65948  21067783.01649
  -5039825.72848  -3927124.93346         0.00041  24272710.63846  24272707.83448
 -26379929.25549 -20555755.45748         0.00041  20329121.44548  20329121.07849
  -4471170.47648  -3484023.59545         0.00041  24499960.29345  24499957.76948
 -16453377.93708 -12820780.30208  22241452.24408  22241453.98608         0.00001
   4743586.46548   3696309.11246         0.00041  24625895.74546  24625892.63248
 -16312523.18548 -12711035.84146         0.00041  22410400.19646  22410399.34748
 -17893574.71448 -13943020.54146         0.00041  22153101.80946  22153101.68348
 94 02 15 01 38 30.0000000  0  8 02 04 07 09 13 19 26 27
 -23283669.55549 -18143085.58748         0.00041  21071379.76448  21071378.97249
  -5140710.98548  -4005736.60345         0.00041  24253511.78245  24253509.78648
 -26375510.43349 -20552312.19448         0.00041  20329962.27448  20329961.89849
  -4570472.52948  -3561401.66746         0.00041  24481063.29746  24481061.00848
 -16549490.55108 -12895673.16808  22223162.56408  22223164.37308         0.00001
   4844164.02948   3774681.28645         0.00041  24645033.98345  24645031.68248
 -16297540.39048 -12699360.92046         0.00041  22413250.99746  22413250.36148
 -17804080.40448 -13873284.72046         0.00041  22170132.72946  22170131.87948
 94 02 15 01 39 00.0000000  0  8 02 04 07 09 13 19 26 27
 -23264593.20249 -18128220.87048         0.00041  21075009.79448  21075009.05449
  -5241617.51448  -4084364.88945         0.00041  24234309.15845  24234307.59748
 -26370606.51349 -20548490.93548         0.00041  20330895.52948  20330895.12749
  -4669739.05848  -3638752.05446         0.00041  24462174.38546  24462171.16548
 -16645220.73308 -12970268.03608  22204945.65108  22204947.44308         0.00001
   4944890.50648   3853169.43945         0.00041  24664202.18745  24664199.58148
 -16282026.75648 -12687272.36146         0.00041  22416203.39346  22416202.55348
 -17714244.17348 -13803282.46446         0.00041  22187228.04346  22187227.15248
 94 02 15 01 39 30.0000000  0  8 02 04 07 09 13 19 26 27
 -23245325.30849 -18113206.90548         0.00041  21078676.44648  21078675.72049
  -5342541.07348  -4163006.42745         0.00041  24215105.17945  24215102.56348
 -26365205.03249 -20544281.97048         0.00041  20331923.36648  20331923.07949
  -4768955.62448  -3716063.49045         0.00041  24443293.25045  24443290.74648
 -16740560.35508 -13044558.57308  22186803.06608  22186804.80808         0.00001
   5045772.42248   3931778.75545         0.00041  24683399.83845  24683396.71848
 -16265978.28448 -12674767.04446         0.00041  22419257.24946  22419256.56248
 -17624067.79848 -13733015.15746         0.00041  22204387.60146  22204387.23748
 94 02 15 01 40 00.0000000  0  8 02 04 07 09 13 19 26 27
 -23225904.82849 -18098074.03448         0.00041  21082371.99648  21082371.24149
  -5443497.14648  -4241673.29045         0.00041  24195895.33245  24195891.21348
 -26359335.88649 -20539708.58548         0.00041  20333040.10648  20333039.88749
  -4868143.06548  -3793352.22146         0.00041  24424417.05346  24424415.79048
 -16835529.36608 -13118560.32508  22168730.98208  22168732.70108         0.00001
   5146783.35048   4010488.58145         0.00041  24702621.36745  24702618.22048
 -16249419.51648 -12661864.09546         0.00041  22422408.05246  22422407.31248
 -17533588.50048 -13662511.80246         0.00041  22221605.01246  22221604.85248
 94 02 15 01 40 30.0000000  0  8 02 04 07 09 13 19 26 27
 -23206362.89749 -18082846.52948         0.00041  21086090.54248  21086089.92149
  -5544514.75548  -4320388.09945         0.00041  24176671.15645  24176668.13148
 -26353017.27549 -20534784.97148         0.00041  20334242.37548  20334242.13649
  -4967302.82748  -3870619.37046         0.00041  24405548.22746  24405546.07448
 -16930138.22608 -13192281.44208  22150727.44708  22150729.21108         0.00001
   5247910.46148   4089288.96145         0.00041  24721864.94745  24721862.13248
 -16232379.26248 -12648585.95946         0.00041  22425651.04646  22425650.07148
 -17442837.54548 -13591796.78046         0.00041  22238874.71446  22238874.02748
 94 02 15 01 41 00.0000000  0  8 02 04 07 09 13 19 26 27
 -23186652.46749 -18067487.72148         0.00041  21089841.36648  21089840.68349
  -5645557.95148  -4399122.85445         0.00041  24157443.37345  24157440.11448
 -26346223.26249 -20529490.91648         0.00041  20335535.40148  20335535.01449
  -5066391.89848  -3947831.44746         0.00041  24386691.16446  24386689.87848
 -17024342.24508 -13265687.10208  22132800.96108  22132802.70708         0.00001
   5349189.02248   4168207.33845         0.00041  24741136.70245  24741134.87248
 -16214817.75448 -12634901.65346         0.00041  22428992.80546  22428991.83348
 -17351776.76848 -13520840.31946         0.00041  22256203.24446  22256202.41348
 94 02 15 01 41 30.0000000  0  8 02 04 07 09 13 19 26 27
 -23166768.90149 -18051994.00548         0.00041  21093625.04348  21093624.30949
  -5746616.93248  -4477869.89345         0.00041  24138212.29145  24138208.99748
 -26338961.33049 -20523832.24948         0.00041  20336917.21648  20336916.89549
  -5165430.97248  -4025004.56846         0.00041  24367845.82946  24367843.27848
 -17118143.70108 -13338779.07308  22114951.08108  22114952.83508         0.00001
   5450599.74048   4247228.75945         0.00041  24760435.00845  24760432.70648
 -16196766.86648 -12620836.01946         0.00041  22432427.70346  22432426.90948
 -17260404.64548 -13449641.26046         0.00041  22273590.44546  22273589.89548
 94 02 15 01 42 00.0000000  0  8 02 04 07 09 13 19 26 27
 -23146714.05949 -18036366.82848         0.00041  21097441.37948  21097440.63849
  -5847701.90748  -4556637.18245         0.00041  24118974.40445  24118973.04348
 -26331236.59449 -20517812.95648         0.00041  20338387.25048  20338386.85849
  -5264427.87448  -4102144.82546         0.00041  24349007.23946  24349004.70048
 -17211546.18208 -13411560.15608  22097177.10308  22097178.86808         0.00001
   5552133.77848   4326346.20645         0.00041  24779757.45845  24779754.10548
 -16178235.54748 -12606396.02046         0.00041  22435954.37346  22435953.35948
 -17168720.53348 -13378199.09046         0.00041  22291037.22046  22291036.89248
 94 02 15 01 42 30.0000000  0  7 02 04 07 09 13 19 27
 -23126465.15049 -18020588.43148         0.00041  21101294.51748  21101293.90049
  -5948811.00648  -4635423.29046         0.00041  24099733.76646  24099732.46748
 -26323052.68049 -20511435.86548         0.00041  20339944.57248  20339944.23849
  -5363374.44648  -4179245.88746         0.00041  24330178.35346  24330175.82048
 -17304546.52208 -13484027.88308  22079479.66308  22079481.44808         0.00001
   5653792.24848   4405560.66045         0.00041  24799100.35945  24799098.78848
 -17076708.04648 -13306501.03746         0.00041  22308547.01746  22308546.29948
 94 02 15 01 43 00.0000000  0  7 02 04 07 09 13 19 27
 -23106025.02249 -18004661.03248         0.00041  21105184.21148  21105183.47049
  -6049941.09848  -4714225.72246         0.00041  24080489.69346  24080487.96748
 -26314424.85549 -20504712.86748         0.00041  20341586.46848  20341586.05149
  -5462281.03748  -4256315.81046         0.00041  24311356.11146  24311354.33048
 -17397155.49908 -13556190.65308  22061856.71708  22061858.44108         0.00001
   5755565.27548   4484864.37545         0.00041  24818469.50245  24818465.63048
 -16984365.40048 -13234545.73046         0.00041  22326119.24346  22326118.38848
 94 02 15 01 43 30.0000000  0  8 02 04 07 09 12 13 19 27
 -23085386.59549 -17988579.11848         0.00041  21109111.40248  21109110.74049
  -6151074.73748  -4793030.92645         0.00041  24061244.73645  24061242.38448
 -26305349.26149 -20497640.95948         0.00041  20343313.24248  20343312.92949
  -5561138.15348  -4333347.19546         0.00041  24292544.33546  24292542.39748
        -0.58818        -0.64517  25327103.24818  25327106.90117         0.00011
 -17489364.93108 -13628042.08408  22044309.78908  22044311.52208         0.00001
   5857466.80048   4564268.17645         0.00041  24837860.32645  24837856.82148
 -16891693.87348 -13162334.14546         0.00041  22343753.92946  22343753.32148
 94 02 15 01 44 00.0000000  0  8 02 04 07 09 12 13 19 27
 -23064562.93049 -17972352.86048         0.00041  21113074.16048  21113073.40949
  -6252215.40248  -4871841.59045         0.00041  24041998.10445  24041995.90748
 -26295829.69549 -20490223.09648         0.00041  20345124.78348  20345124.43849
  -5659942.54448  -4410337.51346         0.00041  24273742.48246  24273740.52648
    -88246.98308    -68763.87607  25310310.29308  25310314.13807         0.00001
 -17581178.18008 -13699584.79908  22026838.26708  22026839.91708         0.00001
   5959498.17848   4643773.24145         0.00041  24857274.88945  24857272.90848
 -16798723.26048 -13089889.51146         0.00041  22361446.02946  22361445.05148
 94 02 15 01 44 30.0000000  0  8 02 04 07 09 12 13 19 27
 -23043562.71449 -17955989.03648         0.00041  21117070.31948  21117069.62049
  -6353361.32448  -4950656.36446         0.00041  24022751.45446  24022748.20048
 -26285863.95149 -20482457.56448         0.00041  20347021.21748  20347020.95149
  -5758690.49548  -4487283.87546         0.00041  24254951.53846  24254949.29348
   -176577.62008   -137592.74207  25293501.40708  25293505.14807         0.00001
 -17672591.80808 -13770816.11608  22009442.72808  22009444.40708         0.00001
   6061649.27248   4723371.55745         0.00041  24876714.99345  24876711.45948
 -16705453.34648 -13017211.64946         0.00041  22379193.85046  22379193.65948
 94 02 15 01 45 00.0000000  0  8 02 04 07 09 12 13 19 27
 -23022393.26549 -17939493.34748         0.00041  21121098.59548  21121097.99849
  -6454508.72348  -5029472.25046         0.00041  24003504.19746  24003500.42948
 -26275427.10749 -20474324.93848         0.00041  20349007.23748  20349006.95549
  -5857388.96648  -4564191.70346         0.00041  24236169.09746  24236167.57148
   -264982.53508   -206479.49907  25276678.46908  25276682.09407         0.00001
 -17763594.45608 -13841727.18908  21992125.44008  21992127.14208         0.00001
   6163922.26948   4803064.87145         0.00041  24896175.27945  24896173.23048
 -16611883.62648 -12944300.17246         0.00041  22397000.11346  22396999.50948
 94 02 15 01 45 30.0000000  0  8 02 04 07 09 12 13 19 27
 -23001075.96149 -17922882.44448         0.00041  21125155.30148  21125154.65349
  -6555664.27948  -5108294.48046         0.00041  23984253.46946  23984250.89648
 -26264513.58349 -20465820.87348         0.00041  20351084.12048  20351083.72449
  -5956049.94148  -4641070.31246         0.00041  24217393.90946  24217392.90648
   -353468.27908   -275429.26307  25259840.09908  25259843.60707         0.00001
 -17854190.99508 -13912321.81108  21974885.39608  21974887.10108         0.00001
   6266295.27048   4882836.09345         0.00041  24915656.36745  24915654.00248
 -16518023.60748 -12871162.50046         0.00041  22414860.63446  22414860.47748
 94 02 15 01 46 00.0000000  0  8 02 04 07 09 12 13 19 27
 -22979608.20249 -17906154.30748         0.00041  21129240.24148  21129239.80749
  -6656815.62648  -5187113.42446         0.00041  23965004.63846  23965002.10948
 -26253109.21349 -20456934.32848         0.00041  20353254.18248  20353253.94249
  -6054653.93748  -4717904.55046         0.00041  24198630.41346  24198629.04148
   -442023.55508   -344433.24107  25242988.36708  25242991.98907         0.00001
 -17944368.76608 -13982590.12308  21957725.07708  21957726.75908         0.00001
   6368770.07748   4962686.66845         0.00041  24935155.87645  24935154.37548
 -16423845.26948 -12797776.77846         0.00041  22432782.37846  22432782.02248
 94 02 15 01 46 30.0000000  0  8 02 04 07 09 12 13 19 27
 -22957983.65649 -17889304.00148         0.00041  21133355.47048  21133354.82649
  -6757955.24548  -5265923.22046         0.00041  23945759.41146  23945755.71348
 -26241217.64349 -20447668.14548         0.00041  20355517.06448  20355516.77049
  -6153197.34048  -4794691.56746         0.00041  24179880.12346  24179877.16248
   -530646.24008   -413489.75007  25226123.93908  25226127.42907         0.00001
 -18034124.22608 -14052529.35908  21940645.14908  21940646.75208         0.00001
   6471346.32048   5042616.26945         0.00041  24954675.82545  24954673.93548
 -16329322.32348 -12724122.53146         0.00041  22450769.81546  22450769.08048
 94 02 15 01 47 00.0000000  0  8 02 04 07 09 12 13 19 27
 -22936218.63349 -17872344.23248         0.00041  21137497.00548  21137496.50349
  -6859074.28248  -5344716.97446         0.00041  23926516.39046  23926513.27948
 -26228859.23149 -20438038.18948         0.00041  20357868.67448  20357868.45549
  -6251695.67548  -4871443.49046         0.00041  24161133.64346  24161133.44248
   -619344.84208   -482605.41107  25209245.01808  25209248.52907         0.00001
 -18123464.32108 -14122144.93408  21923644.24308  21923645.86508         0.00001
   6574032.98348   5122631.91545         0.00041  24974214.20145  24974214.42648
 -16234472.76548 -12650213.76846         0.00041  22468818.67546  22468818.27048
 94 02 15 01 47 30.0000000  0  8 02 04 07 09 12 13 19 27
 -22914285.91549 -17855253.79248         0.00041  21141670.89748  21141670.14149
  -6960150.96648  -5423477.72946         0.00041  23907280.08746  23907278.57548
 -26216038.59249 -20428048.05948         0.00041  20360308.51648  20360308.15849
  -6350118.90848  -4948136.88446         0.00041  24142404.42746  24142404.10548
   -708110.13808   -551773.03207  25192353.38008  25192356.96407         0.00001
 -18212378.62908 -14191428.73108  21906724.38108  21906725.91008         0.00001
   6676838.60648   5202740.30945         0.00041  24993778.78445  24993777.75048
 -16139300.86148 -12576053.83146         0.00041  22486929.19446  22486928.93648
 94 02 15 01 48 00.0000000  0  8 02 04 07 09 12 13 19 27
 -22892172.38749 -17838022.46548         0.00041  21145878.74848  21145878.25749
  -7061189.78348  -5502208.99646         0.00041  23888053.45446  23888051.62048
 -26202774.78949 -20417712.60248         0.00041  20362832.41148  20362832.18749
  -6448464.81248  -5024770.03146         0.00041  24123692.09346  24123689.25548
   -796945.11908   -620994.94907  25175448.57408  25175452.03807         0.00001
 -18300868.79408 -14260382.02908  21889885.19508  21889886.67908         0.00001
   6779767.68248   5282944.84845         0.00041  25013367.12145  25013364.32648
 -16043824.24448 -12501656.45946         0.00041  22505097.73046  22505097.58748
 94 02 15 01 48 30.0000000  0  8 02 04 07 09 12 13 19 27
 -22869880.62749 -17820652.25448         0.00041  21150120.85048  21150120.20849
  -7162193.29848  -5580912.75846         0.00041  23868833.26046  23868831.18648
 -26189080.83649 -20407041.96448         0.00041  20365438.29248  20365438.05749
  -6546736.30648  -5101345.20546         0.00041  24104990.21946  24104989.13748
   -885852.32408   -690273.15907  25158529.96108  25158533.43507         0.00001
 -18388935.71308 -14329005.52808  21873126.59408  21873128.00708         0.00001
   6882817.74948   5363243.67945         0.00041  25032975.65445  25032974.02648
 -15948066.27648 -12427039.84146         0.00041  22523320.76546  22523319.76348
 94 02 15 01 49 00.0000000  0  8 02 04 07 09 12 13 19 27
 -22847417.77249 -17803148.72648         0.00041  21154395.22948  21154394.69649
  -7263169.02248  -5659594.88146         0.00041  23849617.58946  23849615.68848
 -26174961.00449 -20396039.47348         0.00041  20368125.37148  20368124.94349
  -6644918.38848  -5177850.69546         0.00041  24086307.46046  24086305.60048
   -974832.35208   -759608.13007  25141597.64408  25141600.92907         0.00001
 -18476578.97908 -14397298.91308  21856448.59608  21856449.98008         0.00001
   6985969.00948   5443621.37145         0.00041  25052603.71145  25052602.99948
 -15852047.94448 -12352220.36746         0.00041  22541592.19146  22541591.49248
 94 02 15 01 49 30.0000000  0  8 02 04 07 09 12 13 19 27
 -22824757.56949 -17785491.42048         0.00041  21158707.30848  21158706.84249
  -7364118.92848  -5738256.92046         0.00041  23830406.60746  23830405.36348
 -26160402.31149 -20384695.00848         0.00041  20370895.60448  20370895.34649
  -6742980.64148  -5254262.80745         0.00041  24067645.25945  24067644.90848
  -1063877.47208   -828993.83707  25124652.83608  25124656.15707         0.00001
 -18563789.52408 -14465255.11808  21839852.87208  21839854.28908         0.00001
   7089215.01448   5524072.86545         0.00041  25072251.75845  25072250.24148
 -15755757.62748 -12277188.94146         0.00041  22559915.01746  22559914.99248
 94 02 15 01 50 00.0000000  0  8 02 04 07 09 12 13 19 27
 -22801920.99949 -17767696.68348         0.00041  21163052.96748  21163052.42849
  -7465048.94048  -5816903.45546         0.00041  23811201.10846  23811198.74148
 -26145411.39149 -20373013.74348         0.00041  20373748.25848  20373748.00849
  -6840939.56848  -5330594.38246         0.00041  24049004.44546  24049003.86848
  -1152988.75508   -898431.12007  25107695.51008  25107698.72307         0.00001
 -18650567.02708 -14532873.89108  21823339.62808  21823341.08008         0.00001
   7192562.72048   5604603.66444         0.00041  25091917.47344  25091916.54548
 -15659176.15448 -12201930.63546         0.00041  22578294.07246  22578293.68148
 94 02 15 01 50 30.0000000  0  8 02 04 07 09 12 13 19 27
 -22778929.21149 -17749781.00048         0.00041  21167428.12848  21167427.65049
  -7565963.09048  -5895537.65846         0.00041  23791998.20346  23791995.29548
 -26129996.08449 -20361001.78748         0.00041  20376681.58248  20376681.35349
  -6938819.30348  -5406864.25146         0.00041  24030379.10546  24030377.82348
  -1242177.55708   -967928.82607  25090723.31508  25090726.50407         0.00001
 -18736921.75508 -14600163.22908  21806906.83608  21806908.25808         0.00001
   7295992.66248   5685198.51244         0.00041  25111600.88644  25111598.46048
 -15562310.30148 -12126450.75846         0.00041  22596726.54046  22596726.66248
 94 02 15 01 51 00.0000000  0  8 02 04 07 09 12 13 19 27
 -22755777.96449 -17731741.06148         0.00041  21171833.78148  21171833.24749
  -7666864.51348  -5974161.95546         0.00041  23772795.93146  23772794.40848
 -26114149.91349 -20348654.09348         0.00041  20379696.98948  20379696.73349
  -7036642.61648  -5483090.11746         0.00041  24011763.49046  24011762.69748
  -1331450.84408  -1037492.37707  25073735.10708  25073738.34707         0.00001
 -18822859.32608 -14667127.51308  21790553.41708  21790554.82508         0.00001
   7399498.70848   5765852.67944         0.00041  25131294.72244  25131294.85048
 -15465161.65248 -12050750.50446         0.00041  22615214.65746  22615213.47448
 94 02 15 01 51 30.0000000  0  8 02 04 07 09 12 13 19 27
 -22732433.10249 -17713550.25548         0.00041  21176276.17548  21176275.67649
  -7767724.60848  -6052754.05746         0.00041  23753603.20646  23753601.40048
 -26097849.95549 -20335952.79848         0.00041  20382798.79848  20382798.53549
  -7134405.27748  -5559268.71646         0.00041  23993160.39646  23993158.91748
  -1420786.48808  -1107104.51707  25056735.06508  25056738.37507         0.00001
 -18908356.75108 -14733748.82608  21774283.79908  21774285.13108         0.00001
   7503116.91748   5846594.23544         0.00041  25151014.25644  25151012.56248
 -15367708.35048 -11974812.86846         0.00041  22633758.50146  22633758.11548
 94 02 15 01 52 00.0000000  0  8 02 04 07 09 12 13 19 27
 -22708900.30149 -17695212.99448         0.00041  21180754.29148  21180753.71849
  -7868527.52748  -6131301.62546         0.00041  23734420.33246  23734419.11548
 -26081089.49249 -20322892.67148         0.00041  20385988.13748  20385987.86249
  -7232122.19448  -5635411.65846         0.00041  23974564.73146  23974564.01748
  -1510175.44708  -1176758.19407  25039724.95708  25039728.18107         0.00001
 -18993403.51508 -14800018.97308  21758099.87208  21758101.19908         0.00001
   7606844.98748   5927421.42743         0.00041  25170752.88943  25170751.16848
 -15269947.50648 -11898635.57946         0.00041  22652361.96046  22652361.39348
 94 02 15 01 52 30.0000000  0  8 02 04 07 09 12 13 19 27
 -22685189.35449 -17676736.91948         0.00041  21185266.29448  21185265.74949
  -7969287.81048  -6209815.97946         0.00041  23715246.06546  23715244.88348
 -26063879.27449 -20309482.08748         0.00041  20389263.10648  20389262.90849
  -7329795.55748  -5711520.66046         0.00041  23955978.79446  23955977.32248
  -1599631.15508  -1246463.86407  25022702.00708  25022705.18707         0.00001
 -19078012.10408 -14865947.68208  21741999.34008  21742000.70408         0.00001
   7710654.47748   6008312.07844         0.00041  25190509.12944  25190505.58148
 -15171912.97248 -11822245.03446         0.00041  22671017.60346  22671016.72548
 94 02 15 01 53 00.0000000  0  8 02 04 07 09 12 13 19 27
 -22661300.74949 -17658122.40648         0.00041  21189812.02848  21189811.60649
  -8070006.82548  -6288298.18246         0.00041  23696080.48346  23696078.49148
 -26046217.78449 -20295719.86248         0.00041  20392623.92348  20392623.70949
  -7427401.39848  -5787577.04346         0.00041  23937404.61646  23937403.67048
  -1689153.70108  -1316221.60707  25005666.37908  25005669.48507         0.00001
 -19162181.62208 -14931534.25408  21725982.34208  21725983.66508         0.00001
   7814546.69748   6089267.20644         0.00041  25210279.50944  25210275.54448
 -15073604.53548 -11745641.05946         0.00041  22689724.61446  22689724.06448
 94 02 15 01 53 30.0000000  0  8 02 04 07 09 12 13 19 27
 -22637225.24849 -17639362.25648         0.00041  21194393.38048  21194392.94649
  -8170661.73748  -6366730.45446         0.00041  23676925.85646  23676924.47648
 -26028103.05849 -20281604.46748         0.00041  20396071.17248  20396070.89349
  -7524898.28348  -5863548.52846         0.00041  23918850.03046  23918850.27348
  -1778722.00308  -1386014.99207  24988622.11508  24988625.21807         0.00001
 -19245889.69608 -14996761.26008  21710053.15708  21710054.52008         0.00001
   7918543.21548   6170303.60044         0.00041  25230070.48544  25230065.39748
 -14975000.43348 -11668806.68646         0.00041  22708487.78846  22708487.79948
 94 02 15 01 54 00.0000000  0  8 02 04 07 09 12 13 19 27
 -22612989.58549 -17620477.30548         0.00041  21199005.18148  21199004.72749
  -8271265.10148  -6445122.56346         0.00041  23657781.97146  23657780.16048
 -26009563.37149 -20267157.93648         0.00041  20399598.99748  20399598.82749
  -7622292.42348  -5939439.90446         0.00041  23900318.31446  23900316.63748
  -1868350.83608  -1455855.53907  24971566.14708  24971569.33707         0.00001
 -19329150.11808 -15061639.44408  21694209.17508  21694210.49208         0.00001
   8022629.32248   6251409.79344         0.00041  25249872.09844  25249872.23448
 -14876118.18048 -11591755.58546         0.00041  22727304.99146  22727304.55048
 94 02 15 01 54 30.0000000  0  8 02 04 07 09 12 13 19 27
 -22588557.49849 -17601439.29348         0.00041  21203654.64948  21203654.05349
  -8371789.91448  -6523453.46446         0.00041  23638651.73946  23638650.95748
 -25990585.19649 -20252369.72748         0.00041  20403210.42148  20403210.18649
  -7719544.55148  -6015220.67346         0.00041  23881811.66146  23881809.97548
  -1958020.83808  -1525728.15907  24954502.36908  24954505.55107         0.00001
 -19411942.56708 -15126152.97208  21678454.24208  21678455.53608         0.00001
   8126835.45848   6332609.49243         0.00041  25269699.75043  25269701.58348
 -14776948.20648 -11514480.28246         0.00041  22746176.72046  22746176.02448
 94 02 15 01 55 00.0000000  0  8 02 04 07 09 12 13 19 27
 -22563953.71549 -17582267.49248         0.00041  21208336.49048  21208335.93249
  -8472257.80348  -6601740.00546         0.00041  23619534.43946  23619532.52048
 -25971199.96149 -20237264.32948         0.00041  20406899.26448  20406899.04649
  -7816686.16848  -6090915.30846         0.00041  23863325.80946  23863324.70948
  -2047764.15808  -1595657.90207  24937424.60708  24937427.93507         0.00001
 -19494298.13608 -15190326.07308  21662782.47308  21662783.72508         0.00001
   8231137.59348   6413884.06944         0.00041  25289550.86844  25289549.58248
 -14677515.86748 -11437000.54046         0.00041  22765098.13646  22765097.48148
 94 02 15 01 55 30.0000000  0  8 02 04 07 09 12 13 19 27
 -22539171.33749 -17562956.52548         0.00041  21213052.39148  21213051.89249
  -8572672.86048  -6679985.40546         0.00041  23600425.44646  23600423.93448
 -25951425.42649 -20221855.58048         0.00041  20410662.24148  20410662.05949
  -7913729.65348  -6166533.50746         0.00041  23844858.87446  23844857.65148
  -2137580.57008  -1665644.58707  24920333.15908  24920336.26107         0.00001
 -19576215.63008 -15254157.81708  21647194.03208  21647195.27908         0.00001
   8335535.22848   6495232.97643         0.00041  25309414.78543  25309415.90148
 -14577835.63148 -11359327.63546         0.00041  22784066.36046  22784065.74248
 94 02 15 01 56 00.0000000  0  8 02 04 07 09 12 13 19 27
 -22514186.71649 -17543487.96748         0.00041  21217806.71448  21217806.41049
  -8673020.29648  -6758178.10146         0.00041  23581329.22046  23581328.31448
 -25931237.95849 -20206125.06648         0.00041  20414503.83248  20414503.57949
  -8010663.01048  -6242065.87946         0.00041  23826412.89046  23826411.76148
  -2227452.45108  -1735674.49007  24903230.93108  24903234.06207         0.00001
 -19657676.65708 -15317633.86908  21631692.44208  21631693.67908         0.00001
   8440030.52848   6576658.03643         0.00041  25329299.37343  25329300.71548
 -14477908.00948 -11281461.96146         0.00041  22803082.39046  22803081.39448
 94 02 15 01 56 30.0000000  0  8 02 04 07 09 12 13 19 27
 -22489009.82249 -17523869.58648         0.00041  21222597.85248  21222597.25949
  -8773312.49548  -6836327.74346         0.00041  23562244.95546  23562243.08448
 -25910634.47949 -20190070.38948         0.00041  20418424.65748  20418424.29149
  -8107485.31748  -6317511.74546         0.00041  23807986.77946  23807986.93848
  -2317385.47708  -1805752.03107  24886117.23108  24886120.23007         0.00001
 -19738685.79608 -15380757.80208  21616276.86508  21616278.12208         0.00001
   8544613.26048   6658151.22343         0.00041  25349204.80343  25349201.88448
 -14377737.06148 -11203406.67046         0.00041  22822143.81546  22822143.20048
 94 02 15 01 57 00.0000000  0  8 02 04 07 09 12 13 19 27
 -22463658.36249 -17504115.17748         0.00041  21227422.01048  21227421.49249
  -8873567.20848  -6914448.19846         0.00041  23543166.89646  23543165.22548
 -25889612.64549 -20173689.72448         0.00041  20422424.70948  20422424.54349
  -8204201.48848  -6392874.91246         0.00041  23789583.37746  23789582.52848
  -2407378.18608  -1875876.07807  24868992.11708  24868994.91807         0.00001
 -19819240.63608 -15443527.73508  21600947.71608  21600948.95208         0.00001
   8649278.65648   6739708.72443         0.00041  25369122.53243  25369118.82348
 -14277312.37148 -11125153.67146         0.00041  22841254.02246  22841253.50148
 94 02 15 01 57 30.0000000  0  8 02 04 07 09 12 13 19 27
 -22438149.87049 -17484238.40948         0.00041  21232276.03748  21232275.65449
  -8973800.30348  -6992551.82446         0.00041  23524091.57346  23524091.43848
 -25868193.18049 -20156999.21348         0.00041  20426500.97248  20426500.62149
  -8300829.32948  -6468169.23546         0.00041  23771195.29646  23771194.70948
  -2497441.48208  -1946055.12507  24851853.43208  24851856.42307         0.00001
 -19899351.37408 -15505951.61808  21585703.08608  21585704.29308         0.00001
   8754001.82448   6821311.30943         0.00041  25389046.21043  25389047.02048
 -14176657.97848 -11046721.68646         0.00041  22860407.87446  22860407.31748
 94 02 15 01 58 00.0000000  0  8 02 04 07 09 12 13 19 27
 -22412463.64649 -17464223.14648         0.00041  21237164.16248  21237163.45049
  -9073966.79548  -7070603.53646         0.00041  23505031.89146  23505030.35748
 -25846325.72949 -20139959.62648         0.00041  20430662.02348  20430661.76249
  -8397340.58848  -6543372.74646         0.00041  23752830.71846  23752829.38648
  -2587541.61408  -2016262.87407  24834707.81208  24834710.77207         0.00001
 -19978983.56608 -15568002.60608  21570549.56008  21570550.74408         0.00001
   8858803.13348   6902974.77243         0.00041  25408996.07443  25408989.88248
 -14075732.90248 -10968078.77746         0.00041  22879613.04546  22879612.71248
 94 02 15 01 58 30.0000000  0  8 02 04 07 09 12 13 19 27
 -22386610.55449 -17444077.85948         0.00041  21242083.53348  21242083.14049
  -9174061.66948  -7148599.45746         0.00041  23485984.71646  23485982.86048
 -25824020.01349 -20122578.53348         0.00041  20434906.71948  20434906.41549
  -8493755.27948  -6618501.03546         0.00041  23734484.00346  23734482.11248
  -2677685.43308  -2086504.66607  24817553.91108  24817556.95107         0.00001
 -20058143.10708 -15629685.29808  21555485.94408  21555487.11208         0.00001
   8963674.30448   6984692.61743         0.00041  25428945.22543  25428946.23048
 -13974528.38648 -10889218.12646         0.00041  22898871.82146  22898871.32248
 94 02 15 01 59 00.0000000  0  8 02 04 07 09 12 13 19 27
 -22360586.51349 -17423799.36248         0.00041  21247035.97748  21247035.43949
  -9274070.41048  -7226528.24446         0.00041  23466953.80546  23466951.81048
 -25801283.86249 -20104862.03748         0.00041  20439233.07248  20439232.81349
  -8590092.16248  -6693568.67346         0.00041  23716151.09246  23716149.73548
  -2767874.63908  -2156781.83307  24800391.27508  24800394.20507         0.00001
 -20136831.04408 -15691000.50708  21540512.05608  21540513.22908         0.00001
   9068599.84248   7066452.89943         0.00041  25448908.47643  25448912.63048
 -13873053.20248 -10810146.55546         0.00041  22918181.86646  22918181.56948
 94 02 15 01 59 30.0000000  0  8 02 04 07 09 12 13 19 27
 -22334391.75049 -17403387.83648         0.00041  21252020.48248  21252020.05149
  -9373976.22548  -7304376.84846         0.00041  23447940.64146  23447940.22848
 -25778122.32249 -20086814.07148         0.00041  20443640.43548  20443640.19149
  -8686349.09348  -6768574.01246         0.00041  23697833.52246  23697832.58448
  -2858111.19508  -2227095.91407  24783219.89208  24783222.74407         0.00001
 -20215048.47908 -15751949.09308  21525627.72908  21525628.90108         0.00001
   9173562.68648   7148242.25643         0.00041  25468877.58143  25468886.24948
 -13771316.30248 -10730871.05546         0.00041  22937542.31446  22937541.41848
 94 02 15 02 00 00.0000000  0  8 02 04 07 09 12 13 19 27
 -22308017.24249 -17382836.24348         0.00041  21257039.30948  21257038.98449
  -9473759.23448  -7382129.76946         0.00041  23428952.97746  23428952.09148
 -25754523.16049 -20068425.09948         0.00041  20448131.26048  20448131.00449
  -8782491.05148  -6843489.77746         0.00041  23679538.68946  23679537.60148
  -2948381.04008  -2297435.95407  24766041.95008  24766044.86907         0.00001
 -20292780.76708 -15812519.64408  21510835.71208  21510836.79708         0.00001
   9278579.02848   7230073.22243         0.00041  25488871.95843  25488870.35648
 -13669293.86748 -10651373.06246         0.00041  22956956.38346  22956955.51148
 94 02 15 02 00 30.0000000  0  8 02 04 07 09 12 13 19 27
 -22281454.15649 -17362137.71348         0.00041  21262094.13748  21262093.79649
  -9573423.61248  -7459790.21546         0.00041  23409988.43146  23409986.66748
 -25730496.06749 -20049702.67848         0.00041  20452703.56248  20452703.24449
  -8878499.32848  -6918301.38446         0.00041  23661268.30246  23661267.73148
  -3038682.65608  -2367800.76907  24748858.06908  24748860.89707         0.00001
 -20370025.74908 -15872710.47508  21496136.41808  21496137.53008         0.00001
   9383655.66847   7311951.17643         0.00041  25508860.66643  25508865.62147
 -13566990.00148 -10571655.76246         0.00041  22976423.47246  22976423.47248
 94 02 15 02 01 00.0000000  0  8 02 04 07 09 12 13 19 27
 -22254709.07449 -17341297.36348         0.00041  21267183.59348  21267183.17349
  -9672979.25048  -7537365.93846         0.00041  23391042.95846  23391041.84248
 -25706041.61349 -20030647.24848         0.00041  20457357.02048  20457356.69349
  -8974355.15548  -6992994.17846         0.00041  23643027.99746  23643026.91548
  -3129023.64808  -2438196.28007  24731666.85308  24731669.55907         0.00001
 -20446790.07508 -15932526.77408  21481528.61008  21481529.70708         0.00001
   9488789.37347   7393873.53243         0.00041  25528873.54943  25528871.69947
 -13464425.33348 -10491735.24146         0.00041  22995941.82246  22995940.72648
 94 02 15 02 01 30.0000000  0  8 02 04 07 09 12 13 19 27
 -22227794.04149 -17320324.58848         0.00041  21272305.44748  21272304.86949
  -9772433.77248  -7614862.85546         0.00041  23372115.81946  23372116.01648
 -25681171.66849 -20011268.05948         0.00041  20462089.56548  20462089.39049
  -9070051.82948  -7067562.95346         0.00041  23624817.25346  23624816.41948
  -3219412.39708  -2508629.02207  24714466.27208  24714468.99707         0.00001
 -20523081.81008 -15991974.81808  21467010.72808  21467011.83108         0.00001
   9593985.12347   7475844.34042         0.00041  25548887.43942  25548889.68147
 -13361609.99648 -10411619.40146         0.00041  23015506.18246  23015505.82748
 94 02 15 02 02 00.0000000  0  8 02 04 07 09 12 13 19 27
 -22200690.13249 -17299204.63648         0.00041  21277462.85848  21277462.41749
  -9871774.50348  -7692271.07046         0.00041  23353212.32046  23353212.01848
 -25655874.45649 -19991555.93648         0.00041  20466903.53848  20466903.33149
  -9165587.15348  -7142006.01646         0.00041  23606637.94846  23606636.41348
  -3309833.21108  -2579086.75807  24697259.63708  24697262.54307         0.00001
 -20598884.57408 -16051041.84908  21452585.92008  21452586.99608         0.00001
   9699271.62947   7557885.79543         0.00041  25568925.71143  25568924.86047
 -13258538.87848 -10331304.23246         0.00041  23035120.27246  23035119.65448
 94 02 15 02 02 30.0000000  0  8 02 04 07 09 12 13 19 27
 -22173411.16349 -17277948.27548         0.00041  21282653.96248  21282653.58749
  -9971012.87748  -7769599.53346         0.00041  23334327.88346  23334327.59648
 -25630158.69149 -19971517.66648         0.00041  20471797.11648  20471796.86149
  -9261008.14948  -7216359.95846         0.00041  23588478.68046  23588478.64748
  -3400301.27608  -2649581.31707  24680044.12908  24680046.95507         0.00001
 -20674213.18608 -16109739.41108  21438251.30908  21438252.35508         0.00001
   9804740.33747   7640068.97443         0.00041  25588981.44243  25588977.09147
 -13155239.71448 -10250811.37346         0.00041  23054777.91146  23054776.78748
 94 02 15 02 03 00.0000000  0  8 02 04 07 09 12 13 19 27
 -22145954.07149 -17256553.11448         0.00041  21287878.84648  21287878.43549
 -10070130.48948  -7846833.87746         0.00041  23315467.66846  23315466.05548
 -25604027.83449 -19951155.94948         0.00041  20476769.59548  20476769.28049
  -9356319.25148  -7290628.29346         0.00041  23570342.69846  23570341.54548
  -3490806.13708  -2720104.55007  24662821.66208  24662824.39607         0.00001
 -20749056.55608 -16168058.86408  21424008.99908  21424010.04508         0.00001
   9910193.83147   7722240.61943         0.00041  25609033.28643  25609042.66947
 -13051703.52748 -10170133.81946         0.00041  23074479.70946  23074479.18548
 94 02 15 02 03 30.0000000  0  8 02 04 07 09 12 13 19 27
 -22118338.77949 -17235034.68248         0.00041  21293133.88648  21293133.42949
 -10169142.91648  -7923986.26546         0.00041  23296625.02146  23296624.69048
 -25577512.34449 -19930494.51648         0.00041  20481815.36648  20481815.09849
  -9451554.72148  -7364837.68446         0.00041  23552220.39246  23552218.82148
  -3581358.25108  -2790664.59907  24645590.13508  24645592.97707         0.00001
 -20823424.62708 -16226007.95508  21409857.20908  21409858.28708         0.00001
  10015714.63347   7804464.60442         0.00041  25629126.30642  25629122.28247
 -12947941.86448 -10089280.57046         0.00041  23094224.75746  23094224.38248
 94 02 15 02 04 00.0000000  0  8 02 04 07 09 12 13 19 27
 -22090560.81749 -17213389.49748         0.00041  21298419.78148  21298419.41549
 -10268045.01248  -8001052.67546         0.00041  23277803.74046  23277804.13748
 -25550612.28749 -19909533.41848         0.00041  20486934.22348  20486933.98549
  -9546706.55948  -7438981.92046         0.00041  23534113.45746  23534111.98548
  -3671952.12808  -2861257.17407  24628350.70408  24628353.50307         0.00001
 -20897311.47608 -16283582.06708  21395796.97608  21395797.97608         0.00001
  10121295.71147   7886735.47543         0.00041  25649211.23543  25649213.98347
 -12843956.07348 -10008252.67946         0.00041  23114012.56446  23114012.11948
 94 02 15 02 04 30.0000000  0  8 02 04 07 09 12 13 19 27
 -22062583.20849 -17191588.74248         0.00041  21303743.69148  21303743.27949
 -10366796.95648  -8078002.07546         0.00041  23259012.46246  23259011.95348
 -25523309.79849 -19888258.73748         0.00041  20492129.72948  20492129.44149
  -9641728.13248  -7513024.63546         0.00041  23516030.24746  23516029.85048
  -3762560.77408  -2931861.23807  24611108.36108  24611111.18007         0.00001
 -20970689.65308 -16340759.81408  21381833.51708  21381834.50308         0.00001
  10226960.59547   7969071.86642         0.00041  25669329.29742  25669321.36447
 -12739714.43048  -9927025.41346         0.00041  23133849.89846  23133848.65748
 94 02 15 02 05 00.0000000  0  8 02 04 07 09 12 13 19 27
 -22034415.19749 -17169639.62148         0.00041  21309103.70748  21309103.49349
 -10465427.40848  -8154856.83446         0.00041  23240243.24146  23240243.05448
 -25495640.92949 -19866698.56548         0.00041  20497394.82648  20497394.67949
  -9736613.32348  -7586961.09146         0.00041  23497974.44846  23497973.69248
  -3853205.12708  -3002493.09607  24593859.28308  24593861.94307         0.00001
 -21043579.76508 -16397557.25308  21367962.95408  21367963.93608         0.00001
  10332670.46147   8051443.26242         0.00041  25689441.96142  25689437.05547
 -12635239.16548  -9845616.11746         0.00041  23153729.31246  23153729.70148
 94 02 15 02 05 30.0000000  0  8 02 04 07 09 12 13 19 27
 -22006047.79949 -17147535.13548         0.00041  21314502.09948  21314501.64749
 -10563944.94648  -8231623.61046         0.00041  23221495.92546  23221495.52348
 -25467598.57549 -19844847.36648         0.00041  20502731.07348  20502730.87649
  -9831348.96248  -7660781.00146         0.00041  23479946.44846  23479945.99748
  -3943887.64408  -3073154.66407  24576602.97208  24576605.58807         0.00001
 -21115983.96708 -16453976.06108  21354184.86908  21354185.83208         0.00001
  10438418.71147   8133844.17042         0.00041  25709556.26642  25709560.24047
 -12530535.94348  -9764029.19346         0.00041  23173655.02046  23173654.24248
 94 02 15 02 06 00.0000000  0  7 02 04 07 09 12 13 27
 -21977456.86349 -17125256.42047         0.00041  21319942.68947  21319942.29149
 -10662335.21348  -8308291.22846         0.00041  23202772.72846  23202772.45748
 -25439162.30249 -19822689.22848         0.00041  20508142.33048  20508142.21949
  -9925906.35248  -7734462.02746         0.00041  23461953.57746  23461952.26348
  -4034597.96908  -3143837.88107  24559341.20308  24559343.71807         0.00001
 -21187891.63508 -16510007.96108  21340501.22208  21340502.13708         0.00001
 -12425590.21648  -9682253.29346         0.00041  23193625.32846  23193624.69248
 94 02 15 02 06 30.0000000  0  7 02 04 07 09 12 13 27
 -21948689.61349 -17102840.41748         0.00041  21325416.97248  21325416.49049
 -10760653.50148  -8384902.75246         0.00041  23184062.85146  23184062.98248
 -25410367.93549 -19800252.02848         0.00041  20513621.87148  20513621.54649
 -10020338.69748  -7808045.61546         0.00041  23443983.86646  23443982.36648
  -4125379.58108  -3214576.63707  24542065.81808  24542068.41807         0.00001
 -21259345.71408 -16565686.41708  21326903.92808  21326904.88608         0.00001
 -12320446.83448  -9600323.38946         0.00041  23213633.47046  23213632.68848
 94 02 15 02 07 00.0000000  0  8 02 04 07 09 12 13 26 27
 -21919731.44049 -17080275.59148         0.00041  21330927.59948  21330927.14949
 -10858869.31448  -8461434.43346         0.00041  23165374.71646  23165373.10148
 -25381160.80849 -19777493.21148         0.00041  20519179.78248  20519179.48949
 -10114599.03448  -7881495.16846         0.00041  23426045.67746  23426045.03748
  -4216184.29508  -3285333.39107  24524786.23608  24524788.72107         0.00001
 -21330297.62408 -16620973.57008  21313402.19108  21313403.12408         0.00001
        -0.57158        -0.39856         0.00051  22728847.72656  22728847.50458
 -12215071.09348  -9518212.42846         0.00041  23233685.61246  23233685.02448
 94 02 15 02 07 30.0000000  0  8 02 04 07 09 12 13 26 27
 -21890583.70449 -17057563.05648         0.00041  21336473.98248  21336473.66649
 -10956952.36648  -8537862.66546         0.00041  23146709.12046  23146708.42048
 -25351515.82649 -19754393.20548         0.00041  20524820.94648  20524820.73449
 -10208677.03148  -7954802.64446         0.00041  23408143.40846  23408142.54748
  -4306993.42708  -3356093.59807  24507505.69208  24507508.15907         0.00001
 -21400728.91308 -16675855.04608  21299999.51808  21300000.45808         0.00001
     42188.74048     32874.39146         0.00041  22736876.69146  22736875.91748
 -12109450.70948  -9435910.83446         0.00041  23253785.35446  23253784.15148
 94 02 15 02 08 00.0000000  0  8 02 04 07 09 12 13 26 27
 -21861279.34249 -17034728.47248         0.00041  21342050.48648  21342050.21649
 -11054921.34048  -8614202.01546         0.00041  23128064.64746  23128065.47948
 -25321459.74049 -19730972.86048         0.00041  20530540.37948  20530540.19949
 -10302601.73148  -8027990.68746         0.00041  23390269.99446  23390269.10648
  -4397828.81708  -3426874.27107  24490220.16808  24490222.61307         0.00001
 -21470660.67808 -16730347.28408  21286691.90708  21286692.82108         0.00001
     84771.32648     66055.62146         0.00041  22744979.26646  22744979.03548
 -12003624.46748  -9353448.83046         0.00041  23273922.30046  23273922.12248
 94 02 15 02 08 30.0000000  0  8 02 04 07 09 12 13 26 27
 -21831792.12749 -17011751.40648         0.00041  21347661.67848  21347661.36249
 -11152735.37348  -8690420.62046         0.00041  23109452.30146  23109452.06648
 -25290969.75749 -19707214.41248         0.00041  20536342.34548  20536342.22449
 -10396352.33648  -8101043.04346         0.00041  23372429.54246  23372428.87848
  -4488655.78608  -3497648.38308  24472936.27708  24472938.58408         0.00001
 -21540058.43108 -16784423.40908  21273485.93708  21273486.83808         0.00001
    127795.88048     99581.24346         0.00041  22753167.11846  22753166.36948
 -11897581.69648  -9270818.08446         0.00041  23294102.08646  23294101.32848
 94 02 15 02 09 00.0000000  0  8 02 04 07 09 12 13 26 27
 -21802131.81749 -16988639.45848         0.00041  21353305.84248  21353305.60249
 -11250402.20148  -8766524.49946         0.00041  23090866.16046  23090866.48148
 -25260081.27749 -19683145.44848         0.00041  20542220.29048  20542220.08249
 -10489947.11548  -8173974.00046         0.00041  23354619.86646  23354618.40048
  -4579495.70808  -3568432.60108  24455649.85208  24455652.17708         0.00001
 -21608943.02208 -16838099.67208  21260377.64108  21260378.49508         0.00001
    171261.60648    133450.63346         0.00041  22761438.19346  22761437.57148
 -11791344.48348  -9188035.85846         0.00041  23314318.10946  23314317.41548
 94 02 15 02 09 30.0000000  0  7 02 04 07 09 12 13 27
 -21772260.92749 -16965363.42348         0.00041  21358990.01048  21358989.72649
 -11347913.58048  -8842507.26246         0.00041  23072310.61046  23072310.59248
 -25228802.65049 -19658772.47748         0.00041  20548172.27848  20548172.12949
 -10583387.43948  -8246784.60346         0.00041  23336838.03446  23336837.23848
  -4670345.07408  -3639224.19108  24438361.78908  24438363.97008         0.00001
 -21677310.99908 -16891373.37808  21247367.61308  21247368.47608         0.00001
 -11684895.03548  -9105088.23046         0.00041  23334574.50946  23334574.20848
 94 02 15 02 10 00.0000000  0  7 02 04 07 09 12 13 27
 -21742188.06249 -16941930.00547         0.00041  21364712.71447  21364712.43849
 -11445283.01848  -8918379.42346         0.00041  23053781.89546  23053781.49848
 -25197147.93349 -19634106.44848         0.00041  20554196.09248  20554195.77949
 -10676685.80648  -8319484.58046         0.00041  23319083.35646  23319083.33848
  -4761214.40708  -3710031.34908  24421069.84308  24421072.18108         0.00001
 -21745172.76508 -16944252.63508  21234453.88808  21234454.75308         0.00001
 -11578234.34148  -9021975.99646         0.00041  23354871.30846  23354871.03848
 94 02 15 02 10 30.0000000  0  7 02 04 07 09 12 13 27
 -21711894.42249 -16918324.55347         0.00041  21370477.32047  21370477.11249
 -11542481.68848  -8994118.50846         0.00041  23035285.37246  23035285.06348
 -25165106.36249 -19609138.97348         0.00041  20560293.41548  20560293.17849
 -10769822.76248  -8392058.77746         0.00041  23301359.70046  23301359.85948
  -4852087.30108  -3780841.30208  24403777.19308  24403779.41708         0.00001
 -21812511.82008 -16996724.58708  21221639.68608  21221640.51608         0.00001
 -11471321.92848  -8938667.64046         0.00041  23375215.64646  23375215.87948
 94 02 15 02 11 00.0000000  0  7 02 04 07 09 12 13 27
 -21681381.69249 -16894548.38447         0.00041  21376283.55547  21376283.27949
 -11639513.71448  -9069727.73046         0.00041  23016820.23946  23016820.55648
 -25132674.29849 -19583867.22348         0.00041  20566464.99848  20566464.84949
 -10862764.73048  -8464481.04046         0.00041  23283673.92046  23283673.57348
  -4942960.05908  -3851651.16308  24386484.66408  24386486.87508         0.00001
 -21879324.85108 -17048786.65108  21208925.57008  21208926.40308         0.00001
 -11364131.94348  -8855142.97046         0.00041  23395613.44746  23395613.61748
 94 02 15 02 11 30.0000000  0  7 02 04 07 09 12 13 27
 -21650684.05649 -16870628.12847         0.00041  21382125.20147  21382124.99449
 -11736388.70448  -9145214.59346         0.00041  22998385.98546  22998385.68848
 -25099869.17049 -19558304.77348         0.00041  20572707.54648  20572707.43649
 -10955518.39148  -8536756.57246         0.00041  23266023.96146  23266023.11748
  -5033847.43208  -3922472.42408  24369189.33408  24369191.49508         0.00001
 -21945626.28008 -17100450.06408  21196308.76508  21196309.63608         0.00001
 -11256681.29048  -8771415.18146         0.00041  23416061.29046  23416060.74848
 94 02 15 02 12 00.0000000  0  7 02 04 07 09 12 13 27
 -21620055.29349 -16846761.54047         0.00041  21387953.66147  21387953.37249
 -11833326.82548  -9220750.65146         0.00041  22979939.41946  22979938.96248
 -25066928.66449 -19532636.83348         0.00041  20578975.90848  20578975.73549
 -11048318.60748  -8609068.36746         0.00041  23248365.47546  23248363.86048
  -5124987.36208  -3993490.49808  24351845.86508  24351848.14408         0.00001
 -22011654.12208 -17151900.29208  21183744.08008  21183744.92208         0.00001
 -11149227.60948  -8687685.03946         0.00041  23436509.21846  23436508.31248
 94 02 15 02 12 30.0000000  0  7 02 04 07 09 12 13 27
 -21589569.53949 -16823006.38647         0.00041  21393754.94147  21393754.64049
 -11930403.79948  -9296394.89446         0.00041  22961465.73146  22961465.89148
 -25033941.94749 -19506932.88548         0.00041  20585253.12648  20585252.93049
 -11141229.24648  -8681466.22446         0.00041  23230683.74646  23230683.65148
  -5216456.09008  -4064764.78808  24334439.91408  24334442.16808         0.00001
 -22077484.69108 -17203196.80508  21171216.89708  21171217.76408         0.00001
 -11041870.76148  -8604030.35646         0.00041  23456938.01246  23456937.68448
 94 02 15 02 13 00.0000000  0  8 02 04 07 09 12 13 24 27
 -21558329.13549 -16798663.19747         0.00041  21399699.80647  21399699.43949
 -12026727.27848  -9371452.02946         0.00041  22943135.85146  22943136.00948
 -25000008.08549 -19480490.89948         0.00041  20591710.38048  20591710.19149
 -11233352.62848  -8753250.62946         0.00041  23213153.96246  23213153.02248
  -5307352.87408  -4135593.41608  24317142.76408  24317145.02108         0.00001
 -22142217.35908 -17253637.80908  21158898.65908  21158899.49408         0.00001
        -0.76158         0.21553         0.00051  25159855.30653  25159852.06858
 -10933738.52248  -8519771.46146         0.00041  23477514.37946  23477514.70048
 94 02 15 02 13 30.0000000  0  8 02 04 07 09 12 13 24 27
 -21526850.07349 -16774134.04047         0.00041  21405690.19747  21405689.87649
 -12122802.54948  -9446315.75346         0.00041  22924852.99446  22924853.34548
 -24965644.87449 -19453714.35448         0.00041  20598249.35648  20598249.19749
 -11325246.51348  -8824856.20346         0.00041  23195666.95746  23195666.27348
  -5398199.93408  -4206383.30608  24299855.05808  24299857.28608         0.00001
 -22206374.24708 -17303630.15608  21146689.98008  21146690.82008         0.00001
   -105155.98148    -81938.69344         0.00041  25139846.89844  25139841.49448
 -10825377.62648  -8435334.38846         0.00041  23498135.56746  23498134.97648
 94 02 15 02 14 00.0000000  0  8 02 04 07 09 12 13 24 27
 -21495194.33949 -16749467.21347         0.00041  21411713.87247  21411713.64149
 -12218700.48548  -9521041.29946         0.00041  22906604.58446  22906604.47848
 -24930922.16449 -19426657.68048         0.00041  20604856.95648  20604856.78249
 -11416997.55248  -8896350.47346         0.00041  23178207.33446  23178206.71648
  -5489071.79408  -4277192.52408  24282562.73708  24282565.07808         0.00001
 -22270030.51908 -17353232.41208  21134576.57308  21134577.37008         0.00001
   -210415.98148   -163959.26944         0.00041  25119813.17744  25119811.30848
 -10716873.68548  -8350785.86746         0.00041  23518782.45946  23518782.32448
 94 02 15 02 14 30.0000000  0  8 02 04 07 09 12 13 24 27
 -21463360.91449 -16724661.93347         0.00041  21417771.54047  21417771.30749
 -12314440.57648  -9595643.86046         0.00041  22888385.44846  22888385.59048
 -24895847.70049 -19399326.91048         0.00041  20611531.36448  20611531.17649
 -11508615.16548  -8967740.78346         0.00041  23160772.55746  23160772.31448
  -5579975.32008  -4348026.42608  24265264.36708  24265266.60008         0.00001
 -22333192.95608 -17402449.86408  21122557.10608  21122557.93508         0.00001
   -315800.12448   -246076.56944         0.00041  25099760.92744  25099757.10348
 -10608225.31548  -8266124.79546         0.00041  23539458.50546  23539457.44748
 94 02 15 02 15 00.0000000  0  8 02 04 07 09 12 13 24 27
 -21431325.69249 -16699699.40647         0.00041  21423867.73947  21423867.33249
 -12410003.17248  -9670108.11046         0.00041  22870200.56846  22870200.54648
 -24860407.96949 -19371711.51748         0.00041  20618275.15948  20618275.07049
 -11600085.43748  -9039016.27146         0.00041  23143366.80446  23143366.01448
  -5670897.74808  -4418875.06008  24247962.42608  24247964.65408         0.00001
 -22395849.17208 -17451272.85708  21110634.01808  21110634.81408         0.00001
   -421307.69748   -328290.05544         0.00041  25079684.80744  25079679.59648
 -10499405.73148  -8181330.31546         0.00041  23560165.87546  23560164.95948
 94 02 15 02 15 30.0000000  0  8 02 04 07 09 12 13 24 27
 -21399084.74649 -16674576.57947         0.00041  21430002.93947  21430002.57749
 -12505381.13848  -9744428.51946         0.00041  22852050.68446  22852050.70048
 -24824613.01949 -19343819.32848         0.00041  20625086.88848  20625086.73849
 -11691398.79248  -9110169.48646         0.00041  23125989.45046  23125989.46748
  -5761837.77108  -4489737.40608  24230657.15708  24230659.27708         0.00001
 -22457998.18508 -17499700.62808  21098807.41208  21098808.23108         0.00001
   -526952.30948   -410610.32744         0.00041  25059578.64244  25059575.97048
 -10390408.41148  -8096397.32846         0.00041  23580907.88446  23580906.49448
 94 02 15 02 16 00.0000000  0  8 02 04 07 09 12 13 24 27
 -21366637.10549 -16649292.68347         0.00041  21436177.49347  21436177.30449
 -12600592.40548  -9818619.01946         0.00041  22833932.94846  22833932.37448
 -24788474.78649 -19315659.64448         0.00041  20631963.83948  20631963.69449
 -11782529.40648  -9181180.30146         0.00041  23108648.68746  23108647.98548
  -5852792.25808  -4560611.02208  24213349.14808  24213351.34408         0.00001
 -22519637.01808 -17547730.85708  21087077.90308  21087078.74608         0.00001
   -632731.55648   -493035.53644         0.00041  25039453.82744  25039446.77748
 -10281228.25848  -8011321.88846         0.00041  23601683.61346  23601682.76648
 94 02 15 02 16 30.0000000  0  8 02 04 07 09 12 13 24 27
 -21333984.38049 -16623848.99247         0.00041  21442391.15247  21442390.80049
 -12695650.28148  -9892690.01946         0.00041  22815843.82846  22815843.46148
 -24752001.41049 -19287238.81048         0.00041  20638904.54748  20638904.22949
 -11873466.88548  -9252040.63646         0.00041  23091342.83846  23091343.06348
  -5943759.63108  -4631494.67808  24196038.45508  24196040.64508         0.00001
 -22580764.40608 -17595362.55608  21075445.72208  21075446.56308         0.00001
   -738622.31348   -575547.62044         0.00041  25019299.37044  25019296.16748
 -10171866.54148  -7926104.93446         0.00041  23622494.59946  23622493.63748
 94 02 15 02 17 00.0000000  0  8 02 04 07 09 12 13 24 27
 -21301132.19449 -16598249.87247         0.00041  21448642.51947  21448642.36649
 -12790534.21448  -9966625.46846         0.00041  22797788.09246  22797787.59548
 -24715187.16449 -19258552.36348         0.00041  20645909.88848  20645909.75249
 -11964206.19448  -9322746.54046         0.00041  23074076.48946  23074075.86748
  -6034724.43408  -4702376.32208  24178728.50508  24178730.66208         0.00001
 -22641365.40108 -17642584.07908  21063913.71208  21063914.54908         0.00001
   -844586.60348   -658117.04944         0.00041  24999137.70644  24999131.65648
 -10062325.00548  -7840747.89245         0.00041  23643340.44045  23643338.90648
 94 02 15 02 17 30.0000000  0  8 02 04 07 09 12 13 24 27
 -21268096.32049 -16572507.62447         0.00041  21454929.04047  21454928.80949
 -12885255.23148 -10040433.98846         0.00041  22779762.93346  22779762.71548
 -24678031.67949 -19229600.01448         0.00041  20652980.27148  20652980.07749
 -12054768.24648  -9393314.33346         0.00041  23056842.38046  23056842.48348
  -6125685.37208  -4773254.94608  24161419.18208  24161421.40108         0.00001
 -22701439.03808 -17689394.67608  21052482.02708  21052482.87208         0.00001
   -950609.53848   -740732.17245         0.00041  24978961.27545  24978956.06148
  -9952608.91848  -7755254.83046         0.00041  23664218.19446  23664217.18548
 94 02 15 02 18 00.0000000  0  8 02 04 07 09 12 13 24 27
 -21234883.91149 -16546627.81047         0.00041  21461249.30047  21461249.06149
 -12979808.59548 -10114111.87946         0.00041  22761769.86546  22761769.68848
 -24640522.23349 -19200371.85148         0.00041  20660118.07648  20660117.82549
 -12145153.65348  -9463744.47746         0.00041  23039643.21546  23039642.73548
  -6216639.88908  -4844128.56108  24144111.16508  24144113.33008         0.00001
 -22760983.26908 -17735792.74908  21041151.13308  21041151.93708         0.00001
  -1056686.32348   -823389.27545         0.00041  24958773.30645  24958770.10848
  -9842710.09548  -7669619.38446         0.00041  23685130.83946  23685130.14448
 94 02 15 02 18 30.0000000  0  8 02 04 07 09 12 13 24 27
 -21201495.88449 -16520611.15647         0.00041  21467602.79147  21467602.50849
 -13074159.67448 -10187632.14746         0.00041  22743815.93146  22743815.41648
 -24602651.23149 -19170861.95748         0.00041  20667324.77348  20667324.53249
 -12235351.86648  -9534028.74846         0.00041  23022478.97046  23022478.61548
  -6307581.10608  -4914991.80008  24126805.55608  24126807.78808         0.00001
 -22819991.66508 -17781773.28808  21029922.15608  21029923.00908         0.00001
  -1162808.47848   -906081.78345         0.00041  24938579.78145  24938575.84748
  -9732615.34948  -7583831.24745         0.00041  23706079.54345  23706080.26748
 94 02 15 02 19 00.0000000  0  8 02 04 07 09 12 13 24 27
 -21167944.93749 -16494467.55347         0.00041  21473987.20947  21473987.00649
 -13168303.51948 -10260990.92446         0.00041  22725900.23746  22725900.31948
 -24564420.98449 -19141072.13648         0.00041  20674599.74048  20674599.63449
 -12325359.93948  -9604164.86446         0.00041  23005350.94746  23005350.60548
  -6398514.81808  -4985849.17408  24109501.32808  24109503.43908         0.00001
 -22878470.51508 -17827341.19308  21018793.99608  21018794.82708         0.00001
  -1269005.95648   -988832.96745         0.00041  24918369.02645  24918366.94848
  -9622324.03648  -7497889.96745         0.00041  23727068.67445  23727068.22548
 94 02 15 02 19 30.0000000  0  8 02 04 07 09 12 13 24 27
 -21134230.41649 -16468196.48847         0.00041  21480402.97347  21480402.78549
 -13262249.81148 -10334195.78446         0.00041  22708022.95746  22708022.96748
 -24525836.39749 -19111006.20748         0.00041  20681942.14248  20681941.99649
 -12415169.06148  -9674145.95646         0.00041  22988260.73146  22988260.46048
  -6489452.60608  -5056709.71608  24092196.29308  24092198.50908         0.00001
 -22936432.08008 -17872506.02108  21007764.22908  21007765.07108         0.00001
  -1375307.48148  -1071665.23245         0.00041  24898139.42445  24898138.52448
  -9511839.91148  -7411798.43846         0.00041  23748092.42146  23748092.57148
 94 02 15 02 20 00.0000000  0  8 02 04 07 09 12 13 24 27
 -21100354.88649 -16441799.96347         0.00041  21486849.24847  21486849.08449
 -13355981.00648 -10407233.03246         0.00041  22690186.57946  22690186.45148
 -24486904.83249 -19080669.90848         0.00041  20689350.49148  20689350.39349
 -12504761.09948  -9743957.87146         0.00041  22971211.81746  22971211.65148
  -6580397.00208  -5127575.39408  24074890.11608  24074892.35808         0.00001
 -22993878.97008 -17917269.80208  20996832.40408  20996833.24508         0.00001
  -1481719.06248  -1154583.15645         0.00041  24877892.14145  24877888.90648
  -9401173.22048  -7325564.64545         0.00041  23769153.22845  23769151.56348
 94 02 15 02 20 30.0000000  0  8 02 04 07 09 12 13 24 27
 -21066292.42749 -16415257.78047         0.00041  21493330.92747  21493330.80249
 -13449482.19348 -10480091.05946         0.00041  22672393.53546  22672393.77748
 -24447629.33749 -19050065.61248         0.00041  20696824.32348  20696824.21149
 -12594116.64748  -9813585.52446         0.00041  22954207.97246  22954207.80348
  -6671329.58008  -5198431.85608  24057586.15508  24057588.27508         0.00001
 -23050793.63808 -17961618.86308  20986001.92208  20986002.67608         0.00001
  -1588216.07848  -1237567.60545         0.00041  24857623.69645  24857623.04948
  -9290325.62448  -7239189.90545         0.00041  23790244.37345  23790244.98948
 94 02 15 02 21 00.0000000  0  8 02 04 07 09 12 13 24 27
 -21032043.60749 -16388570.37947         0.00041  21499848.15647  21499848.14449
 -13542769.82948 -10552782.68746         0.00041  22654641.53546  22654641.63848
 -24408020.06449 -19019201.23348         0.00041  20704361.55848  20704361.44249
 -12683255.58148  -9883044.37546         0.00041  22937244.88546  22937245.16148
  -6762253.01408  -5269281.19108  24040284.01108  24040286.08808         0.00001
 -23107179.56408 -18005555.91608  20975272.00408  20975272.74508         0.00001
  -1694807.36648  -1320625.45745         0.00041  24837339.48745  24837339.12448
  -9179317.91148  -7152690.38346         0.00041  23811370.85446  23811369.04548
 94 02 15 02 21 30.0000000  0  8 02 04 07 09 12 13 24 27
 -20997597.29049 -16361729.08247         0.00041  21506403.41347  21506403.22349
 -13635829.02348 -10625296.31446         0.00041  22636933.12246  22636933.11348
 -24368085.91249 -18988083.70248         0.00041  20711960.69748  20711960.66349
 -12772178.96848  -9952335.26446         0.00041  22920323.86946  22920323.49748
  -6853160.27408  -5340117.92608  24022984.91708  24022986.81108         0.00001
 -23163030.31409 -18049075.95008  20964643.92109  20964644.69308         0.00001
  -1801462.52348  -1403733.00545         0.00041  24817046.63045  24817043.02148
  -9068162.60048  -7066075.85245         0.00041  23832521.73245  23832521.42048
 94 02 15 02 22 00.0000000  0  8 02 04 07 09 12 13 24 27
 -20962943.85749 -16334726.39847         0.00041  21512997.82747  21512997.52149
 -13728648.14848 -10697622.86746         0.00041  22619269.67746  22619270.23148
 -24327830.71749 -18956716.00948         0.00041  20719621.25548  20719621.09149
 -12860880.60648 -10021453.35646         0.00041  22903444.27846  22903444.17648
  -6944039.63908  -5410932.93008  24005691.09908  24005693.05108         0.00001
 -23218334.63109 -18092170.19208  20954119.82909  20954120.61708         0.00001
  -1908172.81348  -1486883.55545         0.00041  24796738.96145  24796736.24048
  -8956860.83148  -6979347.18645         0.00041  23853702.98645  23853701.54248
 94 02 15 02 22 30.0000000  0  8 02 04 07 09 12 13 24 27
 -20928084.02149 -16307562.87547         0.00041  21519631.04647  21519631.04449
 -13821248.13548 -10769778.67846         0.00041  22601648.51446  22601648.95748
 -24287267.56749 -18925108.35648         0.00041  20727340.07948  20727340.02549
 -12949376.41548 -10090411.06346         0.00041  22886604.30046  22886603.91548
  -7034903.35908  -5481735.74808  23988400.23208  23988402.14008         0.00001
 -23273105.97309 -18134849.12508  20943697.17009  20943697.91608         0.00001
  -2014951.42448  -1570087.28945         0.00041  24776419.16745  24776416.97448
  -8845434.53848  -6892521.49146         0.00041  23874906.12946  23874905.36348
 94 02 15 02 23 00.0000000  0  8 02 04 07 09 12 13 24 27
 -20893012.67149 -16280234.54247         0.00041  21526305.22447  21526304.81649
 -13913617.29748 -10841754.61446         0.00041  22584071.99346  22584071.59048
 -24246365.95749 -18893236.96948         0.00041  20735123.38048  20735123.27449
 -13037652.41048 -10159197.49046         0.00041  22869805.64646  22869805.44148
  -7125741.62008  -5552518.73608  23971114.18008  23971116.11808         0.00001
 -23327335.05109 -18177105.51708  20933377.68509  20933378.44708         0.00001
  -2121785.53248  -1653334.32745         0.00041  24756088.54845  24756086.64348
  -8733862.76048  -6805582.43745         0.00041  23896136.20645  23896136.72248
 94 02 15 02 23 30.0000000  0  8 02 04 07 09 12 13 24 27
 -20857714.68249 -16252729.60647         0.00041  21533022.06647  21533021.87549
 -14005728.17848 -10913529.29646         0.00041  22566543.27046  22566543.50048
 -24205096.23549 -18861078.74348         0.00041  20742976.80048  20742976.69149
 -13125681.26348 -10227791.33846         0.00041  22853054.07046  22853054.00848
  -7216534.39608  -5623266.28708  23953836.83908  23953838.79408         0.00001
 -23381002.35809 -18218924.16408  20923165.13909  20923165.82808         0.00001
  -2228653.10548  -1736607.43345         0.00041  24735754.16545  24735750.16148
  -8622120.81648  -6718510.78646         0.00041  23917399.39546  23917400.62048
 94 02 15 02 24 00.0000000  0  8 02 04 07 09 12 13 24 27
 -20822209.15949 -16225062.95447         0.00041  21539778.56447  21539778.32949
 -14097609.77248 -10985125.31546         0.00041  22549058.82546  22549058.91048
 -24163465.45349 -18828639.17048         0.00041  20750898.94548  20750898.80049
 -13213487.52048 -10296211.73046         0.00041  22836345.12346  22836344.84348
  -7307303.44808  -5693995.36108  23936564.00808  23936565.88508         0.00001
 -23434131.02209 -18260323.08808  20913055.08209  20913055.76108         0.00001
  -2335592.55748  -1819936.54845         0.00041  24715403.74845  24715400.06048
  -8510220.16848  -6631315.46945         0.00041  23938695.10745  23938694.52548
 94 02 15 02 24 30.0000000  0  8 02 04 07 09 12 13 24 27
 -20786510.79649 -16197246.03747         0.00041  21546571.89147  21546571.53349
 -14189270.54548 -11056549.25946         0.00041  22531615.88746  22531616.52648
 -24121480.39749 -18795923.54248         0.00041  20758888.27348  20758888.16449
 -13301083.90548 -10364468.58746         0.00041  22819676.40046  22819675.87048
  -7398061.53408  -5764715.89708  23919293.32108  23919295.13508         0.00001
 -23486734.36109 -18301312.66808  20903044.96709  20903045.64708         0.00001
  -2442605.49048  -1903322.94745         0.00041  24695038.49345  24695035.87048
  -8398172.74748  -6544005.77445         0.00041  23960017.22545  23960016.20648
 94 02 15 02 25 00.0000000  0  8 02 04 07 09 12 13 24 27
 -20750599.49649 -16169263.19647         0.00041  21553405.72347  21553405.25049
 -14280679.69148 -11127777.13246         0.00041  22514221.53846  22514221.89848
 -24079116.21249 -18762912.48948         0.00041  20766950.08948  20766949.92649
 -13388443.06748 -10432540.59846         0.00041  22803052.71546  22803051.97048
  -7488773.92308  -5835400.83108  23902031.19608  23902033.16008         0.00001
 -23538778.59909 -18341866.58408  20893141.23609  20893141.90208         0.00001
  -2549672.95148  -1986751.88645         0.00041  24674663.59245  24674661.44748
  -8285940.03148  -6456551.69546         0.00041  23981375.14746  23981373.56848
 94 02 15 02 25 30.0000000  0  8 02 04 07 09 12 13 24 27
 -20714474.95849 -16141114.19347         0.00041  21560279.72647  21560279.49949
 -14371843.97848 -11198814.19546         0.00041  22496873.91446  22496873.92648
 -24036407.20149 -18729632.73848         0.00041  20775077.31248  20775077.07749
 -13475576.91148 -10500437.04446         0.00041  22786470.89246  22786470.83648
  -7579447.23708  -5906055.31608  23884776.64608  23884778.55608         0.00001
 -23590271.13909 -18381990.60508  20883342.50109  20883343.19608         0.00001
  -2656812.04748  -2070236.61545         0.00041  24654275.12045  24654273.39548
  -8173546.11448  -6368972.04045         0.00041  24002760.73945  24002761.68848
 94 02 15 02 26 00.0000000  0  7 02 04 07 12 13 24 27
 -20678130.99149 -16112794.20847         0.00041  21567195.65047  21567195.43649
 -14462776.06548 -11269670.32746         0.00041  22479570.18346  22479570.09548
 -23993369.17049 -18696096.60448         0.00041  20783267.24248  20783267.00949
  -7670076.77208  -5976675.69408  23867530.36808  23867532.25508         0.00001
 -23641208.67509 -18421682.15608  20873649.37809  20873650.06008         0.00001
  -2764008.05648  -2153765.77745         0.00041  24633878.89545  24633874.32148
  -8060982.42848  -6281260.07545         0.00041  24024182.51345  24024181.88548
 94 02 15 02 26 30.0000000  0  7 02 04 07 12 13 24 27
 -20641581.99249 -16084314.44847         0.00041  21574150.38547  21574150.49449
 -14553478.18448 -11340347.25446         0.00041  22462309.64746  22462309.99648
 -23950017.65949 -18662316.20248         0.00041  20791516.84048  20791516.58949
  -7760661.36808  -6047261.04908  23850292.71008  23850294.51108         0.00001
 -23691590.78209 -18460940.90608  20864061.96609  20864062.61608         0.00001
  -2871243.20348  -2237325.43445         0.00041  24613470.31445  24613468.02148
  -7948256.81448  -6193421.92945         0.00041  24045631.84645  24045632.77248
 94 02 15 02 27 00.0000000  0  7 02 04 07 12 13 24 27
 -20604812.30049 -16055662.73147         0.00041  21581147.77947  21581147.57149
 -14643937.80748 -11410835.23446         0.00041  22445096.07446  22445096.08748
 -23906361.01049 -18628298.02648         0.00041  20799824.29948  20799824.13449
  -7851187.98408  -6117801.22108  23833065.99708  23833067.83908         0.00001
 -23741405.37009 -18499757.43208  20854582.54509  20854583.21408         0.00001
  -2978499.84248  -2320901.83845         0.00041  24593059.19345  24593057.74048
  -7835363.03948  -6105452.76245         0.00041  24067118.34045  24067115.66448
 94 02 15 02 27 30.0000000  0  8 02 04 05 07 12 13 24 27
 -20567841.32949 -16026854.16947         0.00041  21588182.93747  21588182.80649
 -14734163.08848 -11481140.59746         0.00041  22427926.51146  22427926.73348
        -0.02857         0.00152         0.00051  25362257.07752  25362260.36057
 -23862421.50349 -18594059.44048         0.00041  20808185.73348  20808185.53849
  -7941681.11408  -6188315.29708  23815845.66508  23815847.48308         0.00001
 -23790678.38509 -18538151.95408  20845206.16609  20845206.82108         0.00001
  -3085767.88548  -2404487.15445         0.00041  24572646.81545  24572645.06748
  -7722326.68248  -6017372.46145         0.00041  24088628.07545  24088625.63548
 94 02 15 02 28 00.0000000  0  8 02 04 05 07 12 13 24 27
 -20530674.21549 -15997892.77147         0.00041  21595255.70547  21595255.51649
 -14824129.77048 -11551244.45046         0.00041  22410806.08246  22410806.66248
    -77519.36647    -60404.48643         0.00041  25347509.00143  25347508.46547
 -23818175.66949 -18559582.15648         0.00041  20816605.41748  20816605.17949
  -8032130.33308  -6258795.14908  23798633.75608  23798635.48608         0.00001
 -23839400.27509 -18576117.03008  20835934.68709  20835935.33908         0.00001
  -3193027.07148  -2488065.59345         0.00041  24552235.36545  24552234.29848
  -7609141.27348  -5929176.04746         0.00041  24110164.93146  24110164.14948
 94 02 15 02 28 30.0000000  0  8 02 04 05 07 12 13 24 27
 -20493330.36649 -15968793.65247         0.00041  21602361.86247  21602361.86849
 -14913826.20248 -11621137.71846         0.00041  22393737.51646  22393737.90148
   -155085.33947   -120845.45343         0.00041  25332754.03743  25332748.69547
 -23773639.30249 -18524878.48148         0.00041  20825080.22548  20825080.13649
  -8122550.77008  -6329252.56408  23781427.16408  23781428.93708         0.00001
 -23887587.39209 -18613665.39908  20826764.95009  20826765.59908         0.00001
  -3300297.19848  -2571652.53645         0.00041  24531823.30345  24531821.62248
  -7495840.42548  -5840889.64545         0.00041  24131727.20145  24131724.43248
 94 02 15 02 29 00.0000000  0  8 02 04 05 07 12 13 24 27
 -20455818.99649 -15939564.00147         0.00041  21609500.08547  21609500.01049
 -15003253.23048 -11690821.05546         0.00041  22376720.27946  22376720.42448
   -232720.10347   -181339.85943         0.00041  25317978.78743  25317975.10247
 -23728828.58449 -18489961.02348         0.00041  20833607.49148  20833607.35149
  -8212955.99408  -6399698.11908  23764223.73208  23764225.47308         0.00001
 -23935254.51109 -18650808.57708  20817694.15009  20817694.82308         0.00001
  -3407600.16048  -2655265.11245         0.00041  24511405.65145  24511402.32948
  -7382440.89748  -5752526.37245         0.00041  24153304.73745  24153303.84548
 94 02 15 02 29 30.0000000  0  8 02 04 05 07 12 13 24 27
 -20418112.90349 -15910182.61947         0.00041  21616675.10447  21616675.09949
 -15092375.81148 -11760267.16646         0.00041  22359760.62646  22359760.94248
   -310411.32747   -241878.34343         0.00041  25303191.34043  25303190.98147
 -23683694.24249 -18454791.39148         0.00041  20842196.18748  20842196.05549
  -8303312.14808  -6470105.42108  23747029.42208  23747031.16808         0.00001
 -23982368.85209 -18687521.02008  20808728.56209  20808729.23408         0.00001
  -3514909.06848  -2738882.31145         0.00041  24490982.50245  24490981.98948
  -7268908.19248  -5664059.31045         0.00041  24174907.79045  24174908.53548
 94 02 15 02 30 00.0000000  0  8 02 04 05 07 12 13 24 27
 -20380236.51349 -15880668.54047         0.00041  21623882.98847  21623882.82349
 -15181228.56648 -11829503.01346         0.00041  22342852.32646  22342852.82148
   -388188.58748   -302483.90843         0.00041  25288391.28243  25288390.60948
 -23638264.37749 -18419391.47948         0.00041  20850841.21948  20850841.07049
  -8393639.31908  -6540490.13608  23729840.65408  23729842.47108         0.00001
 -24028951.91309 -18723819.47608  20799864.07309  20799864.75108         0.00001
  -3622264.17048  -2822535.47445         0.00041  24470555.65945  24470553.07848
  -7155271.25248  -5575511.05245         0.00041  24196533.73045  24196532.94848
 94 02 15 02 30 30.0000000  0  8 02 04 05 07 12 13 24 27
 -20342180.16149 -15851014.22947         0.00041  21631124.73347  21631124.76249
 -15269830.41848 -11898543.35646         0.00041  22325991.94846  22325992.36948
   -466050.17848   -363155.16443         0.00041  25273573.05743  25273573.70348
 -23592556.29949 -18383774.77848         0.00041  20859539.30648  20859539.12349
  -8483942.20808  -6610855.92508  23712656.49308  23712658.26008         0.00001
 -24075009.51809 -18759708.48708  20791099.56909  20791100.21908         0.00001
  -3729677.04248  -2906233.70645         0.00041  24450114.65745  24450112.75048
  -7041539.89148  -5486889.18545         0.00041  24218175.53145  24218175.24348
 94 02 15 02 31 00.0000000  0  8 02 04 05 07 12 13 24 27
 -20303869.43649 -15821161.70647         0.00041  21638414.82747  21638414.92449
 -15358129.46548 -11967347.73846         0.00041  22309189.21946  22309189.62548
   -543924.10648   -423836.06843         0.00041  25258752.49143  25258754.77648
 -23546497.18649 -18347884.54648         0.00041  20868303.82148  20868303.85049
  -8574155.87408  -6681152.19108  23695489.31008  23695491.07308         0.00001
 -24120478.22809 -18795138.61808  20782447.12409  20782447.75908         0.00001
  -3837099.04548  -2989939.02345         0.00041  24429670.85845  24429671.01048
  -6927658.07548  -5398150.09345         0.00041  24239847.57045  24239846.20248
 94 02 15 02 31 30.0000000  0  8 02 04 05 07 12 13 24 27
 -20265306.70649 -15791112.81847         0.00041  21645753.32147  21645753.15249
 -15446147.62048 -12035933.25646         0.00041  22292439.66246  22292440.32848
   -621800.11348   -484518.62643         0.00041  25243933.81143  25243935.19748
 -23500091.75049 -18311724.45048         0.00041  20877134.62948  20877134.45249
  -8664287.79708  -6751384.76208  23678337.70408  23678339.38408         0.00001
 -24165366.68809 -18830116.60808  20773905.12409  20773905.75008         0.00001
  -3944535.19748  -3073655.40745         0.00041  24409229.43845  24409226.62148
  -6813639.53748  -5309304.46345         0.00041  24261545.48845  24261543.36948
 94 02 15 02 32 00.0000000  0  8 02 04 05 07 12 13 24 27
 -20226512.46949 -15760883.53347         0.00041  21653135.73747  21653135.49149
 -15533903.78348 -12104314.61246         0.00041  22275740.52846  22275740.87148
   -699691.23548   -545213.07443         0.00041  25229110.22543  25229113.45548
 -23453359.71949 -18275309.86548         0.00041  20886027.21848  20886027.05449
  -8754351.31608  -6821564.03208  23661199.09908  23661200.75608         0.00001
 -24209689.66909 -18864653.96508  20765470.71509  20765471.33508         0.00001
  -4052000.06748  -3157394.14145         0.00041  24388779.66345  24388776.39648
  -6699502.50448  -5220366.51045         0.00041  24283264.39345  24283262.92148
 94 02 15 02 32 30.0000000  0  8 02 04 05 07 12 13 24 27
 -20187493.79049 -15730479.36347         0.00041  21660560.58947  21660560.55149
 -15621395.17748 -12172489.65546         0.00041  22259091.19846  22259091.65248
   -777601.56348   -605922.49743         0.00041  25214288.10643  25214287.61748
 -23406301.64149 -18238641.21648         0.00041  20894982.13748  20894981.92549
  -8844351.94708  -6891694.30108  23644072.48108  23644074.11908         0.00001
 -24253454.19909 -18898756.16508  20757142.56009  20757143.15808         0.00001
  -4159497.60448  -3241158.32545         0.00041  24368323.41345  24368320.55748
  -6585247.07348  -5131336.29545         0.00041  24305005.13645  24305004.89948
 94 02 15 02 33 00.0000000  0  8 02 04 05 07 12 13 24 27
 -20148267.47849 -15699913.39647         0.00041  21668025.10547  21668025.03349
 -15708614.83048 -12240452.95646         0.00041  22242493.72946  22242494.24848
   -855539.54448   -666653.40944         0.00041  25199455.82944  25199456.35848
 -23358916.41649 -18201717.65248         0.00041  20903999.21648  20903999.19749
  -8934289.91508  -6961775.74708  23626957.84208  23626959.46708         0.00001
 -24296662.00709 -18932424.55908  20748920.37709  20748921.00308         0.00001
  -4267025.26248  -3324946.02145         0.00041  24347860.17645  24347858.58948
  -6470861.09148  -5042204.33545         0.00041  24326773.65345  24326771.81048
 94 02 15 02 33 30.0000000  0  8 02 04 05 07 12 13 24 27
 -20108837.70049 -15669188.88747         0.00041  21675528.23247  21675528.12949
 -15795552.38448 -12308196.43646         0.00041  22225950.01746  22225950.58748
   -933507.18148   -727407.45544         0.00041  25184624.81844  25184619.79648
 -23311215.38249 -18164548.00048         0.00041  20913076.56348  20913076.40849
  -9024157.48408  -7031802.33808  23609856.57308  23609858.05108         0.00001
 -24339306.72609 -18965654.18008  20740805.32609  20740805.96808         0.00001
  -4374554.02348  -3408734.56745         0.00041  24327395.67745  24327396.24448
  -6356321.45548  -4952952.66945         0.00041  24348567.48845  24348567.87148
 94 02 15 02 34 00.0000000  0  8 02 04 05 07 12 13 24 27
 -20069221.69249 -15638319.26247         0.00041  21683067.12247  21683066.96049
 -15882194.24648 -12375709.51046         0.00041  22209462.65046  22209463.16548
  -1011524.70348   -788200.39944         0.00041  25169777.88744  25169773.35148
 -23263217.92049 -18127147.37048         0.00041  20922210.30748  20922210.08949
  -9113965.04408  -7101782.17408  23592766.62808  23592768.16008         0.00001
 -24381400.35309 -18998454.38208  20732795.15609  20732795.75208         0.00001
  -4482095.55148  -3492533.04645         0.00041  24306933.28145  24306931.90348
  -6241634.10948  -4863585.88945         0.00041  24370391.67245  24370392.17948
 94 02 15 02 34 30.0000000  0  8 02 04 05 07 12 13 24 27
 -20029410.10049 -15607297.23547         0.00041  21690642.68647  21690642.86649
 -15968530.07748 -12442984.11646         0.00041  22193033.62246  22193033.90148
  -1089580.93948   -849023.34844         0.00041  25154923.64144  25154919.71648
 -23214934.45849 -18089523.88248         0.00041  20931398.09548  20931398.02449
  -9203711.45408  -7171714.36208  23575688.45608  23575689.93708         0.00001
 -24422943.17809 -19030825.38608  20724889.80109  20724890.42908         0.00001
  -4589652.19548  -3576343.30245         0.00041  24286464.16045  24286464.25548
  -6126807.39248  -4774110.52545         0.00041  24392245.11445  24392242.90148
 94 02 15 02 35 00.0000000  0  8 02 04 05 07 12 13 24 27
 -19989387.11949 -15576110.48847         0.00041  21698259.05547  21698258.92349
 -16054544.10848 -12510007.97146         0.00041  22176665.13146  22176665.91548
  -1167669.61948   -909871.67444         0.00041  25140061.98744  25140060.39248
 -23166361.63149 -18051674.91348         0.00041  20940641.06948  20940640.93149
  -9293380.61808  -7241586.36508  23558624.79108  23558626.37708         0.00001
 -24463920.90309 -19062756.05408  20717091.97509  20717092.60108         0.00001
  -4697197.21248  -3660144.46845         0.00041  24266000.87745  24265999.07448
  -6011844.78348  -4684529.23945         0.00041  24414119.60145  24414119.74348
 94 02 15 02 35 30.0000000  0  8 02 04 05 07 12 13 24 27
 -19949176.91849 -15544777.85547         0.00041  21705910.85147  21705910.72049
 -16140261.30348 -12576800.52746         0.00041  22160353.67546  22160354.35948
  -1245826.78948   -970773.30444         0.00041  25125187.05544  25125187.49748
 -23117532.32949 -18013626.09548         0.00041  20949933.00148  20949932.93249
  -9383005.76008  -7311424.06808  23541569.65208  23541571.22008         0.00001
 -24504368.20309 -19094273.40208  20709395.10509  20709395.69008         0.00001
  -4804746.77548  -3743949.20245         0.00041  24245534.45445  24245533.14548
  -5896797.17048  -4594881.75145         0.00041  24436012.45445  24436012.42448
 94 02 15 02 36 00.0000000  0  8 02 04 05 07 12 13 24 27
 -19908756.92449 -15513281.74447         0.00041  21713602.64747  21713602.46949
 -16225664.23848 -12643348.20946         0.00041  22144102.14046  22144102.68448
  -1324036.91348  -1031716.18345         0.00041  25110306.84145  25110304.65448
 -23068421.53949 -17975357.93548         0.00041  20959278.30948  20959278.48749
  -9472569.62908  -7381214.03208  23524526.20208  23524527.72008         0.00001
 -24544269.54909 -19125365.33208  20701802.10909  20701802.68908         0.00001
  -4912293.27348  -3827751.50145         0.00041  24225067.64545  24225067.40848
  -5781669.07348  -4505171.50945         0.00041  24457920.70545  24457920.58548
 94 02 15 02 36 30.0000000  0  8 02 04 05 07 12 13 24 27
 -19868103.21849 -15481603.52347         0.00041  21721338.69947  21721338.60449
 -16310740.85048 -12709641.60846         0.00041  22127912.35646  22127913.01048
  -1402275.01748  -1092680.82644         0.00041  25095414.61044  25095416.15448
 -23019003.12849 -17936850.07548         0.00041  20968682.70748  20968682.53249
  -9562046.11308  -7450935.90308  23507499.31308  23507500.75808         0.00001
 -24583600.51309 -19156012.80808  20694317.64109  20694318.22908         0.00001
  -5019799.87648  -3911522.75245         0.00041  24204611.66345  24204609.45848
  -5666444.76348  -4415386.32945         0.00041  24479847.91645  24479847.09348
 94 02 15 02 37 00.0000000  0  8 02 04 05 07 12 13 24 27
 -19827216.34949 -15449743.61747         0.00041  21729119.02147  21729118.97649
 -16395490.57148 -12775680.29146         0.00041  22111784.71146  22111785.58248
  -1480551.81248  -1153675.58944         0.00041  25080523.28744  25080520.26948
 -22969278.30549 -17898103.45248         0.00041  20978144.92848  20978144.88549
  -9651434.70808  -7520589.29708  23490489.18208  23490490.71308         0.00001
 -24622362.55209 -19186216.96708  20686941.43709  20686942.01708         0.00001
  -5127249.80448  -3995249.82645         0.00041  24184164.75745  24184162.19948
  -5551126.79448  -4325528.15545         0.00041  24501790.58045  24501791.36148
 94 02 15 02 37 30.0000000  0  8 02 04 05 07 12 13 24 27
 -19786107.78749 -15417710.95847         0.00041  21736941.57547  21736941.67649
 -16479925.24648 -12841473.48646         0.00041  22095717.54946  22095718.26448
  -1558870.80948  -1214703.27044         0.00041  25065619.98044  25065616.43148
 -22919262.79749 -17859130.32048         0.00041  20987662.49748  20987662.33849
  -9740745.83808  -7590182.32808  23473493.81408  23473495.23108         0.00001
 -24660567.74309 -19215987.22008  20679671.22309  20679671.80308         0.00001
  -5234664.39248  -4078949.35645         0.00041  24163722.80545  24163721.88648
  -5435724.30048  -4235604.11645         0.00041  24523751.63245  24523751.75748
 94 02 15 02 38 00.0000000  0  8 02 04 05 07 12 13 24 27
 -19744798.30949 -15385521.74847         0.00041  21744802.34447  21744802.58849
 -16564055.15148 -12907029.20646         0.00041  22079708.28746  22079708.93448
  -1637233.52248  -1275764.99044         0.00041  25050707.24644  25050704.56148
 -22868977.58049 -17819947.02748         0.00041  20997231.49948  20997231.37649
  -9829987.13208  -7659720.94408  23456511.74408  23456513.21908         0.00001
 -24698225.40509 -19245330.82708  20672505.19109  20672505.73508         0.00001
  -5342068.05248  -4162640.39745         0.00041  24143282.77445  24143283.41148
  -5320250.40848  -4145624.44345         0.00041  24545724.78145  24545725.51148
 94 02 15 02 38 30.0000000  0  8 02 04 05 07 12 13 24 27
 -19703285.10549 -15353173.78747         0.00041  21752702.28147  21752702.32449
 -16647858.86448 -12972330.74846         0.00041  22063760.99246  22063761.46948
  -1715619.58448  -1336844.94645         0.00041  25035788.89745  25035788.19548
 -22818416.29349 -17780548.61148         0.00041  21006853.10448  21006852.87549
  -9919138.65208  -7729189.60908  23439546.69308  23439548.14708         0.00001
 -24735317.34509 -19274233.61108  20665446.81409  20665447.37708         0.00001
  -5449433.46848  -4246301.61445         0.00041  24122854.43745  24122852.46748
  -5204681.76848  -4055570.91345         0.00041  24567717.48745  24567717.47048
 94 02 15 02 39 00.0000000  0  8 02 04 05 07 12 13 24 27
 -19661581.79349 -15320677.69247         0.00041  21760638.18847  21760638.22649
 -16731345.97548 -13037385.59646         0.00041  22047874.02746  22047874.34848
  -1794043.00448  -1397953.97145         0.00041  25020867.51645  25020864.69548
 -22767602.10549 -17740953.13048         0.00041  21016522.56948  21016522.47949
 -10008207.55408  -7798593.89808  23422597.45008  23422598.81908         0.00001
 -24771852.90209 -19302702.85008  20658494.29409  20658494.83808         0.00001
  -5556778.04848  -4329946.60145         0.00041  24102425.37245  24102425.35248
  -5089037.06548  -3965458.13545         0.00041  24589726.28545  24589724.08148
 94 02 15 02 39 30.0000000  0  8 02 04 05 07 12 13 24 27
 -19619675.12849 -15288023.13947         0.00041  21768612.73747  21768612.78849
 -16814500.83548 -13102181.54747         0.00041  22032049.92447  22032050.33748
  -1872486.64248  -1459078.79145         0.00041  25005936.28145  25005937.22648
 -22716520.93949 -17701149.61248         0.00041  21026242.98348  21026242.89049
 -10097178.02108  -7867921.48608  23405666.88108  23405668.29308         0.00001
 -24807817.89909 -19330727.49508  20651650.34509  20651650.90808         0.00001
  -5664101.78548  -4413575.37145         0.00041  24082002.08645  24082002.17348
  -4973296.49148  -3875270.68045         0.00041  24611748.02345  24611748.72748
 94 02 15 02 40 00.0000000  0  8 02 04 05 07 12 13 24 27
 -19577551.17649 -15255199.27447         0.00041  21776628.96647  21776628.76049
 -16897315.24848 -13166712.21446         0.00041  22016290.58146  22016291.35148
  -1950944.37648  -1520214.57545         0.00041  24991009.49845  24991007.31848
 -22665161.17349 -17661129.00848         0.00041  21036016.44348  21036016.30349
 -10186043.20608  -7937167.04008  23388756.30808  23388757.75308         0.00001
 -24843207.41209 -19358303.71208  20644915.93209  20644916.47508         0.00001
  -5771391.54648  -4497177.65645         0.00041  24061587.09645  24061585.64748
  -4857449.45248  -3785000.25245         0.00041  24633795.83445  24633793.77548
 94 02 15 02 40 30.0000000  0  8 02 04 05 07 12 13 24 27
 -19535205.56149 -15222202.67947         0.00041  21784686.62547  21784686.79649
 -16979808.23249 -13230992.42447         0.00041  22000592.58147  22000593.52149
  -2029433.43548  -1581374.83845         0.00041  24976071.75445  24976071.07248
 -22613529.70649 -17620896.68548         0.00041  21045841.48148  21045841.35749
 -10274811.61208  -8006337.18508  23371864.22508  23371865.60908         0.00001
 -24878032.13409 -19385439.83108  20638289.01609  20638289.52508         0.00001
  -5878658.94148  -4580762.52245         0.00041  24041174.33745  24041173.31248
  -4741506.51948  -3694655.07045         0.00041  24655857.59345  24655856.51148
 94 02 15 02 41 00.0000000  0  8 02 04 05 07 12 13 24 27
 -19492605.14349 -15189007.54347         0.00041  21792793.67347  21792793.41849
 -17061954.90449 -13295002.77747         0.00041  21984960.62547  21984961.44849
  -2107944.43048  -1642552.10745         0.00041  24961132.04245  24961130.80848
 -22561604.85949 -17580435.75548         0.00041  21055722.40548  21055722.33749
 -10363469.99208  -8075421.59308  23354993.09808  23354994.45308         0.00001
 -24912280.84109 -19412127.10808  20631771.69509  20631772.16108         0.00001
  -5985894.32348  -4664322.46945         0.00041  24020768.03745  24020766.96448
  -4625465.75248  -3604233.66445         0.00041  24677937.93745  24677938.55648
 94 02 15 02 41 30.0000000  0  8 02 04 05 07 12 13 24 27
 -19449739.79249 -15155605.96447         0.00041  21800950.22947  21800950.38949
 -17143743.40949 -13358734.04247         0.00041  21969396.81247  21969397.61849
  -2186473.46548  -1703743.44345         0.00041  24946190.21245  24946187.33448
 -22509379.78649 -17539740.88248         0.00041  21065660.51548  21065660.49349
 -10452018.50408  -8144420.38908  23338142.90108  23338144.19208         0.00001
 -24945955.66009 -19438367.20008  20625363.52909  20625364.03608         0.00001
  -6093097.60548  -4747857.38945         0.00041  24000367.46845  24000366.73948
  -4509323.49348  -3513733.20645         0.00041  24700039.82645  24700039.68748
 94 02 15 02 42 00.0000000  0  8 02 04 05 07 12 13 24 27
 -19406658.64549 -15122036.23547         0.00041  21809148.36347  21809148.44649
 -17225208.69249 -13422213.45047         0.00041  21953894.70747  21953895.28249
  -2265065.32748  -1764983.77445         0.00041  24931233.10245  24931232.02448
 -22456898.56349 -17498846.41348         0.00041  21075647.36248  21075647.17649
 -10540492.66008  -8213361.24308  23321306.78608  23321308.10108         0.00001
 -24979094.03309 -19464189.28308  20619057.49909  20619058.00808         0.00001
  -6200287.11448  -4831381.60145         0.00041  23979969.27545  23979969.17348
  -4393133.14048  -3423195.22345         0.00041  24722150.72045  24722149.93748
 94 02 15 02 42 30.0000000  0  8 02 04 05 07 12 13 24 27
 -19363369.86049 -15088304.71147         0.00041  21817386.15047  21817386.10449
 -17306329.86149 -13485424.71547         0.00041  21938457.72947  21938458.32949
  -2343724.92048  -1826276.88245         0.00041  24916265.49845  24916263.43348
 -22404168.15549 -17457757.77348         0.00041  21085681.42348  21085681.43149
 -10628881.89708  -8282235.92608  23304486.94808  23304488.21108         0.00001
 -25011687.53809 -19489586.79408  20612855.12809  20612855.62108         0.00001
  -6307443.60048  -4914880.08245         0.00041  23959578.64845  23959578.17648
  -4276898.10448  -3332622.43745         0.00041  24744268.65145  24744268.56748
 94 02 15 02 43 00.0000000  0  8 02 04 05 07 12 13 24 27
 -19319868.04049 -15054407.17947         0.00041  21825664.14047  21825664.15349
 -17387085.63849 -13548351.25747         0.00041  21923090.22847  21923090.91649
  -2422433.00248  -1887607.77245         0.00041  24901286.21345  24901285.60348
 -22351190.31349 -17416476.32748         0.00041  21095762.76448  21095762.79949
 -10717171.45608  -8351032.93408  23287685.91908  23287687.13208         0.00001
 -25043723.77009 -19514550.07008  20606758.79109  20606759.33608         0.00001
  -6414533.98148  -4998327.04345         0.00041  23939200.06745  23939199.54348
  -4160600.29148  -3242000.71745         0.00041  24766399.29845  24766399.18248
 94 02 15 02 43 30.0000000  0  8 02 04 05 07 12 13 24 27
 -19276150.45149 -15020341.51647         0.00041  21833983.15447  21833983.33849
 -17467473.82049 -13610991.36647         0.00041  21907793.14347  21907793.57449
  -2501166.48348  -1948958.44045         0.00041  24886304.22245  24886302.90148
 -22297966.66949 -17375003.34648         0.00041  21105890.99348  21105891.05649
 -10805344.79308  -8419739.38008  23270907.07108  23270908.29808         0.00001
 -25075188.21109 -19539067.79408  20600771.28609  20600771.80008         0.00001
  -6521538.23148  -5081706.89845         0.00041  23918837.71645  23918837.23248
  -4044211.06948  -3151307.79045         0.00041  24788548.55845  24788547.64848
 94 02 15 02 44 00.0000000  0  8 02 04 05 07 12 13 24 27
 -19232236.05949 -14986122.50047         0.00041  21842339.74747  21842340.00649
 -17547512.12349 -13673358.83947         0.00041  21892562.17347  21892562.81649
  -2579926.17848  -2010329.50645         0.00041  24871315.48545  24871315.07948
 -22244501.38549 -17333342.07548         0.00041  21116065.29648  21116065.21349
 -10893407.13908  -8488359.33908  23254149.25908  23254150.52308         0.00001
 -25106088.29909 -19563145.76208  20594891.19809  20594891.72308         0.00001
  -6628453.51348  -5165017.42745         0.00041  23898492.76545  23898491.71748
  -3927737.42748  -3060549.10445         0.00041  24810711.72345  24810711.68248
 94 02 15 02 44 30.0000000  0  8 02 04 05 07 12 13 24 27
 -19188119.42749 -14951745.89747         0.00041  21850734.99347  21850735.08549
 -17627217.14349 -13735466.61247         0.00041  21877394.67547  21877395.46249
  -2658711.97948  -2071720.93845         0.00041  24856324.65245  24856322.85148
 -22190800.28949 -17291497.05448         0.00041  21126284.12848  21126284.13249
 -10981370.24508  -8556901.96408  23237410.37508  23237411.68608         0.00001
 -25136437.95509 -19586794.82308  20589115.81009  20589116.33308         0.00001
  -6735308.44848  -5248280.92345         0.00041  23878159.22045  23878157.76048
  -3811179.39848  -2969724.63645         0.00041  24832892.76145  24832892.28848
 94 02 15 02 45 00.0000000  0  8 02 04 05 07 12 13 24 27
 -19143776.28049 -14917192.78847         0.00041  21859173.11447  21859173.23649
 -17706591.69449 -13797316.87947         0.00041  21862290.17247  21862290.89849
  -2737500.49448  -2133114.49245         0.00041  24841330.04945  24841329.69148
 -22136836.12249 -17249447.04048         0.00041  21136553.28548  21136553.23849
 -11069224.08308  -8625359.44808  23220692.33308  23220693.64208         0.00001
 -25166229.50909 -19610009.00108  20583446.66609  20583447.13208         0.00001
  -6842115.97348  -5331507.50745         0.00041  23857834.16145  23857832.80848
  -3694514.86048  -2878817.17245         0.00041  24855093.45145  24855092.53248
 94 02 15 02 45 30.0000000  0  8 02 04 05 07 12 13 24 27
 -19099203.82249 -14882460.99847         0.00041  21867655.33947  21867655.17449
 -17785621.05749 -13858898.16247         0.00041  21847251.10547  21847252.12449
  -2816290.09448  -2194509.20344         0.00041  24826339.49044  24826336.98848
 -22082585.08449 -17207173.49548         0.00041  21146876.76848  21146876.69249
 -11156959.62108  -8693724.74808  23203996.77608  23203998.00608         0.00001
 -25195456.22309 -19632783.04308  20577884.98209  20577885.48408         0.00001
  -6948881.70248  -5414701.52146         0.00041  23837516.27546  23837515.81848
  -3577746.93448  -2787829.14445         0.00041  24877312.22445  24877312.80948
 94 02 15 02 46 00.0000000  0  8 02 04 05 07 12 13 24 27
 -19054414.70449 -14847560.38147         0.00041  21876178.16047  21876178.26449
 -17864310.59349 -13920214.65347         0.00041  21832277.42947  21832277.97849
  -2895111.43148  -2255928.97045         0.00041  24811336.93445  24811337.51348
 -22028062.66249 -17164688.47848         0.00041  21157252.05848  21157251.98849
 -11244593.68808  -8762010.98108  23187320.50808  23187321.81808         0.00001
 -25224137.34609 -19655131.95008  20572427.14109  20572427.61108         0.00001
  -7055625.50748  -5497878.42446         0.00041  23817205.54346  23817203.18948
  -3460907.24448  -2696785.22845         0.00041  24899546.50745  24899546.53748
 94 02 15 02 46 30.0000000  0  8 02 04 05 07 12 13 24 27
 -19009412.58549 -14812493.78947         0.00041  21884741.82747  21884741.88849
 -17942659.59049 -13981265.78347         0.00041  21817367.99447  21817368.66449
  -2973987.09448  -2317390.44445         0.00041  24796329.29945  24796327.69748
 -21973290.62249 -17122008.95448         0.00041  21167675.09448  21167674.94949
 -11332131.41308  -8830222.14108  23170662.59708  23170663.82508         0.00001
 -25252280.35009 -19677061.54108  20567071.68009  20567072.18308         0.00001
  -7162355.02148  -5581044.21546         0.00041  23796893.80946  23796893.17748
  -3344004.97948  -2605692.51744         0.00041  24921788.61144  24921792.30248
 94 02 15 02 47 00.0000000  0  8 02 04 05 07 12 13 24 27
 -18964216.48149 -14777276.03747         0.00041  21893342.46547  21893342.31549
 -18020652.62749 -14042039.53947         0.00041  21802526.39047  21802527.08049
  -3052923.52548  -2378899.26945         0.00041  24781309.29345  24781306.64748
 -21918276.17249 -17079140.53848         0.00041  21178143.79448  21178143.70049
 -11419567.75708  -8898354.30208  23154023.96508  23154025.16908         0.00001
 -25279882.45109 -19698569.65108  20561819.15909  20561819.61808         0.00001
  -7269050.29348  -5664183.31846         0.00041  23776588.72346  23776589.96348
  -3227055.81448  -2514563.26845         0.00041  24944046.44445  24944046.59548
 94 02 15 02 47 30.0000000  0  8 02 04 05 07 12 13 24 27
 -18918830.02849 -14741909.96647         0.00041  21901979.00147  21901979.05749
 -18098267.06749 -14102518.28747         0.00041  21787756.94147  21787757.61849
  -3131925.89348  -2440459.45845         0.00041  24766274.20245  24766272.97448
 -21863032.31949 -17036093.36748         0.00041  21188656.17648  21188656.09449
 -11506896.10108  -8966402.30508  23137405.86308  23137407.06408         0.00001
 -25306939.62809 -19719653.14508  20556670.34109  20556670.81308         0.00001
  -7375677.62448  -5747269.47446         0.00041  23756299.94646  23756299.49748
  -3110085.45448  -2423417.53445         0.00041  24966304.50045  24966305.42648
 94 02 15 02 48 00.0000000  0  8 02 04 05 07 12 13 24 27
 -18873232.89949 -14706379.72847         0.00041  21910656.05847  21910655.99049
 -18175496.78049 -14162697.25147         0.00041  21773060.66147  21773061.11949
  -3210989.43848  -2502067.32245         0.00041  24751228.98845  24751227.63848
 -21807559.73149 -16992867.96248         0.00041  21199212.37648  21199212.29949
 -11594107.53608  -9034359.21308  23120810.06608  23120811.28808         0.00001
 -25333445.43409 -19740306.99908  20551626.43509  20551626.91008         0.00001
  -7482226.41248  -5830294.48246         0.00041  23736024.74946  23736023.79948
  -2993098.79048  -2332259.06745         0.00041  24988566.39745  24988567.21948
 94 02 15 02 48 30.0000000  0  8 02 04 05 07 12 13 24 27
 -18827415.18249 -14670677.60347         0.00041  21919374.75547  21919374.86849
 -18252324.66449 -14222563.09747         0.00041  21758440.74047  21758441.29049
  -3290101.52948  -2563713.04945         0.00041  24736173.29345  24736172.87348
 -21751840.36849 -16949450.26248         0.00041  21209815.21548  21209815.31849
 -11681187.98508  -9102214.05608  23104239.15508  23104240.31608         0.00001
 -25359388.44009 -19760522.30908  20546689.63109  20546690.07808         0.00001
  -7588685.64848  -5913249.65246         0.00041  23715767.63446  23715765.15648
  -2876095.01048  -2241087.28145         0.00041  25010829.98645  25010832.35448
 94 02 15 02 49 00.0000000  0  8 02 04 05 07 12 13 24 27
 -18781357.85049 -14634788.76547         0.00041  21928139.04447  21928139.15449
 -18328722.02849 -14282093.47747         0.00041  21743902.53247  21743903.18149
  -3369242.18348  -2625381.03145         0.00041  24721114.71245  24721112.78948
 -21695853.96649 -16905824.48348         0.00041  21220469.20148  21220469.19249
 -11768124.13308  -9169956.45608  23087695.74008  23087696.90908         0.00001
 -25384757.58309 -19780290.45508  20541862.01309  20541862.50508         0.00001
  -7695050.43748  -5996131.24846         0.00041  23695524.51546  23695524.44448
  -2759073.89948  -2149901.99145         0.00041  25033098.90245  25033100.55848
 94 02 15 02 49 30.0000000  0  8 02 04 05 07 12 13 24 27
 -18735041.12049 -14598697.80247         0.00041  21936952.96547  21936952.97449
 -18404688.35249 -14341287.98347         0.00041  21729446.60347  21729447.36549
  -3448417.01648  -2687075.65845         0.00041  24706046.93745  24706046.22948
 -21639599.89749 -16861990.12848         0.00041  21231173.88348  21231173.91749
 -11854911.25908  -9237582.73408  23071180.66308  23071181.78708         0.00001
 -25409550.65409 -19799609.71408  20537144.06209  20537144.52208         0.00001
  -7801331.80748  -6078947.86546         0.00041  23675300.05546  23675299.72548
  -2642022.22748  -2058692.88544         0.00041  25055377.83944  25055374.93748
 94 02 15 02 50 00.0000000  0  8 02 04 05 07 12 13 24 27
 -18688468.34549 -14562407.31947         0.00041  21945815.00847  21945815.38149
 -18480239.44949 -14400158.93647         0.00041  21715069.79547  21715070.38449
  -3527625.12948  -2748796.23445         0.00041  24690973.48945  24690973.46248
 -21583082.69749 -16817950.73848         0.00041  21241928.83248  21241928.79149
 -11941545.97208  -9305090.25008  23054694.58608  23054695.73708         0.00001
 -25433767.01209 -19818479.58508  20532535.81909  20532536.26508         0.00001
  -7907540.14248  -6161707.57446         0.00041  23655089.52846  23655089.07548
  -2524912.25848  -1967438.36845         0.00041  25077659.21145  25077660.13148
 94 02 15 02 50 30.0000000  0  8 02 04 05 07 12 13 24 27
 -18641667.28049 -14525938.94647         0.00041  21954721.18847  21954721.32949
 -18555393.50749 -14458720.50847         0.00041  21700768.29047  21700769.03849
  -3606872.21648  -2810547.16445         0.00041  24675893.58645  24675892.83648
 -21526320.81249 -16773720.68348         0.00041  21252730.39348  21252730.31249
 -12028034.69308  -9372484.00808  23038236.25708  23038237.45608         0.00001
 -25457415.86809 -19836907.24508  20528035.56409  20528036.01308         0.00001
  -8013670.72448  -6244406.68046         0.00041  23634894.60446  23634892.96548
  -2407734.17048  -1876130.75345         0.00041  25099957.83745  25099958.37848
 94 02 15 02 51 00.0000000  0  8 02 04 05 07 12 13 24 27
 -18594628.91149 -14489285.66647         0.00041  21963672.08647  21963672.50249
 -18630146.84249 -14516969.82647         0.00041  21686543.20147  21686543.97749
  -3686127.43848  -2872304.44545         0.00041  24660811.22445  24660811.18248
 -21469310.52949 -16729297.07448         0.00041  21263578.87848  21263578.98949
 -12114360.49908  -9439750.81808  23021808.96108  23021810.04108         0.00001
 -25480482.87309 -19854881.51508  20523646.05509  20523646.48808         0.00001
  -8119697.85248  -6327025.18846         0.00041  23614718.97046  23614716.74048
  -2290460.70248  -1784748.84044         0.00041  25122279.50644  25122274.76848
 94 02 15 02 51 30.0000000  0  8 02 04 05 07 12 13 24 27
 -18547371.72749 -14452461.87647         0.00041  21972664.40947  21972665.16449
 -18704532.15549 -14574932.37747         0.00041  21672387.97947  21672388.81349
  -3765398.02848  -2934073.69845         0.00041  24645727.74445  24645726.58948
 -21412071.72449 -16684695.39848         0.00041  21274471.17348  21274471.06649
 -12200531.02208  -9506896.62708  23005411.18708  23005412.40608         0.00001
 -25502978.01809 -19872410.18208  20519365.34109  20519365.77208         0.00001
  -8225606.77748  -6409551.57846         0.00041  23594564.13446  23594562.87448
  -2173100.09348  -1693298.98244         0.00041  25144609.07444  25144607.52148
 94 02 15 02 52 00.0000000  0  8 02 04 05 07 12 13 24 27
 -18499914.27149 -14415482.03047         0.00041  21981695.82447  21981696.10449
 -18778565.57649 -14632620.73447         0.00041  21658299.92047  21658300.73549
  -3844679.26448  -2995851.21045         0.00041  24630640.31845  24630639.89348
 -21354617.32049 -16639925.72148         0.00041  21285404.25748  21285404.26149
 -12286561.48108  -9573933.29408  22989040.15108  22989041.26208         0.00001
 -25524919.66109 -19889507.54708  20515189.97909  20515190.42808         0.00001
  -8331396.95948  -6491985.45746         0.00041  23574432.74746  23574431.63848
  -2055676.30548  -1601799.91744         0.00041  25166952.40144  25166952.71248
 94 02 15 02 52 30.0000000  0  8 02 04 05 07 12 13 24 27
 -18452241.19349 -14378334.17247         0.00041  21990767.61747  21990768.02849
 -18852224.65849 -14690017.38747         0.00041  21644282.76347  21644283.83149
  -3923952.75948  -3057622.74245         0.00041  24615555.51345  24615554.55748
 -21296935.56549 -16594978.88548         0.00041  21296380.63848  21296380.64849
 -12372444.30008  -9640854.91808  22972697.15408  22972698.20808         0.00001
 -25546302.97309 -19906169.85108  20511120.87509  20511121.30608         0.00001
  -8437059.08848  -6574319.55146         0.00041  23554326.47246  23554324.89048
  -1938197.45448  -1510257.93144         0.00041  25189307.01144  25189308.30848
 94 02 15 02 53 00.0000000  0  8 02 04 05 07 12 13 24 27
 -18404353.95249 -14341019.42847         0.00041  21999880.79847  21999880.59549
 -18925506.53149 -14747120.11847         0.00041  21630337.96147  21630338.75549
  -4003236.80348  -3119402.45745         0.00041  24600468.66345  24600467.20048
 -21239048.00649 -16549871.68148         0.00041  21307396.30448  21307396.28549
 -12458195.33508  -9707673.85108  22956379.18808  22956380.29508         0.00001
 -25567146.49809 -19922411.54108  20507154.44409  20507154.87608         0.00001
  -8542609.67748  -6656566.72246         0.00041  23534240.66946  23534239.01748
  -1820688.65748  -1418692.62444         0.00041  25211669.66844  25211669.39948
 94 02 15 02 53 30.0000000  0  8 02 04 05 07 12 13 24 27
 -18356231.60648 -14303521.48747         0.00041  22009037.80547  22009037.76848
 -18998395.70349 -14803916.85347         0.00041  21616467.51947  21616468.39949
  -4082541.58948  -3181198.32145         0.00041  24585377.24645  24585376.12248
 -21180949.93949 -16504600.45048         0.00041  21318452.15848  21318452.08849
 -12543803.69608  -9774381.61008  22940088.42808  22940089.53008         0.00001
 -25587442.09709 -19938226.27608  20503292.30509  20503292.72708         0.00001
  -8648040.97248  -6738720.94146         0.00041  23514177.77046  23514176.15048
  -1703149.35948  -1327103.59344         0.00041  25234033.49044  25234036.45748
 94 02 15 02 54 00.0000000  0  8 02 04 05 07 12 13 24 27
 -18307903.93248 -14265863.54547         0.00041  22018233.98347  22018234.28148
 -19070909.97349 -14860421.44947         0.00041  21602668.45047  21602669.37249
  -4161903.36748  -3243038.62045         0.00041  24570273.03845  24570273.79848
 -21122677.33949 -16459193.21948         0.00041  21329541.06348  21329541.07749
 -12629303.71008  -9841004.94008  22923818.26408  22923819.39908         0.00001
 -25607226.86209 -19953642.95608  20499527.37309  20499527.78908         0.00001
  -8753406.95148  -6820824.24046         0.00041  23494126.19446  23494125.54648
  -1585616.56148  -1235519.54544         0.00041  25256402.59744  25256402.15248
 94 02 15 02 54 30.0000000  0  8 02 04 05 07 12 13 24 27
 -18259370.99048 -14228045.66947         0.00041  22027469.53747  22027469.82948
 -19143035.78849 -14916623.35947         0.00041  21588943.52047  21588944.27549
  -4241330.60948  -3304929.88845         0.00041  24555159.56245  24555159.37348
 -21064234.24249 -16413653.13347         0.00041  21340662.29247  21340662.40849
 -12714685.78908  -9907536.37708  22907570.52408  22907571.65608         0.00001
 -25626494.39709 -19968656.60208  20495860.89409  20495861.28208         0.00001
  -8858704.40048  -6902874.13846         0.00041  23474089.56746  23474088.07448
  -1468095.78248  -1143944.92143         0.00041  25278766.99543  25278765.50948
 94 02 15 02 55 00.0000000  0  8 02 04 05 07 12 13 24 27
 -18210584.94048 -14190030.55347         0.00041  22036753.56447  22036753.69648
 -19214721.88149 -14972482.62247         0.00041  21575301.78347  21575302.78749
  -4320787.83548  -3366844.56645         0.00041  24540039.65945  24540039.22148
 -21005576.02249 -16367945.41847         0.00041  21351824.59547  21351824.61749
 -12799898.94408  -9973936.18508  22891354.98108  22891356.01708         0.00001
 -25645196.46709 -19983229.62408  20492301.98409  20492302.35908         0.00001
  -8963881.25748  -6984830.06646         0.00041  23454074.76546  23454073.53148
  -1350557.23448  -1052356.49844         0.00041  25301133.55944  25301132.65048
 94 02 15 02 55 30.0000000  0  8 02 04 05 07 12 13 24 27
 -18161570.23748 -14151837.27147         0.00041  22046080.81147  22046080.77648
 -19285987.38749 -15028014.16047         0.00041  21561740.31847  21561741.39649
  -4400286.30548  -3428791.33445         0.00041  24524912.17645  24524910.91948
 -20946702.92849 -16322070.27047         0.00041  21363027.50547  21363027.66249
 -12884953.69908 -10040212.56508  22875169.51808  22875170.59808         0.00001
 -25663346.56209 -19997372.53508  20488848.09409  20488848.49108         0.00001
  -9068958.01948  -7066707.99346         0.00041  23434079.10046  23434078.05548
  -1233026.80048   -960774.24243         0.00041  25323498.55443  25323497.79048
 94 02 15 02 56 00.0000000  0  8 02 04 05 07 12 13 24 27
 -18112337.86248 -14113474.37246         0.00041  22055448.97446  22055449.40148
 -19356822.58749 -15083210.39447         0.00041  21548260.81647  21548261.94449
  -4479824.92848  -3490769.41945         0.00041  24509776.50345  24509775.43548
 -20887607.85849 -16276022.15247         0.00041  21374273.00847  21374273.17449
 -12969846.75908 -10106362.94908  22859014.86908  22859015.88808         0.00001
 -25680944.23909 -20011084.99108  20485499.35509  20485499.76208         0.00001
  -9173933.54348  -7148507.03246         0.00041  23414102.43346  23414101.89848
  -1115505.06148   -869198.85743         0.00041  25345865.24243  25345861.28448
 94 02 15 02 56 30.0000000  0  8 02 04 05 07 12 13 24 27
 -18062879.77148 -14074935.58847         0.00041  22064860.75447  22064860.98548
 -19427222.64849 -15138067.55847         0.00041  21534864.24647  21534865.17249
  -4559410.03648  -3552783.72545         0.00041  24494631.35745  24494630.59948
 -20828281.93349 -16229794.15047         0.00041  21385562.44247  21385562.48549
 -13054564.93408 -10172377.06008  22842893.46408  22842894.57608         0.00001
 -25697979.37309 -20024359.10008  20482257.65509  20482258.05608         0.00001
  -9278784.64048  -7230209.10746         0.00041  23394150.45646  23394149.29748
   -997992.93948   -777631.02543         0.00041  25368224.70343  25368223.04848
 94 02 15 02 57 00.0000000  0  8 02 04 05 07 12 13 24 27
 -18013192.88148 -14036218.52346         0.00041  22074316.27146  22074316.11048
 -19497190.92949 -15192588.27247         0.00041  21521549.77747  21521550.64749
  -4639039.81148  -3614832.81545         0.00041  24479478.95245  24479477.25048
 -20768715.86649 -16183379.02547         0.00041  21396897.41247  21396897.51149
 -13139103.46208 -10238251.18608  22826806.27608  22826807.32908         0.00001
 -25714450.34409 -20037193.59808  20479123.32009  20479123.74408         0.00001
  -9383502.56648  -7311807.42346         0.00041  23374223.26246  23374222.06448
   -880477.95148   -686060.84243         0.00041  25390582.85943  25390585.24548
 94 02 15 02 57 30.0000000  0  8 02 04 05 07 12 13 24 27
 -17963265.82948 -13997314.32446         0.00041  22083816.81946  22083816.86448
 -19566715.46449 -15246763.20747         0.00041  21508319.56747  21508320.50649
  -4718699.24848  -3676905.04145         0.00041  24464319.67645  24464318.55348
 -20708893.63949 -16136764.29247         0.00041  21408281.10447  21408281.29349
 -13223447.48808 -10303973.75508  22810756.12708  22810757.15008         0.00001
 -25730345.31509 -20049579.27008  20476098.59009  20476099.00708         0.00001
  -9488072.06848  -7393290.06646         0.00041  23354323.59546  23354323.22448
   -762928.12748   -594463.53843         0.00041  25412954.85343  25412954.27548
 94 02 15 02 58 00.0000000  0  8 02 04 05 07 12 13 24 27
 -17913092.89848 -13958218.52547         0.00041  22093364.23347  22093364.36848
 -19635799.54949 -15300594.93547         0.00041  21495173.20947  21495174.20549
  -4798393.49948  -3739004.40845         0.00041  24449153.68945  24449153.32648
 -20648837.45149 -16089967.25447         0.00041  21419709.66247  21419709.67049
 -13307598.53708 -10369545.95608  22794742.71308  22794743.72708         0.00001
 -25745668.72709 -20061519.57208  20473182.60209  20473182.99908         0.00001
  -9592485.38948  -7474651.03446         0.00041  23334454.07146  23334454.04848
   -645352.82348   -502846.43443         0.00041  25435324.71343  25435328.01648
 94 02 15 02 58 30.0000000  0  8 02 04 05 07 12 13 24 27
 -17862680.11148 -13918935.82847         0.00041  22102957.78947  22102957.66848
 -19704457.02749 -15354094.24247         0.00041  21482108.10147  21482109.05249
  -4878120.40948  -3801129.17845         0.00041  24433983.68545  24433981.72348
 -20588563.92249 -16043000.85647         0.00041  21431179.24247  21431179.25949
 -13391564.61808 -10434974.02708  22778764.41408  22778765.48408         0.00001
 -25760432.00409 -20073023.40308  20470373.24009  20470373.61608         0.00001
  -9696748.21548  -7555894.71546         0.00041  23314614.82646  23314613.51348
   -527761.69847   -411217.04343         0.00041  25457701.41543  25457704.56147
 94 02 15 02 59 00.0000000  0  8 02 04 05 07 12 13 24 27
 -17812025.76248 -13879464.90046         0.00041  22112596.64346  22112596.85348
 -19772685.67849 -15407259.39747         0.00041  21469124.94747  21469125.63949
  -4957857.21848  -3863261.70545         0.00041  24418807.84845  24418808.53348
 -20528076.67049 -15995867.92547         0.00041  21442689.62447  21442689.57849
 -13475350.84508 -10500261.95208  22762820.43508  22762821.42508         0.00001
 -25774643.21009 -20084097.05108  20467668.91609  20467669.32108         0.00001
  -9800868.86148  -7637027.62846         0.00041  23294800.93046  23294799.88648
   -410153.79347   -319574.47643         0.00041  25480083.36543  25480084.68547
 94 02 15 02 59 30.0000000  0  8 02 04 05 07 12 13 24 27
 -17761112.85848 -13839792.50246         0.00041  22122285.15346  22122285.18548
 -19840468.66749 -15460077.28047         0.00041  21456226.05547  21456226.91749
  -5037585.64148  -3925387.69145         0.00041  24403638.72645  24403636.75548
 -20467375.81149 -15948568.54047         0.00041  21454240.51747  21454240.60449
 -13558947.15108 -10565401.88808  22746912.55008  22746913.51908         0.00001
 -25788295.68209 -20094735.32308  20465070.92609  20465071.31508         0.00001
  -9904839.88248  -7718043.93346         0.00041  23275015.93346  23275014.72548
   -292526.78847   -227917.18243         0.00041  25502468.37543  25502468.70547
 94 02 15 03 00 00.0000000  0  8 02 04 05 07 12 13 24 27
 -17709945.82448 -13799922.07746         0.00041  22132021.91746  22132022.05548
 -19907811.87349 -15512552.48247         0.00041  21443410.73247  21443411.96549
  -5117304.86848  -3987506.51345         0.00041  24388467.77245  24388466.32148
 -20406473.57649 -15901112.24347         0.00041  21465829.74547  21465829.87349
 -13642359.32608 -10630398.34108  22731039.74008  22731040.68408         0.00001
 -25801398.18809 -20104945.05008  20462577.56609  20462577.97708         0.00001
 -10008667.31348  -7798948.37946         0.00041  23255257.71346  23255256.91048
   -174891.50547   -136253.13543         0.00041  25524855.98743  25524853.86847
 94 02 15 03 00 30.0000000  0  8 02 04 05 07 12 13 24 27
 -17658541.72948 -13759866.93546         0.00041  22141803.74546  22141803.92648
 -19974716.49649 -15564685.92547         0.00041  21430679.56947  21430680.45149
  -5197028.89348  -4049629.04845         0.00041  24373297.61545  24373295.30148
 -20345377.59249 -15853504.96947         0.00041  21477456.06547  21477456.02149
 -13725599.21508 -10695260.54408  22715199.67308  22715200.58208         0.00001
 -25813965.83309 -20114737.99808  20460186.01009  20460186.43108         0.00001
 -10112366.77348  -7879753.09646         0.00041  23235524.62146  23235523.56448
    -57241.59247    -44577.96943         0.00041  25547244.08043  25547242.24947
 94 02 15 03 01 00.0000000  0  8 02 04 05 07 12 13 24 27
 -17606901.43548 -13719627.74246         0.00041  22151630.23146  22151630.59248
 -20041181.05649 -15616476.46547         0.00041  21418031.65347  21418032.63249
  -5276769.42148  -4111764.47845         0.00041  24358119.58645  24358120.98548
 -20284091.88749 -15805749.86247         0.00041  21489118.37747  21489118.34649
 -13808669.52208 -10759990.60508  22699391.87708  22699392.82008         0.00001
 -25826004.66809 -20124118.88808  20457895.07909  20457895.49708         0.00001
 -10215937.17748  -7960457.25746         0.00041  23215816.50546  23215814.88748
     60420.40447     47106.58742         0.00041  25569624.29842  25569632.52347
 94 02 15 03 01 30.0000000  0  8 02 04 05 07 12 13 24 27
 -17555040.40248 -13679216.54246         0.00041  22161499.34646  22161499.55248
 -20107206.80549 -15667925.07247         0.00041  21405467.10347  21405468.23449
  -5356555.95548  -4173935.76145         0.00041  24342940.56745  24342938.24148
 -20222623.90649 -15757852.72147         0.00041  21500815.43047  21500815.34249
 -13891567.12308 -10824586.09308  22683616.96708  22683617.85708         0.00001
 -25837514.79509 -20133087.80108  20455704.75109  20455705.17008         0.00001
 -10319374.88648  -8041058.02246         0.00041  23196131.73646  23196131.18948
    178094.60347    138801.00943         0.00041  25592029.10143  25592025.03447
 94 02 15 03 02 00.0000000  0  8 02 04 05 07 12 13 24 27
 -17502976.70448 -13638647.42146         0.00041  22171406.72446  22171406.95448
 -20172805.72049 -15719041.08247         0.00041  21392984.30947  21392985.18949
  -5436404.87248  -4236155.64945         0.00041  24327746.24945  24327743.20648
 -20160980.25149 -15709818.69047         0.00041  21512545.63347  21512545.80449
 -13974299.70408 -10889052.99408  22667873.39908  22667874.32508         0.00001
 -25848507.33609 -20141653.40408  20453612.94609  20453613.31508         0.00001
 -10422690.48748  -8121563.65246         0.00041  23176471.54246  23176470.83448
    295755.52947    230484.97042         0.00041  25614411.16242  25614416.97347
 94 02 15 03 02 30.0000000  0  7 02 04 05 07 12 13 24
 -17450700.21648 -13597912.49446         0.00041  22181355.20046  22181354.84348
 -20237956.26449 -15769807.71447         0.00041  21380586.38547  21380587.36749
  -5516296.70848  -4298408.95645         0.00041  24312541.02545  24312540.41748
 -20099144.22049 -15661634.75347         0.00041  21524312.49147  21524312.66749
 -14056846.59508 -10953375.20308  22652165.17508  22652166.16908         0.00001
 -25858964.88509 -20149802.13308  20451622.95209  20451623.31408         0.00001
 -10525864.44648  -8201958.89946         0.00041  23156838.55446  23156837.44848
 94 02 15 03 03 00.0000000  0  7 02 04 05 07 12 13 24
 -17398226.78448 -13557024.10446         0.00041  22191339.96946  22191340.12248
 -20302682.16449 -15820243.45547         0.00041  21368269.42947  21368270.50449
  -5596237.96348  -4360700.80745         0.00041  24297330.32845  24297328.08648
 -20037135.17549 -15613315.99947         0.00041  21536112.50247  21536112.53749
 -14139219.81808 -11017562.08708  22636490.05508  22636490.97808         0.00001
 -25868902.75709 -20157545.91908  20449731.82109  20449732.19808         0.00001
 -10628904.46948  -8282249.78946         0.00041  23137230.41846  23137229.62448
 94 02 15 03 03 30.0000000  0  8 02 04 05 07 09 12 13 24
 -17345536.79048 -13515966.96746         0.00041  22201366.54746  22201366.70448
 -20366950.40149 -15870322.57247         0.00041  21356039.61947  21356040.59949
  -5676198.74848  -4423007.89045         0.00041  24282113.12245  24282111.96948
 -19974928.62949 -15564843.34847         0.00041  21547949.87347  21547950.02649
        -1.11959        -0.28157         0.00051  21694285.66757  21694285.99959
 -14221389.01108 -11081589.98608  22620853.73808  22620854.70708         0.00001
 -25878294.05109 -20164863.79808  20447944.69209  20447945.10608         0.00001
 -10731780.85748  -8362413.17046         0.00041  23117653.32546  23117652.82648
 94 02 15 03 04 00.0000000  0  8 02 04 05 07 09 12 13 24
 -17292608.86748 -13474724.43046         0.00041  22211438.52446  22211438.53948
 -20430746.46249 -15920033.76147         0.00041  21343899.62547  21343900.67749
  -5756150.35748  -4485307.78745         0.00041  24266898.68945  24266897.73248
 -19912519.06349 -15516212.49847         0.00041  21559826.25347  21559826.31449
    -61525.41349    -47941.26547         0.00041  21682577.89247  21682578.31349
 -14303340.28608 -11145448.07808  22605258.85608  22605259.81708         0.00001
 -25887128.33009 -20171747.63808  20446263.58309  20446263.96308         0.00001
 -10834477.44448  -8442436.45646         0.00041  23098110.91946  23098110.26348
 94 02 15 03 04 30.0000000  0  8 02 04 05 07 09 12 13 24
 -17239453.50648 -13433304.66546         0.00041  22221553.88046  22221553.78748
 -20494074.19549 -15969380.02247         0.00041  21331848.65247  21331849.70049
  -5836114.53848  -4547617.48945         0.00041  24251679.93845  24251680.73448
 -19849926.00549 -15467438.66747         0.00041  21571737.07247  21571737.32549
   -122604.63549    -95535.44347         0.00041  21670955.26247  21670955.45049
 -14385083.09908 -11209143.73608  22589703.69908  22589704.64308         0.00001
 -25895418.58709 -20178207.56508  20444685.98009  20444686.37808         0.00001
 -10936993.69748  -8522319.19046         0.00041  23078602.45046  23078602.06548
 94 02 15 03 05 00.0000000  0  8 02 04 05 07 09 12 13 24
 -17186067.69948 -13391705.34246         0.00041  22231712.21346  22231712.78048
 -20556944.34449 -16018369.72247         0.00041  21319885.03047  21319885.99449
  -5916111.06148  -4609952.43245         0.00041  24236457.24645  24236458.20748
 -19787165.75849 -15418534.56547         0.00041  21583680.02447  21583680.19149
   -183257.57049   -142797.44747         0.00041  21659413.15247  21659413.53849
 -14466621.19008 -11272679.87208  22574187.47408  22574188.38808         0.00001
 -25903171.94009 -20184249.12908  20443210.57409  20443210.92208         0.00001
 -11039333.44948  -8602064.41946         0.00041  23059127.72946  23059127.37448
 94 02 15 03 05 30.0000000  0  8 02 04 05 07 09 12 13 24
 -17132448.45948 -13349924.11446         0.00041  22241916.10846  22241916.08248
 -20619354.03449 -16067000.62547         0.00041  21308008.96347  21308009.84549
  -5996143.37148  -4672315.21045         0.00041  24221227.21345  24221228.59148
 -19724243.14949 -15369503.94447         0.00041  21595653.66147  21595653.91649
   -243487.15549   -189729.56747         0.00041  21647951.79947  21647952.17549
 -14547951.49908 -11336054.10408  22558710.84608  22558711.71408         0.00001
 -25910388.92309 -20189872.74008  20441837.20909  20441837.60308         0.00001
 -11141502.01748  -8681676.25046         0.00041  23039685.60846  23039685.25248
 94 02 15 03 06 00.0000000  0  8 02 04 05 07 09 12 13 24
 -17078573.99748 -13307944.01946         0.00041  22252167.76046  22252168.01748
 -20681304.77649 -16115273.90647         0.00041  21296220.06247  21296220.93449
  -6076198.61248  -4734695.85545         0.00041  24205995.76445  24205994.49548
 -19661146.79349 -15320337.93847         0.00041  21607660.63347  21607660.74549
   -303290.86149   -236329.84147         0.00041  21636571.42347  21636571.98649
 -14629062.87508 -11399257.74208  22543275.85608  22543276.72608         0.00001
 -25917061.86009 -20195072.41808  20440567.37109  20440567.79308         0.00001
 -11243493.72648  -8761150.26246         0.00041  23020277.98846  23020276.93048
 94 02 15 03 06 30.0000000  0  8 02 04 05 07 09 12 13 24
 -17024454.54548 -13265773.02346         0.00041  22262466.10246  22262466.66848
 -20742787.62349 -16163182.59447         0.00041  21284520.06147  21284521.07849
  -6156271.24648  -4797090.10045         0.00041  24190759.22345  24190757.21448
 -19597873.69749 -15271034.20947         0.00041  21619701.02547  21619701.22949
   -362676.54849   -282604.38347         0.00041  21625270.69147  21625271.26149
 -14709955.56008 -11462290.97208  22527882.48908  22527883.27508         0.00001
 -25923194.58409 -20199851.15408  20439400.34209  20439400.71308         0.00001
 -11345315.20648  -8840491.63246         0.00041  23000901.58546  23000900.79648
 94 02 15 03 07 00.0000000  0  8 02 04 05 07 09 12 13 24
 -16970088.10548 -13223409.57146         0.00041  22272811.69246  22272812.28848
 -20803796.04749 -16210721.60347         0.00041  21272910.36047  21272911.57149
  -6236339.42648  -4859480.85245         0.00041  24175522.25545  24175520.35048
 -19534410.63749 -15221582.46347         0.00041  21631777.59747  21631777.73849
   -421628.30649   -328540.79647         0.00041  21614052.42147  21614053.02049
 -14790622.83208 -11525148.55608  22512531.96508  22512532.77908         0.00001
 -25928784.04509 -20204206.56708  20438336.72509  20438337.06908         0.00001
 -11446965.91048  -8919699.93046         0.00041  22981557.86446  22981557.29848
 94 02 15 03 07 30.0000000  0  8 02 04 05 07 09 12 13 24
 -16915483.94148 -13180860.87846         0.00041  22283202.53246  22283203.08648
 -20864325.27049 -16257887.20747         0.00041  21261392.24447  21261393.24649
  -6316398.76948  -4921864.70845         0.00041  24160286.77445  24160285.46048
 -19470746.45149 -15171973.99447         0.00041  21643892.67047  21643892.49849
   -480131.85449   -374127.95847         0.00041  21602919.95347  21602920.30249
 -14871067.54008 -11587832.71508  22497223.85008  22497224.61908         0.00001
 -25933836.54409 -20208143.56508  20437375.24309  20437375.59108         0.00001
 -11548448.04448  -8998776.87746         0.00041  22962245.85146  22962245.69548
 94 02 15 03 08 00.0000000  0  8 02 04 05 07 09 12 13 24
 -16860648.62648 -13138132.06446         0.00041  22293637.25046  22293638.00348
 -20924374.73349 -16304678.97447         0.00041  21249965.14447  21249966.20749
  -6396464.86348  -4984253.57445         0.00041  24145050.40745  24145049.50248
 -19406881.84949 -15122209.35747         0.00041  21656045.37047  21656045.59149
   -538190.93649   -419368.77747         0.00041  21591871.46647  21591872.02049
 -14951295.95108 -11650348.33408  22481956.91008  22481957.65708         0.00001
 -25938362.26709 -20211670.08908  20436514.02809  20436514.36408         0.00001
 -11649764.99148  -9077725.10546         0.00041  22942965.73146  22942965.73548
 94 02 15 03 08 30.0000000  0  8 02 04 05 07 09 12 13 24
 -16805583.49548 -13095224.17046         0.00041  22304116.16646  22304116.39648
 -20983928.69849 -16351084.64147         0.00041  21238632.28547  21238633.42149
  -6476545.36148  -5046653.16645         0.00041  24129810.23345  24129810.88848
 -19342823.56149 -15072293.80047         0.00041  21668235.44547  21668235.62149
   -595789.34049   -464250.63047         0.00041  21580910.80147  21580911.26249
 -15031301.29408 -11712690.13408  22466732.35408  22466733.13708         0.00001
 -25942357.76109 -20214783.44708  20435753.68709  20435754.02208         0.00001
 -11750900.59748  -9156532.03446         0.00041  22923720.69446  22923720.37948
 94 02 15 03 09 00.0000000  0  8 02 04 05 07 09 12 13 24
 -16750295.87248 -13052142.90746         0.00041  22314637.21646  22314637.29648
 -21043033.09849 -16397139.99647         0.00041  21227385.22447  21227386.17749
  -6556689.18548  -5109102.86745         0.00041  24114562.69245  24114560.15048
 -19278603.12649 -15022251.89447         0.00041  21680456.14047  21680456.36949
   -652936.63349   -508780.96547         0.00041  21570035.95547  21570036.56549
 -15111107.41508 -11774876.69508  22451545.72008  22451546.45108         0.00001
 -25945850.89709 -20217505.36208  20435088.96509  20435089.30508         0.00001
 -11851875.32148  -9235213.58946         0.00041  22904506.55646  22904505.67148
 94 02 15 03 09 30.0000000  0  8 02 04 05 07 09 12 13 24
 -16694751.63948 -13008861.69746         0.00041  22325206.66346  22325206.99548
 -21101674.65249 -16442834.69047         0.00041  21216226.04347  21216227.11549
  -6636891.45948  -5171598.09745         0.00041  24099299.11945  24099298.03348
 -19214213.42849 -14972078.09147         0.00041  21692709.35947  21692709.31049
   -709612.59249   -552944.02647         0.00041  21559250.65547  21559251.32349
 -15190689.90408 -11836888.99708  22436401.63008  22436402.42908         0.00001
 -25948820.74809 -20219819.52008  20434523.80409  20434524.16908         0.00001
 -11952659.88448  -9313746.96846         0.00041  22885327.08746  22885326.86048
 94 02 15 03 10 00.0000000  0  8 02 04 05 07 09 12 13 24
 -16638947.38648 -12965377.87046         0.00041  22335826.23946  22335826.29948
 -21159842.83849 -16488160.52847         0.00041  21205157.17047  21205158.09849
  -6717141.80648  -5234130.81245         0.00041  24084027.14845  24084026.89148
 -19149673.32249 -14921787.09447         0.00041  21704990.79247  21704990.77349
   -765819.61649   -596741.68747         0.00041  21548554.94347  21548555.49549
 -15270039.87608 -11898720.12108  22421301.82608  22421302.60608         0.00001
 -25951262.15009 -20221721.89708  20434059.20309  20434059.55608         0.00001
 -12053233.93248  -9392116.31546         0.00041  22866189.29146  22866188.10148
 94 02 15 03 10 30.0000000  0  8 02 04 05 07 09 12 13 24
 -16582870.40748 -12921681.53046         0.00041  22346497.17946  22346497.38148
 -21217519.85649 -16533103.63747         0.00041  21194181.41547  21194182.41849
  -6797404.44148  -5296673.11345         0.00041  24068754.92345  24068753.23648
 -19084972.08949 -14871370.54247         0.00041  21717302.80747  21717303.02849
   -821533.10949   -640154.77847         0.00041  21537953.15347  21537953.48649
 -15349135.28308 -11960352.88308  22406250.47608  22406251.18408         0.00001
 -25953157.06909 -20223198.44208  20433698.59609  20433698.94608         0.00001
 -12153563.55948  -9470295.20846         0.00041  22847096.88046  22847096.02148
 94 02 15 03 11 00.0000000  0  8 02 04 05 07 09 12 13 24
 -16526555.55948 -12877799.82946         0.00041  22357213.22246  22357213.66448
 -21274724.61249 -16577678.74647         0.00041  21183295.52447  21183296.71449
  -6877701.31848  -5359242.06945         0.00041  24053474.39345  24053473.39148
 -19020130.28849 -14820844.45347         0.00041  21729641.96147  21729642.09349
   -876792.72549   -683214.19447         0.00041  21527437.47547  21527437.91549
 -15427999.37408 -12021805.39808  22391243.14908  22391243.82408         0.00001
 -25954532.31409 -20224270.04808  20433436.87309  20433437.22408         0.00001
 -12253670.65148  -9548300.69846         0.00041  22828046.72546  22828046.32148
 94 02 15 03 11 30.0000000  0  8 02 04 05 07 09 12 13 24
 -16470015.01348 -12833742.26846         0.00041  22367972.99746  22367973.07748
 -21331430.42349 -16621865.07147         0.00041  21172504.98347  21172505.98349
  -6958012.88248  -5421822.49845         0.00041  24038192.47745  24038190.60548
 -18955147.15349 -14770208.23447         0.00041  21742007.80147  21742008.00249
   -931607.01049   -725926.60347         0.00041  21517006.55047  21517007.05949
 -15506627.14708 -12083073.77108  22376280.75508  22376281.41908         0.00001
 -25955386.57309 -20224935.69308  20433274.29809  20433274.62708         0.00001
 -12353547.85548  -9626127.06046         0.00041  22809041.45446  22809040.28248
 94 02 15 03 12 00.0000000  0  8 02 04 05 07 09 12 13 24
 -16413253.21348 -12789512.29046         0.00041  22378774.47646  22378774.36248
 -21387614.31849 -16665644.70848         0.00041  21161813.43948  21161814.45849
  -7038311.32548  -5484392.66745         0.00041  24022909.71345  24022910.36348
 -18890003.99349 -14719447.32047         0.00041  21754403.92947  21754404.23449
   -985975.74249   -768291.83047         0.00041  21506660.39447  21506661.19649
 -15585011.25508 -12144152.27708  22361364.74908  22361365.42008         0.00001
 -25955716.69809 -20225192.92108  20433211.45909  20433211.81008         0.00001
 -12453202.16148  -9703779.72846         0.00041  22790077.06946  22790076.62548
 94 02 15 03 12 30.0000000  0  8 02 04 05 07 09 12 13 24
 -16356249.63048 -12745093.91746         0.00041  22389621.20546  22389621.73248
 -21443261.31649 -16709005.98348         0.00041  21151224.19248  21151225.20049
  -7118593.17648  -5546949.91945         0.00041  24007633.73345  24007633.37748
 -18824667.73249 -14668535.94147         0.00041  21766837.17547  21766837.37749
  -1039882.53049   -810297.10247         0.00041  21496402.48947  21496402.99949
 -15663136.87208 -12205029.35708  22346497.89708  22346498.57508         0.00001
 -25955511.46909 -20225032.99108  20433250.51909  20433250.85008         0.00001
 -12552631.36548  -9781256.98746         0.00041  22771156.41446  22771155.92848
 94 02 15 03 13 00.0000000  0  8 02 04 05 07 09 12 13 24
 -16299012.14548 -12700493.27946         0.00041  22400513.81546  22400513.71448
 -21498390.68949 -16751963.91348         0.00041  21140733.36848  21140734.42249
  -7198893.36748  -5609521.42945         0.00041  23992353.25745  23992352.54448
 -18759152.14249 -14617484.82247         0.00041  21779304.29247  21779304.56349
  -1093360.57349   -851968.28647         0.00041  21486225.83247  21486226.42549
 -15741022.29608 -12265719.27608  22331676.76808  22331677.48008         0.00001
 -25954793.11509 -20224473.22008  20433387.19909  20433387.52108         0.00001
 -12651872.84548  -9858587.97646         0.00041  22752270.64146  22752270.86448
 94 02 15 03 13 30.0000000  0  8 02 04 05 07 09 12 13 24
 -16241547.06548 -12655715.29446         0.00041  22411448.87146  22411448.93948
 -21553025.91649 -16794536.79648         0.00041  21130336.71748  21130337.73849
  -7279211.75448  -5672107.13445         0.00041  23977068.46945  23977068.27248
 -18693467.47349 -14566301.95047         0.00041  21791803.91047  21791803.85249
  -1146413.65549   -893308.33247         0.00041  21476130.29247  21476130.80849
 -15818676.71408 -12326229.19008  22316899.66108  22316900.30808         0.00001
 -25953574.78309 -20223523.85808  20433619.02909  20433619.34708         0.00001
 -12750941.69048  -9935784.43846         0.00041  22733418.95746  22733418.48548
 94 02 15 03 14 00.0000000  0  8 02 04 05 07 09 12 13 24
 -16183848.36948 -12610755.26746         0.00041  22422428.77046  22422428.77348
 -21607169.03049 -16836726.21048         0.00041  21120033.41748  21120034.59349
  -7359541.54348  -5734701.67145         0.00041  23961783.13345  23961782.12348
 -18627612.18149 -14514986.12547         0.00041  21804335.43547  21804335.63149
  -1199032.47849   -934309.99647         0.00041  21466117.12047  21466117.63549
 -15896090.26008 -12386551.41008  22302168.31008  22302168.94708         0.00001
 -25951850.50909 -20222180.25508  20433947.15709  20433947.48208         0.00001
 -12849818.76848 -10012831.48546         0.00041  22714603.24946  22714602.73948
 94 02 15 03 14 30.0000000  0  8 02 04 05 07 09 12 13 24
 -16125898.22348 -12565599.30146         0.00041  22433456.26746  22433456.26148
 -21660814.72949 -16878528.03048         0.00041  21109825.05048  21109826.01849
  -7439888.80548  -5797309.87146         0.00041  23946492.32246  23946492.51448
 -18561582.63649 -14463534.51847         0.00041  21816900.61447  21816900.82149
  -1251193.47849   -974954.91347         0.00041  21456191.45447  21456191.95549
 -15973241.35008 -12446669.11608  22287486.91708  22287487.57808         0.00001
 -25949602.41009 -20220428.47508  20434374.95009  20434375.24908         0.00001
 -12948470.84548 -10089703.20246         0.00041  22695830.39646  22695829.98648
 94 02 15 03 15 00.0000000  0  8 02 04 05 07 09 12 13 24
 -16067702.44848 -12520251.92946         0.00041  22444530.05446  22444530.64648
 -21713969.96449 -16919947.66948         0.00041  21099709.91848  21099710.92349
  -7520244.62748  -5859924.69646         0.00041  23931201.88546  23931201.20048
 -18495394.39149 -14411959.25147         0.00041  21829495.57347  21829495.87849
  -1302898.63649  -1015244.62947         0.00041  21446351.99247  21446352.75149
 -16050127.43108 -12506580.32308  22272855.95708  22272856.59908         0.00001
 -25946832.26209 -20218269.90308  20434902.05809  20434902.36008         0.00001
 -13046900.63948 -10166401.70646         0.00041  22677099.72046  22677099.25248
 94 02 15 03 15 30.0000000  0  8 02 04 05 07 09 12 13 24
 -16009286.79548 -12474733.23546         0.00041  22455646.58046  22455646.60448
 -21766646.50249 -16960994.29848         0.00041  21089685.73648  21089686.86549
  -7600616.11348  -5922551.73845         0.00041  23915905.45645  23915906.96048
 -18429073.54749 -14360280.65447         0.00041  21842116.09847  21842116.30349
  -1354143.90849  -1055175.99647         0.00041  21436600.26147  21436600.99849
 -16126759.89708 -12566293.90508  22258273.22208  22258273.89108         0.00001
 -25943555.22609 -20215716.35208  20435525.65609  20435525.93408         0.00001
 -13145108.86548 -10242927.56646         0.00041  22658410.89646  22658410.99248
 94 02 15 03 16 00.0000000  0  8 02 04 05 07 09 12 13 24
 -15950637.37848 -12429032.38246         0.00041  22466807.64346  22466807.33848
 -21818825.40049 -17001653.15548         0.00041  21079756.41448  21079757.53549
  -7681005.93548  -5985193.04746         0.00041  23900611.04246  23900609.09748
 -18362618.86849 -14308497.77147         0.00041  21854762.14647  21854762.31749
  -1404914.81249  -1094737.72247         0.00041  21426938.92447  21426939.65349
 -16203128.08208 -12625801.55108  22243740.84408  22243741.45608         0.00001
 -25939764.64509 -20212762.63508  20436246.96409  20436247.24208         0.00001
 -13243090.26248 -10319276.68246         0.00041  22639766.20846  22639765.72048
 94 02 15 03 16 30.0000000  0  8 02 04 05 07 09 12 13 24
 -15891741.95648 -12383139.84046         0.00041  22478014.43146  22478014.73748
 -21870503.24449 -17041921.58248         0.00041  21069922.45448  21069923.65049
  -7761411.34248  -6047846.50546         0.00041  23885307.64446  23885308.42748
 -18296022.78249 -14256604.70347         0.00041  21867434.83647  21867435.07849
  -1455196.94149  -1133918.58847         0.00041  21417370.58147  21417371.19649
 -16279224.78308 -12685097.65008  22229260.07808  22229260.75608         0.00001
 -25935457.51309 -20209406.41408  20437066.55009  20437066.86108         0.00001
 -13340856.57748 -10395458.20146         0.00041  22621161.56446  22621161.38248
 94 02 15 03 17 00.0000000  0  8 02 04 05 07 09 12 13 24
 -15832595.40648 -12337051.60646         0.00041  22489269.95946  22489269.99448
 -21921670.21849 -17081791.92448         0.00041  21060185.56448  21060186.75949
  -7841809.26148  -6110494.13146         0.00041  23870009.28046  23870009.07448
 -18229282.00349 -14204598.88747         0.00041  21880135.12647  21880135.37449
  -1504986.72449  -1172715.80447         0.00041  21407896.08147  21407896.61949
 -16355043.85808 -12744177.41908  22214832.15008  22214832.81208         0.00001
 -25930631.64209 -20205645.98008  20437984.87609  20437985.17608         0.00001
 -13438389.45448 -10471457.82746         0.00041  22602601.88346  22602601.30448
 94 02 15 03 17 30.0000000  0  8 02 04 05 07 09 12 13 24
 -15773213.64648 -12290780.10346         0.00041  22500569.86646  22500569.77848
 -21972336.96049 -17121272.47948         0.00041  21050544.16348  21050545.21149
  -7922226.84548  -6173157.10045         0.00041  23854706.69445  23854705.93448
 -18162406.04049 -14152487.73347         0.00041  21892861.16347  21892861.48049
  -1554290.84649  -1211134.58447         0.00041  21398513.62947  21398514.25149
 -16430605.67908 -12803056.73108  22200453.20208  22200453.84808         0.00001
 -25925311.39109 -20201500.31208  20438997.27509  20438997.59108         0.00001
 -13535687.21648 -10547274.23446         0.00041  22584086.58246  22584086.23048
 94 02 15 03 18 00.0000000  0  8 02 04 05 07 09 12 13 24
 -15713580.82748 -12244312.96646         0.00041  22511917.81746  22511917.68548
 -22022481.61749 -17160346.21048         0.00041  21041001.94248  21041003.01649
  -8002644.42148  -6235820.03346         0.00041  23839402.53046  23839402.99948
 -18095377.03949 -14100257.32747         0.00041  21905616.40547  21905616.64249
  -1603097.11549  -1249165.43147         0.00041  21389226.20447  21389226.75349
 -16505894.01308 -12861722.93608  22186126.28408  22186126.94408         0.00001
 -25919484.81109 -20196960.10408  20440106.04809  20440106.28908         0.00001
 -13632736.50248 -10622897.03046         0.00041  22565618.69946  22565618.42048
 94 02 15 03 18 30.0000000  0  8 02 04 05 07 09 12 13 24
 -15653695.07948 -12197648.73946         0.00041  22523313.18246  22523313.46948
 -22072105.30649 -17199013.99648         0.00041  21031558.75348  21031559.94649
  -8083047.65948  -6298471.84246         0.00041  23824103.72546  23824102.95848
 -18028192.68949 -14047905.87047         0.00041  21918401.18647  21918401.42849
  -1651411.68349  -1286813.13247         0.00041  21380032.07147  21380032.55549
 -16580902.78908 -12920171.30108  22171852.52708  22171853.23208         0.00001
 -25913149.80109 -20192023.71808  20441311.53709  20441311.81008         0.00001
 -13729520.46248 -10698313.07546         0.00041  22547201.25346  22547200.97048
 94 02 15 03 19 00.0000000  0  8 02 04 05 07 09 12 13 24
 -15593586.96548 -12150811.23946         0.00041  22534751.53746  22534751.65548
 -22121223.13949 -17237287.60548         0.00041  21022211.72848  21022213.03949
  -8163463.92848  -6361133.77846         0.00041  23808800.93446  23808800.28148
 -17960880.27849 -13995454.62647         0.00041  21931210.43147  21931210.53249
  -1699255.59049  -1324094.08147         0.00041  21370927.61547  21370928.19649
 -16655657.58408 -12978421.76208  22157627.15908  22157627.81708         0.00001
 -25906336.26209 -20186714.45208  20442608.08509  20442608.39008         0.00001
 -13826056.00948 -10773535.55746         0.00041  22528831.21546  22528830.81348
 94 02 15 03 19 30.0000000  0  8 02 04 05 07 09 12 13 24
 -15533248.66548 -12103794.37446         0.00041  22546233.64146  22546233.60048
 -22169822.11949 -17275156.91448         0.00041  21012963.91848  21012965.05049
  -8243893.60948  -6423806.16646         0.00041  23793495.81246  23793494.92148
 -17893436.33449 -13942900.89047         0.00041  21944044.69647  21944044.59349
  -1746610.18349  -1360993.75147         0.00041  21361916.50747  21361917.02849
 -16730146.40508 -13036464.97408  22143452.37308  22143453.09408         0.00001
 -25899036.00609 -20181025.92808  20443997.25209  20443997.55808         0.00001
 -13922357.41948 -10848575.59146         0.00041  22510505.66646  22510505.24648
 94 02 15 03 20 00.0000000  0  8 02 04 05 07 09 12 13 24
 -15472981.21848 -12056832.72846         0.00041  22557702.21346  22557702.10348
 -22218211.51249 -17312862.90948         0.00041  21003755.75748  21003756.77449
  -8324635.67848  -6486721.99246         0.00041  23778129.73146  23778129.96248
 -17826184.98549 -13890497.23447         0.00041  21956842.09347  21956842.18249
  -1793789.42049  -1397756.77547         0.00041  21352938.46647  21352939.10749
 -16804664.16708 -13094530.73808  22129272.14008  22129272.79408         0.00001
 -25891548.24209 -20175191.29208  20445422.11709  20445422.41308         0.00001
 -14018739.59448 -10923678.57246         0.00041  22492165.07246  22492164.37248
 94 02 15 03 20 30.0000000  0  8 02 04 05 07 09 12 13 24
 -15412708.03648 -12009866.61446         0.00041  22569172.18246  22569171.83248
 -22266311.87649 -17350343.68548         0.00041  20994602.43848  20994603.52749
  -8405622.91048  -6549828.85046         0.00041  23762719.21546  23762718.34748
 -17759056.22849 -13838189.09947         0.00041  21969616.45347  21969616.50749
  -1840707.29549  -1434316.14347         0.00041  21344010.41247  21344010.89549
 -16879129.88208 -13152555.94808  22115101.74108  22115102.43208         0.00001
 -25883796.38609 -20169150.87208  20446897.24309  20446897.51208         0.00001
 -14115116.84248 -10998777.70046         0.00041  22473824.03246  22473824.33248
 94 02 15 03 21 00.0000000  0  8 02 04 05 07 09 12 13 24
 -15351592.35648 -11962244.01046         0.00041  22580801.55046  22580801.88148
 -22313274.33949 -17386937.79048         0.00041  20985665.69148  20985666.80349
  -8486033.19348  -6612486.16046         0.00041  23747417.18046  23747416.96348
 -17691213.03149 -13785324.26247         0.00041  21982526.43547  21982526.59149
  -1886510.68549  -1470007.08247         0.00041  21335294.17747  21335294.86649
 -16952702.35008 -13209885.12308  22101101.36408  22101102.01608         0.00001
 -25874943.15109 -20162252.23308  20448581.91909  20448582.22208         0.00001
 -14210643.86648 -11073214.31746         0.00041  22455646.51346  22455646.18248
 94 02 15 03 21 30.0000000  0  8 02 04 05 07 09 12 13 24
 -15290141.30048 -11914360.07446         0.00041  22592495.05146  22592495.66748
 -22359614.80549 -17423047.21848         0.00041  20976847.26648  20976848.46049
  -8566375.30248  -6675090.32546         0.00041  23732127.28646  23732128.42148
 -17623162.31049 -13732297.71647         0.00041  21995475.72247  21995476.03849
  -1931725.21749  -1505239.17247         0.00041  21326690.23247  21326690.75549
 -17025885.49108 -13266910.92508  22087175.06008  22087175.71508         0.00001
 -25865496.84809 -20154891.46308  20450379.49809  20450379.78408         0.00001
 -14305815.89148 -11147374.32246         0.00041  22437535.50146  22437535.46748
 94 02 15 03 22 00.0000000  0  8 02 04 05 07 09 12 13 24
 -15228446.84648 -11866286.46646         0.00041  22604235.37346  22604235.67648
 -22405414.95049 -17458735.61948         0.00041  20968131.73848  20968132.88449
  -8646730.60548  -6737704.81446         0.00041  23716838.80746  23716837.20048
 -17554973.08649 -13679163.24747         0.00041  22008451.42647  22008452.05749
  -1976433.29449  -1540076.61647         0.00041  21318182.28147  21318183.10249
 -17098763.47708 -13323698.94708  22073306.85308  22073307.48408         0.00001
 -25855545.86709 -20147137.43708  20452273.11209  20452273.41408         0.00001
 -14400696.02748 -11221306.86746         0.00041  22419480.67646  22419480.39948
 94 02 15 03 22 30.0000000  0  8 02 04 05 07 09 12 13 24
 -15166548.46548 -11818053.96646         0.00041  22616014.17946  22616014.42548
 -22450704.80649 -17494026.39248         0.00041  20959513.44348  20959514.48349
  -8727136.80748  -6800358.96046         0.00041  23701537.06046  23701536.43448
 -17486667.24148 -13625937.90747         0.00041  22021449.86147  22021450.12048
  -2020667.13949  -1574544.53147         0.00041  21309764.90147  21309765.61149
 -17171374.56308 -13380278.99408  22059489.40408  22059490.01608         0.00001
 -25845132.54509 -20139023.14508  20454254.69009  20454254.97108         0.00001
 -14495301.96648 -11295025.76746         0.00041  22401477.89946  22401477.45348
 94 02 15 03 23 00.0000000  0  8 02 04 05 07 09 12 13 24
 -15104432.21548 -11769651.69946         0.00041  22627834.77946  22627834.83048
 -22495476.90949 -17528913.72348         0.00041  20950993.48848  20950994.63949
  -8807579.75348  -6863041.72246         0.00041  23686227.98746  23686228.50348
 -17418223.03148 -13572604.75447         0.00041  22034474.56747  22034474.72848
  -2064422.94149  -1608639.94448         0.00041  21301438.65548  21301439.16449
 -17243708.51808 -13436643.09508  22045724.71208  22045725.30808         0.00001
 -25834251.06609 -20130544.05508  20456325.33609  20456325.65208         0.00001
 -14589634.55848 -11368531.66346         0.00041  22383526.25446  22383526.53848
 94 02 15 03 23 30.0000000  0  8 02 04 05 07 09 12 13 24
 -15042125.09348 -11721100.70046         0.00041  22639691.26346  22639691.44848
 -22539750.11649 -17563412.30148         0.00041  20942568.69548  20942569.81149
  -8888056.31848  -6925750.70846         0.00041  23670913.51546  23670914.15248
 -17349663.63548 -13519181.84347         0.00041  22047520.85347  22047521.05748
  -2107714.62649  -1642373.70948         0.00041  21293200.30648  21293200.94849
 -17315781.95908 -13492804.19908  22032009.58108  22032010.15708         0.00001
 -25822922.38309 -20121716.49508  20458481.09809  20458481.38908         0.00001
 -14683732.13848 -11441854.43446         0.00041  22365620.46846  22365620.30548
 94 02 15 03 24 00.0000000  0  8 02 04 05 07 09 12 13 24
 -14979596.20948 -11672376.89846         0.00041  22651589.49246  22651590.27548
 -22583495.43849 -17597499.54448         0.00041  20934244.14348  20934245.38449
  -8968535.75548  -6988461.91846         0.00041  23655599.78646  23655599.41148
 -17280978.12848 -13465660.66147         0.00041  22060590.91047  22060591.39048
  -2150505.15849  -1675716.96148         0.00041  21285057.49448  21285058.10849
 -17387572.74508 -13548745.05208  22018348.21308  22018348.83008         0.00001
 -25811128.47009 -20112526.41808  20460725.40709  20460725.65608         0.00001
 -14777582.07948 -11514984.23946         0.00041  22347761.65046  22347761.31448
 94 02 15 03 24 30.0000000  0  8 02 04 05 07 09 12 13 24
 -14916823.43848 -11623463.06046         0.00041  22663535.26146  22663535.65748
 -22626706.84949 -17631170.75048         0.00041  20926021.26548  20926022.51149
  -9049007.12348  -7051166.83546         0.00041  23640287.05546  23640286.29848
 -17212172.22448 -13412045.66847         0.00041  22073684.49447  22073684.77048
  -2192796.05749  -1708670.89448         0.00041  21277009.93148  21277010.60749
 -17459067.20308 -13604455.00108  22004743.25208  22004743.83908         0.00001
 -25798860.12209 -20102966.65408  20463059.97609  20463060.23608         0.00001
 -14871187.97248 -11587923.87946         0.00041  22329948.87546  22329948.71548
 94 02 15 03 25 00.0000000  0  8 02 04 05 07 09 12 13 24
 -14853818.56748 -11574368.36346         0.00041  22675524.44846  22675524.96048
 -22669394.38149 -17664433.74048         0.00041  20917898.01948  20917899.28849
  -9129465.30448  -7113861.48446         0.00041  23624975.14646  23624975.72848
 -17143249.65948 -13358339.76547         0.00041  22086799.88347  22086800.34748
  -2234585.71849  -1741234.25048         0.00041  21269057.58348  21269058.29949
 -17530266.41208 -13659934.88608  21991194.48608  21991195.07808         0.00001
 -25786122.87709 -20093041.51408  20465483.79009  20465484.04608         0.00001
 -14964573.65348 -11660691.92646         0.00041  22312178.42546  22312177.99548
 94 02 15 03 25 30.0000000  0  8 02 04 05 07 09 12 13 24
 -14790588.39748 -11525098.10946         0.00041  22687556.71046  22687557.28548
 -22711566.25349 -17697294.91748         0.00041  20909873.04848  20909874.31649
  -9209915.81448  -7176550.14946         0.00041  23609666.95446  23609666.36248
 -17074233.20748 -13304560.71447         0.00041  22099933.41447  22099933.84148
  -2275882.47549  -1773413.52748         0.00041  21261199.10148  21261199.91249
 -17601172.29108 -13715186.20208  21977701.49708  21977702.11108         0.00001
 -25772922.77809 -20082755.71008  20467995.69409  20467995.95008         0.00001
 -15057726.34948 -11733278.42846         0.00041  22294451.94246  22294451.60948
 94 02 15 03 26 00.0000000  0  8 02 04 05 07 09 12 13 24
 -14727099.62248 -11475626.35046         0.00041  22699639.18246  22699638.88348
 -22753205.44049 -17729741.01448         0.00041  20901949.41848  20901950.63549
  -9290356.23648  -7239230.94046         0.00041  23594358.55446  23594358.85948
 -17005095.18848 -13250686.92847         0.00041  22113089.89147  22113090.36048
  -2316671.20449  -1805196.94348         0.00041  21253437.27348  21253438.09449
 -17671758.31008 -13770188.27608  21964269.43108  21964270.00808         0.00001
 -25759237.58009 -20072091.90608  20470599.86609  20470600.12708         0.00001
 -15150599.56748 -11805647.15146         0.00041  22276779.27546  22276778.41148
 94 02 15 03 26 30.0000000  0  8 02 04 05 07 09 12 13 24
 -14663359.40848 -11425958.65246         0.00041  22711767.83946  22711768.18948
 -22794299.56049 -17761762.38448         0.00041  20894129.34948  20894130.55749
  -9370794.02948  -7301909.71746         0.00041  23579051.66646  23579051.95448
 -16935832.95248 -13196716.34947         0.00041  22126269.87347  22126270.51448
  -2356951.55549  -1836584.21448         0.00041  21245772.13248  21245772.88649
 -17742012.80508 -13824932.02008  21950900.43908  21950901.05108         0.00001
 -25745060.31809 -20061044.67908  20473297.69109  20473297.96408         0.00001
 -15243176.85448 -11877785.28246         0.00041  22259161.71846  22259161.51748
 94 02 15 03 27 00.0000000  0  8 02 04 05 07 09 12 13 24
 -14599384.38548 -11376107.99546         0.00041  22723942.61746  22723942.23048
 -22834855.20549 -17793364.16348         0.00041  20886411.76348  20886413.05749
  -9451237.78348  -7364593.10046         0.00041  23563744.65246  23563744.29148
 -16866466.28348 -13142664.39047         0.00041  22139470.38647  22139470.58348
  -2396732.64449  -1867582.45348         0.00041  21238201.99848  21238202.83749
 -17811948.83408 -13879427.60908  21937592.05208  21937592.61708         0.00001
 -25730408.27409 -20049627.49108  20476085.86409  20476086.14708         0.00001
 -15335447.57748 -11949684.52446         0.00041  22241603.20246  22241602.94248
 94 02 15 03 27 30.0000000  0  8 02 04 05 07 09 12 13 24
 -14535150.66748 -11326055.76346         0.00041  22736164.73946  22736165.36348
 -22874852.09649 -17824530.54848         0.00041  20878800.70748  20878801.96049
  -9531695.17748  -7427287.13346         0.00041  23548433.64946  23548433.66048
 -16796997.11648 -13088532.56747         0.00041  22152689.81247  22152690.11748
  -2436004.75149  -1898184.08248         0.00041  21230728.67148  21230729.46749
 -17881554.51908 -13933665.78608  21924346.48408  21924347.08208         0.00001
 -25715273.77009 -20037834.35908  20478965.85409  20478966.09708         0.00001
 -15427377.48848 -12021318.20546         0.00041  22224109.12746  22224109.31848
 94 02 15 03 28 00.0000000  0  8 02 04 05 07 09 12 13 24
 -14470663.21148 -11275805.80646         0.00041  22748436.40046  22748436.83548
 -22914293.25549 -17855263.89648         0.00041  20871295.25748  20871296.58549
  -9612172.59548  -7489996.77046         0.00041  23533119.21546  23533119.18348
 -16727430.72448 -13034324.98447         0.00041  22165927.99947  22165928.10848
  -2474775.80649  -1928395.28548         0.00041  21223350.76148  21223351.48249
 -17950841.28608 -13987655.45708  21911161.62508  21911162.23608         0.00001
 -25699672.80109 -20025677.74908  20481934.59509  20481934.87708         0.00001
 -15518993.36648 -12092707.18246         0.00041  22206675.39846  22206675.38048
 94 02 15 03 28 30.0000000  0  8 02 04 05 07 09 12 13 24
 -14405925.85348 -11225361.11846         0.00041  22760755.63946  22760756.04748
 -22953174.94649 -17885561.29648         0.00041  20863896.32748  20863897.59149
  -9692644.47648  -7552702.08346         0.00041  23517806.63746  23517805.83548
 -16657770.05848 -12980043.94047         0.00041  22179183.85547  22179184.09748
  -2513034.15249  -1958206.97348         0.00041  21216070.49248  21216071.20749
 -18019807.01108 -14041394.96508  21898037.89608  21898038.46208         0.00001
 -25683607.71609 -20013159.49008  20484991.68509  20484991.93208         0.00001
 -15610304.79548 -12163858.92446         0.00041  22189299.41746  22189299.30848
 94 02 15 03 29 00.0000000  0  8 02 04 05 07 09 12 13 24
 -14340938.03348 -11174721.26246         0.00041  22773123.26846  22773122.99448
 -22991507.89049 -17915431.10148         0.00041  20856601.77748  20856603.07049
  -9773104.50448  -7615398.15846         0.00041  23502495.21046  23502494.82148
 -16588005.10448 -12925681.63047         0.00041  22192459.65247  22192459.98548
  -2550760.89449  -1987604.42448         0.00041  21208891.39348  21208892.07849
 -18088455.82108 -14094887.52708  21884974.42708  21884974.99008         0.00001
 -25667087.16709 -20000286.32408  20488135.45809  20488135.67008         0.00001
 -15701328.96748 -12234786.82246         0.00041  22171978.30946  22171978.04248
 94 02 15 03 29 30.0000000  0  8 02 04 05 07 09 12 13 24
 -14275704.04348 -11123889.59546         0.00041  22785535.93646  22785536.49048
 -23029294.38149 -17944875.09848         0.00041  20849411.15148  20849412.47149
  -9853558.75448  -7678089.73346         0.00041  23487183.91446  23487184.82848
 -16518120.76248 -12871226.29047         0.00041  22205757.90647  22205758.49048
  -2587947.92749  -2016581.32148         0.00041  21201814.79448  21201815.60549
 -18156782.69608 -14148129.23208  21871972.27708  21871972.79508         0.00001
 -25650110.39309 -19987057.65808  20491366.01809  20491366.24808         0.00001
 -15792084.19448 -12305505.15546         0.00041  22154708.00746  22154707.81248
 94 02 15 03 30 00.0000000  0  8 02 04 05 07 09 12 13 24
 -14210241.38148 -11072879.73846         0.00041  22797993.64846  22797993.63948
 -23066544.34649 -17973901.02348         0.00041  20842322.83448  20842324.09149
  -9933993.14448  -7740765.82846         0.00041  23471878.16746  23471878.43348
 -16448116.22148 -12816677.29147         0.00041  22219079.62947  22219079.96048
  -2624604.76349  -2045145.07948         0.00041  21194839.39048  21194840.10949
 -18224788.72308 -14201120.92508  21859031.14808  21859031.67208         0.00001
 -25632682.86409 -19973477.75508  20494682.36309  20494682.56208         0.00001
 -15882581.64748 -12376022.62146         0.00041  22137486.81846  22137486.79448
 94 02 15 03 30 30.0000000  0  8 02 04 05 07 09 12 13 24
 -14144559.65548 -11021699.17946         0.00041  22810491.83446  22810492.28248
 -23103262.02749 -18002512.18348         0.00041  20835335.57448  20835336.80649
 -10014418.54048  -7803434.92346         0.00041  23456574.95946  23456574.03048
 -16377991.82548 -12762034.89347         0.00041  22232423.66447  22232424.11648
  -2660726.44449  -2073291.83548         0.00041  21187965.39448  21187966.26449
 -18292468.31808 -14253858.25508  21846152.12308  21846152.66108         0.00001
 -25614803.87009 -19959546.06308  20498084.60309  20498084.84108         0.00001
 -15972800.25648 -12446322.80646         0.00041  22120318.75946  22120318.63948
 94 02 15 03 31 00.0000000  0  8 02 04 05 07 09 12 13 24
 -14078660.62248 -10970349.29046         0.00041  22823032.30446  22823032.46248
 -23139439.43249 -18030702.34848         0.00041  20828451.00648  20828452.47049
 -10094850.94248  -7866109.48646         0.00041  23441267.73646  23441268.24548
 -16307747.88548 -12707299.35246         0.00041  22245790.99146  22245791.05048
  -2696322.90549  -2101029.32648         0.00041  21181191.78548  21181192.56949
 -18359818.02808 -14306338.53408  21833335.88608  21833336.36308         0.00001
 -25596474.10209 -19945263.11708  20501572.62509  20501572.87108         0.00001
 -16062734.78648 -12516401.62746         0.00041  22103204.62046  22103204.58748
 94 02 15 03 31 30.0000000  0  8 02 04 05 07 09 12 13 24
 -14012519.12248 -10918810.47346         0.00041  22835618.74946  22835618.80748
 -23175054.07649 -18058453.99948         0.00041  20821673.95248  20821675.19349
 -10175277.97048  -7928779.83746         0.00041  23425963.77946  23425963.53348
 -16237374.18848 -12652462.69546         0.00041  22259182.49646  22259182.61348
  -2731392.48349  -2128356.26048         0.00041  21174518.36348  21174519.01049
 -18426813.30108 -14358542.62908  21820587.08308  21820587.57008         0.00001
 -25577673.74509 -19930613.48108  20505150.18909  20505150.45708         0.00001
 -16152353.03348 -12586233.99446         0.00041  22086151.22346  22086150.86248
 94 02 15 03 32 00.0000000  0  8 02 04 05 07 09 12 13 24
 -13946135.03448 -10867082.62246         0.00041  22848251.07346  22848251.34548
 -23210111.74249 -18085771.64148         0.00041  20815002.73748  20815003.98849
 -10255698.66148  -7991445.27546         0.00041  23410659.89046  23410660.06648
 -16166892.03348 -12597541.52546         0.00041  22272594.83546  22272594.93648
  -2765937.67149  -2155274.57848         0.00041  21167944.56248  21167945.22949
 -18493457.47608 -14410473.14508  21807905.16808  21807905.66508         0.00001
 -25558410.45809 -19915603.11908  20508815.86309  20508816.11208         0.00001
 -16241656.02148 -12655820.69947         0.00041  22069157.34047  22069157.15848
 94 02 15 03 32 30.0000000  0  8 02 04 05 07 09 12 13 24
 -13879503.11948 -10815161.65846         0.00041  22860930.58046  22860930.91448
 -23244598.94149 -18112644.76748         0.00041  20808439.98448  20808441.24549
 -10336117.35948  -8054109.14046         0.00041  23395356.57446  23395356.71248
 -16096311.68048 -12542543.84046         0.00041  22286025.79246  22286026.02748
  -2799946.54849  -2181774.99248         0.00041  21161472.56948  21161473.40649
 -18559747.51308 -14462127.70908  21795290.55108  21795291.07908         0.00001
 -25538685.94409 -19900233.35908  20512569.31609  20512569.54408         0.00001
 -16330647.70148 -12725164.82846         0.00041  22052222.80946  22052222.41348
 94 02 15 03 33 00.0000000  0  8 02 04 05 07 09 12 13 24
 -13812614.76048 -10763040.85746         0.00041  22873660.07746  22873659.46148
 -23278513.11649 -18139071.37748         0.00041  20801986.38048  20801987.65049
 -10416517.60248  -8116758.64246         0.00041  23380057.14646  23380056.93648
 -16025631.68348 -12487468.50646         0.00041  22299475.61346  22299476.00948
  -2833414.50849  -2207853.91648         0.00041  21155103.87448  21155104.69049
 -18625677.18708 -14513501.46808  21782744.55908  21782745.05708         0.00001
 -25518498.37209 -19884502.77308  20516410.87009  20516411.12408         0.00001
 -16419326.28148 -12794264.99247         0.00041  22035347.22047  22035347.45048
 94 02 15 03 33 30.0000000  0  8 02 04 05 07 09 12 13 24
 -13745458.27348 -10710711.13546         0.00041  22886439.04546  22886438.92848
 -23311855.30549 -18165052.28948         0.00041  20795641.44748  20795642.81449
 -10496880.75648  -8179379.24946         0.00041  23364763.65446  23364764.26048
 -15954837.49748 -12432304.20346         0.00041  22312947.38246  22312947.58948
  -2866323.74449  -2233497.46948         0.00041  21148841.58948  21148842.42949
 -18691235.28208 -14564585.68508  21770269.27608  21770269.79108         0.00001
 -25497840.95409 -19868406.07108  20520341.84709  20520342.08908         0.00001
 -16507662.48048 -12863098.35347         0.00041  22018537.67847  22018537.68648
 94 02 15 03 34 00.0000000  0  8 02 04 05 07 09 12 13 24
 -13678053.43848 -10658187.88946         0.00041  22899265.24646  22899265.71548
 -23344639.29249 -18190598.23548         0.00041  20789402.82548  20789404.18049
 -10577205.69448  -8241970.05946         0.00041  23349478.89746  23349479.00748
 -15883945.92948 -12377064.01546         0.00041  22326437.41346  22326437.75948
  -2898677.64649  -2258708.29548         0.00041  21142684.91048  21142685.68549
 -18756430.93808 -14615387.48208  21757862.91808  21757863.44808         0.00001
 -25476727.30409 -19851953.86608  20524359.61109  20524359.85208         0.00001
 -16595652.50448 -12931661.96847         0.00041  22001793.65847  22001793.53948
